ECMWFNIL_500_spd_000.txt.gz
Wind_Speed
42 43 43 43 44 44 45 45 46 46 47 47 47 48 48 48 48 48 48 48 49 49 50 50 51 52 53 53 54 56 59 62 64 64 62 60 58 56 52 50 50 51
42 42 43 44 44 44 44 45 46 46 47 48 48 48 48 48 48 48 48 48 49 49 50 50 51 51 52 53 54 54 56 59 63 65 65 64 62 60 59 56 55 55
43 42 43 44 44 44 43 44 45 45 46 47 48 48 48 48 48 48 48 49 49 50 50 51 51 51 52 53 54 54 54 56 59 64 66 66 66 64 62 62 60 60
42 42 42 43 43 43 43 42 43 44 44 45 46 47 47 47 48 48 48 49 49 50 50 51 52 52 52 52 53 54 54 54 56 60 64 66 68 68 67 65 64 63
42 43 43 43 43 43 43 42 42 42 43 43 43 44 45 46 47 47 48 49 49 49 50 51 51 52 53 53 53 53 54 54 54 56 60 64 67 69 70 69 67 65
43 44 44 44 44 43 43 43 43 42 42 42 43 43 44 45 45 47 48 48 49 49 49 50 51 52 53 53 54 53 53 54 55 55 57 60 64 67 69 70 70 68
44 44 45 45 45 45 44 44 44 43 43 43 43 44 45 45 46 47 48 49 49 50 50 50 51 51 52 54 54 54 53 53 54 55 56 58 61 64 66 69 70 70
44 44 45 45 46 46 45 45 45 45 44 44 44 44 46 47 48 49 49 50 51 51 51 52 52 52 52 53 54 54 55 54 54 55 57 57 59 60 63 66 67 69
45 45 46 46 47 47 46 46 46 46 46 45 45 45 46 48 50 51 51 52 53 53 53 53 53 54 54 54 54 54 55 55 55 55 56 58 59 59 60 62 65 66
47 47 48 48 48 48 47 47 47 47 47 47 47 47 47 48 50 52 53 54 55 55 56 56 56 56 56 55 55 55 55 55 56 55 56 57 59 59 59 60 62 64
48 49 50 50 49 49 48 48 48 48 48 48 48 48 49 49 50 52 54 55 56 57 57 57 57 57 57 57 57 56 56 56 56 57 56 57 59 60 60 60 60 61
48 49 50 50 50 49 48 48 48 49 49 49 49 49 49 50 50 51 53 55 57 58 59 59 58 58 58 58 58 58 57 57 57 58 58 58 59 59 61 61 60 60
47 48 48 49 49 48 48 48 49 50 50 50 51 51 51 51 51 52 53 54 56 58 60 60 60 59 59 59 59 59 58 58 58 58 59 59 59 59 61 62 62 61
46 47 48 48 48 48 48 48 49 50 51 51 51 51 51 52 52 52 53 54 55 57 60 61 61 60 60 60 59 59 59 59 59 59 59 60 59 59 61 62 62 63
47 47 48 48 48 48 49 49 50 51 51 52 52 52 52 52 52 53 53 54 55 57 59 61 62 62 61 61 61 60 60 60 59 60 59 59 60 59 60 62 63 64
47 47 48 48 49 49 50 50 51 52 52 53 53 53 53 53 54 54 54 54 55 56 58 60 62 63 62 63 62 62 61 61 60 60 59 59 59 59 60 61 62 64
48 48 49 49 50 50 50 51 52 52 52 52 52 53 54 54 54 55 55 56 56 56 58 59 62 63 63 63 63 63 62 61 61 60 59 58 58 58 59 60 62 64
49 49 49 50 51 51 51 51 52 52 52 52 52 52 53 54 55 55 55 56 57 57 58 59 61 62 63 63 64 64 63 62 61 60 59 57 56 56 58 59 62 64
48 48 49 50 50 51 52 52 52 52 52 52 52 53 53 54 55 55 56 56 57 58 58 59 60 61 62 63 63 64 63 62 61 60 59 57 55 55 55 57 60 63
47 47 48 48 49 49 50 51 51 51 52 52 53 53 53 54 54 55 55 56 57 58 58 59 59 60 61 62 63 64 64 63 61 60 59 57 55 54 54 54 57 60
46 46 46 47 47 47 47 48 48 49 50 52 53 53 54 54 54 54 55 55 56 57 57 58 58 59 60 61 62 63 64 63 61 60 59 57 54 53 53 53 54 57
45 45 45 46 46 46 46 47 48 49 51 52 53 53 54 54 54 54 54 54 55 56 56 55 55 56 58 60 61 63 64 63 61 60 59 57 54 53 53 53 53 54
44 44 45 45 45 45 46 48 49 50 51 52 52 52 53 54 54 53 52 52 52 53 53 52 52 53 56 57 59 61 62 62 61 60 59 58 56 54 53 53 53 52
44 44 44 44 44 45 47 48 49 49 49 50 50 51 51 51 50 49 47 46 47 48 48 48 49 50 52 54 56 59 61 60 60 59 59 58 56 54 53 52 52 50
43 42 42 42 44 45 46 46 46 46 46 46 47 47 46 45 45 43 41 40 41 42 43 44 45 46 47 49 52 55 57 57 57 57 57 56 55 53 51 51 51 49
41 40 41 42 44 43 43 43 43 42 42 42 43 44 44 44 44 42 39 38 39 39 38 39 40 41 42 44 47 50 52 53 54 54 53 53 52 51 50 51 50 49

ECMWFNIL_500_spd_003.txt.gz
Wind_Speed
36 37 38 39 40 40 41 42 42 43 44 45 44 43 43 43 43 43 44 45 45 45 46 47 48 49 50 50 51 53 53 54 56 58 59 62 63 63 62 62 61 60
38 38 39 40 41 42 43 43 44 44 45 45 46 45 45 44 44 44 44 45 46 46 47 47 48 49 50 51 51 52 53 54 54 56 57 59 61 63 63 64 63 62
39 40 41 42 43 43 44 44 45 45 45 45 46 46 46 46 45 45 45 45 46 47 47 47 48 49 50 51 52 52 52 53 54 54 56 57 59 61 62 64 65 64
41 42 43 44 45 45 45 45 45 45 45 45 45 46 46 47 46 46 46 46 46 47 47 48 48 49 50 51 52 53 53 53 53 53 55 57 57 58 60 62 64 64
43 43 44 45 45 46 46 46 46 46 45 45 45 46 46 47 47 46 46 46 46 46 47 47 48 49 49 50 51 53 53 53 53 53 54 56 56 57 58 60 62 63
44 45 45 46 46 46 47 47 47 46 46 45 45 46 46 47 47 47 46 46 46 46 46 47 48 48 49 49 50 51 52 52 53 54 55 55 56 56 57 58 60 61
45 45 45 46 46 47 48 48 47 47 46 46 45 46 47 48 48 49 48 47 46 46 47 47 47 48 48 49 49 49 51 51 51 52 54 55 55 56 56 57 59 60
45 45 45 46 47 47 48 48 47 47 47 46 46 46 47 48 49 50 50 49 48 47 47 48 48 48 48 49 49 49 49 50 50 50 52 53 54 54 55 55 57 59
45 45 46 46 47 48 48 48 48 48 47 47 47 47 48 48 49 50 51 51 50 49 49 49 49 49 49 49 49 49 49 49 49 50 50 51 52 53 54 55 56 57
44 45 46 47 47 48 48 48 48 49 49 49 48 48 48 49 49 50 51 52 51 51 51 51 50 50 50 50 50 50 50 50 50 50 50 51 51 52 53 54 55 56
44 44 45 46 47 48 48 48 49 49 50 50 50 50 50 50 51 51 52 53 53 53 53 53 53 52 52 52 52 52 52 51 51 51 51 51 51 52 52 53 55 56
43 44 45 45 46 47 47 48 48 49 50 50 50 51 51 51 52 52 53 53 54 54 54 54 54 54 54 54 54 55 54 54 53 53 53 52 52 52 53 53 55 56
43 44 44 44 45 46 46 47 47 48 49 49 50 50 51 52 52 52 53 53 54 55 55 56 55 55 55 55 55 56 56 56 56 55 54 54 53 53 54 54 55 56
43 44 44 44 45 45 45 46 47 47 48 48 49 50 50 51 52 52 53 53 54 54 55 56 56 56 56 56 56 56 57 57 57 57 57 56 55 54 54 55 55 56
43 44 44 45 45 45 46 47 47 48 48 48 49 50 50 51 51 52 53 53 54 55 55 56 56 56 56 56 56 56 56 57 57 57 58 58 57 56 56 56 56 57
44 45 45 45 45 46 47 47 48 48 49 49 50 50 51 51 51 52 52 53 54 55 56 56 57 56 56 56 57 57 57 58 58 58 58 59 59 58 57 57 57 58
44 44 45 45 45 46 47 47 47 48 48 49 50 50 51 52 52 52 53 53 54 54 55 56 56 57 57 57 58 58 59 59 59 59 59 60 60 59 59 58 58 59
43 43 44 45 46 46 47 47 48 48 48 49 49 50 51 52 52 53 53 54 55 55 55 56 56 56 57 57 58 59 60 61 61 61 61 61 61 60 60 60 60 60
43 44 45 46 47 47 48 48 48 48 48 49 50 50 51 52 52 53 54 55 55 56 56 56 56 56 57 57 58 59 61 62 63 63 63 62 62 62 62 61 61 61
43 45 46 46 46 47 47 47 48 48 49 49 50 51 52 52 53 53 54 55 55 56 57 57 57 57 58 58 58 59 61 63 64 64 64 63 63 63 63 63 62 62
43 45 45 46 46 46 47 47 48 49 49 50 50 51 52 52 53 53 54 54 55 55 56 56 57 58 59 59 60 60 61 63 64 65 66 65 64 63 63 63 63 63
44 45 46 46 46 47 47 48 48 48 49 50 50 50 51 51 52 53 53 54 54 55 56 56 56 58 59 60 60 61 62 63 65 66 66 66 65 64 63 63 63 63
45 47 48 48 47 48 48 48 48 48 48 49 49 49 49 50 51 52 53 53 54 55 55 56 56 57 59 60 61 62 62 63 64 66 66 66 66 64 62 62 62 63
47 48 48 48 47 47 48 48 48 47 47 47 47 47 49 50 51 52 52 53 54 55 56 56 56 57 58 59 60 62 62 63 64 66 65 64 64 63 61 60 61 61
47 47 46 46 46 46 46 46 45 45 45 46 47 48 50 51 52 52 52 52 53 54 54 54 54 53 54 55 56 57 59 61 63 64 63 62 62 61 59 58 59 60
46 45 45 45 45 45 44 43 43 43 44 46 48 49 50 50 51 51 51 50 50 50 50 50 50 49 48 49 50 51 54 58 61 61 60 59 59 58 56 55 56 57

ECMWFNIL_500_spd_006.txt.gz
Wind_Speed
30 30 31 32 32 32 32 33 33 34 35 36 36 36 36 36 36 36 36 36 36 36 37 38 39 41 42 43 44 45 45 47 49 51 52 52 53 54 54 55 57 58
32 32 33 33 34 34 34 35 35 36 36 37 38 38 38 39 39 39 39 39 39 38 38 39 39 41 42 44 45 46 47 47 48 50 52 53 54 54 55 57 57 58
33 33 34 35 36 36 36 37 37 38 38 38 39 39 39 40 40 41 41 41 41 41 41 40 40 41 42 43 45 46 48 48 49 50 52 53 54 55 55 57 58 59
35 36 36 37 38 38 39 39 40 40 41 41 41 40 40 41 41 42 42 43 43 43 43 42 42 42 42 43 44 46 48 49 50 51 52 53 55 55 55 56 58 59
38 38 39 40 40 41 41 42 42 42 42 43 43 42 42 42 43 43 44 44 44 44 44 44 44 43 43 43 43 45 47 48 49 51 52 54 55 56 56 57 57 58
39 40 40 41 41 42 43 43 44 44 44 44 44 44 44 44 44 44 45 45 45 45 44 44 44 44 44 44 43 44 46 47 48 50 51 53 55 56 57 57 58 58
40 40 41 41 42 43 44 45 45 46 46 46 46 46 46 46 46 45 45 45 46 46 45 45 45 45 45 45 45 45 45 46 47 49 50 51 53 55 57 58 58 58
40 41 42 43 43 45 46 47 47 47 48 48 48 48 48 47 47 46 46 46 46 47 47 46 46 46 46 47 47 46 46 46 47 48 49 50 51 52 55 57 59 59
41 42 43 44 45 46 47 47 48 49 49 49 49 48 49 48 48 47 47 47 47 48 49 49 48 47 47 48 48 48 48 48 48 48 49 50 50 51 52 55 57 59
42 43 44 45 45 46 46 47 47 48 48 48 48 48 48 49 48 48 48 48 48 48 49 50 50 49 49 49 49 50 50 50 49 49 50 50 51 51 51 52 55 57
42 43 44 44 44 45 45 46 46 46 47 47 48 48 49 49 49 49 49 48 48 49 50 50 51 51 51 51 51 51 51 51 51 51 51 51 51 51 52 52 53 54
42 43 43 43 43 43 44 44 45 46 46 47 48 49 49 49 49 49 49 49 49 50 50 51 52 52 53 53 53 53 53 53 53 53 53 53 53 52 52 52 52 53
40 41 41 41 41 41 41 42 43 44 46 47 49 49 49 50 50 50 50 50 50 50 50 51 52 52 53 54 54 54 54 55 55 55 54 54 54 54 54 53 53 53
38 38 38 38 39 40 40 41 43 44 46 48 49 50 50 50 50 50 51 51 51 51 51 51 52 52 53 54 54 55 55 56 56 56 56 56 56 56 56 55 55 54
37 37 38 39 40 41 42 43 44 46 47 49 50 50 50 51 51 51 51 52 52 52 52 52 52 52 52 53 54 55 56 57 57 57 58 57 57 57 57 57 57 56
39 39 39 40 40 41 42 44 45 46 47 48 49 49 49 50 51 51 51 51 51 52 52 52 52 52 52 53 54 55 56 57 58 58 58 58 58 58 58 58 59 58
40 40 40 40 41 42 43 43 44 45 46 47 47 47 47 48 48 49 50 50 50 50 51 50 50 51 51 52 53 54 56 57 58 58 58 59 59 59 59 59 59 60
41 41 41 41 42 42 43 44 45 46 46 47 47 46 46 46 47 48 48 49 49 50 50 50 49 50 50 51 52 54 55 56 57 58 59 59 59 60 60 60 60 60
41 41 41 42 43 43 44 45 46 47 47 47 47 46 46 46 47 48 48 49 50 50 50 50 50 50 51 52 52 53 54 56 56 57 58 59 59 60 60 61 61 61
42 42 42 43 44 45 46 47 48 48 47 47 47 46 46 47 48 48 49 49 50 51 51 51 52 52 53 53 53 54 55 56 56 57 58 58 59 60 60 61 61 61
42 42 43 44 46 47 48 49 49 49 48 48 47 47 48 49 49 49 50 50 51 51 52 52 53 54 54 54 55 55 56 57 57 57 58 58 59 60 61 61 61 61
43 43 44 46 47 48 49 49 49 49 49 48 48 48 49 50 50 50 51 51 52 52 52 52 53 54 54 55 56 56 57 58 58 59 59 58 59 60 61 61 61 61
43 45 46 47 48 49 49 49 49 49 48 48 48 49 50 50 51 51 52 52 52 52 52 52 52 53 54 54 55 56 57 58 59 60 60 60 59 60 60 62 62 61
44 45 47 48 48 49 49 49 48 48 48 48 49 50 50 51 51 52 51 51 50 50 51 51 51 52 53 54 55 56 57 58 59 61 61 61 61 61 61 62 62 62
44 46 47 48 48 48 48 48 49 49 49 50 50 51 51 51 51 50 49 48 49 50 51 52 52 53 54 54 54 55 56 57 59 60 60 60 61 61 62 62 63 63
45 46 46 46 47 47 48 49 49 50 50 51 51 51 50 49 48 47 47 48 49 51 52 53 53 52 52 52 51 52 53 54 56 57 57 58 59 60 60 61 62 63

ECMWFNIL_500_spd_009.txt.gz
Wind_Speed
26 26 27 27 28 28 28 29 29 29 30 30 31 31 31 31 31 31 31 31 32 32 32 33 33 34 34 35 36 36 37 38 40 40 41 42 43 43 44 44 45 46
27 27 28 29 29 29 30 31 31 31 31 32 32 32 33 33 33 34 34 35 35 35 34 34 35 35 35 36 37 38 38 39 40 41 42 43 44 45 46 46 47 47
28 29 29 30 30 30 31 32 32 32 32 33 33 33 34 34 34 35 35 36 37 37 37 37 37 37 37 37 37 38 39 40 41 42 43 44 45 46 47 48 48 49
31 31 31 31 31 31 32 32 33 33 34 34 34 35 35 35 36 36 37 38 38 39 39 39 39 39 39 39 39 39 39 40 41 43 44 45 46 47 48 49 50 51
33 33 33 33 33 33 33 34 35 35 35 36 36 37 37 38 38 38 39 40 40 40 41 41 41 41 41 41 41 41 41 41 42 43 44 46 47 48 49 50 51 52
34 34 34 35 35 35 36 36 36 36 37 37 38 38 39 39 39 40 41 41 42 42 43 43 44 44 44 43 43 43 43 43 43 43 44 46 48 49 50 51 52 53
34 34 34 35 35 36 36 36 37 37 38 38 39 39 40 40 41 41 42 43 44 44 45 46 46 46 47 46 46 45 45 46 46 45 45 45 47 49 51 52 52 53
32 32 32 33 34 35 35 36 37 38 38 39 40 41 42 42 43 43 44 45 45 46 47 47 48 48 49 49 49 48 47 47 48 48 47 47 47 48 50 52 53 53
30 31 32 32 34 34 36 37 38 39 40 41 42 42 43 44 45 45 46 46 47 47 48 48 49 49 50 50 50 50 49 48 49 49 49 49 49 48 50 52 53 54
31 32 33 33 34 35 37 38 39 40 41 42 43 43 44 45 46 46 47 47 47 48 48 49 49 49 50 50 51 51 50 50 49 50 50 51 51 50 50 51 53 54
32 33 33 35 36 37 38 39 39 40 41 42 43 44 45 45 46 46 46 46 47 47 48 48 49 49 50 50 51 51 51 51 50 50 51 52 52 52 52 52 53 54
33 33 35 36 37 38 39 39 39 39 40 41 42 43 44 44 45 45 45 45 46 46 47 48 49 49 49 50 50 51 52 52 51 51 51 52 52 53 53 53 54 55
36 35 36 37 38 38 39 39 39 40 40 40 41 42 43 43 44 44 45 45 46 47 48 49 49 49 50 50 50 51 52 53 53 52 52 52 53 53 54 54 54 55
37 37 37 37 38 38 39 39 39 40 40 40 41 41 42 42 43 43 44 45 47 48 49 50 50 51 51 51 51 52 53 53 54 54 53 53 53 53 54 55 56 56
39 38 38 38 38 38 38 39 39 39 39 40 40 41 41 41 41 42 43 44 46 47 48 49 49 50 51 51 52 52 53 54 55 55 55 55 55 54 54 55 56 57
43 41 39 39 38 38 38 38 38 38 39 40 41 41 41 40 41 42 44 45 46 46 47 47 48 48 49 50 51 51 52 54 54 55 56 56 56 56 56 56 56 57
45 42 39 39 38 38 38 38 38 39 39 40 41 41 41 40 41 42 44 46 47 47 47 48 48 49 49 50 50 51 52 53 53 54 55 56 56 57 57 57 57 57
42 40 38 38 38 38 38 38 38 39 39 40 41 41 40 40 42 44 46 47 48 49 49 49 49 50 51 51 51 52 53 53 53 54 54 55 56 56 57 57 57 58
39 38 38 38 38 39 39 39 39 39 40 41 41 40 40 41 44 47 49 50 49 49 50 50 50 50 51 52 52 53 54 54 55 55 54 55 55 56 56 57 57 57
37 37 38 38 39 40 39 39 39 40 41 41 41 40 40 43 46 48 50 51 50 50 50 50 51 51 51 52 53 53 54 55 56 56 55 55 56 56 57 57 57 58
35 36 38 39 40 40 40 40 40 41 41 41 40 40 42 45 48 50 52 52 51 51 51 51 51 51 51 52 52 53 54 55 56 56 56 56 56 57 57 58 58 59
34 36 39 40 41 42 42 41 42 42 42 41 41 42 44 47 49 51 53 53 52 51 51 51 51 51 52 52 53 54 54 55 56 56 57 57 57 57 58 59 59 60
35 39 41 41 42 43 42 42 42 42 42 42 43 44 47 49 51 53 55 55 53 52 51 51 51 52 53 54 54 54 54 54 55 55 56 56 57 57 58 59 60 61
36 39 41 42 43 43 43 43 43 43 43 43 45 47 49 51 53 55 57 56 53 52 52 52 52 53 53 53 53 53 53 53 53 54 55 55 56 56 57 58 59 60
40 39 40 42 43 43 43 43 43 43 43 45 47 50 52 53 55 58 58 56 53 52 53 53 53 53 52 52 51 51 52 53 53 54 54 54 55 55 55 56 58 59
42 40 41 41 42 43 43 43 43 44 45 47 49 51 53 56 58 59 57 54 53 54 54 54 52 51 51 51 52 53 54 54 55 55 54 54 54 54 54 54 56 57

ECMWFNIL_500_spd_012.txt.gz
Wind_Speed
25 25 25 24 24 25 26 27 27 27 27 27 27 28 28 28 28 28 28 28 28 28 29 29 29 29 30 30 31 32 32 33 33 34 34 35 36 36 36 37 38 39
26 26 26 25 25 25 26 27 27 27 28 28 28 28 28 28 28 29 29 29 29 30 30 30 30 31 31 31 32 33 33 34 35 36 36 36 37 37 38 38 39 40
27 27 27 26 26 26 27 28 28 28 28 29 29 30 30 30 30 30 31 31 32 33 33 34 34 34 34 34 34 34 35 35 36 37 38 39 39 39 40 40 41 41
29 29 28 28 28 28 28 29 30 29 30 30 31 31 32 32 32 32 33 33 34 35 36 36 36 36 36 36 36 36 37 37 38 38 39 40 41 41 41 42 42 43
30 30 30 30 30 29 30 30 31 31 30 31 31 32 32 33 33 34 34 35 35 36 37 37 38 38 38 38 39 39 39 39 39 40 40 40 41 42 43 43 43 44
32 32 32 32 31 31 31 32 32 32 32 32 32 33 33 34 34 35 36 36 37 37 37 38 39 39 40 40 40 41 41 41 41 42 42 42 42 43 43 44 44 45
30 31 32 33 34 34 34 34 34 34 33 33 33 33 34 34 35 35 36 36 37 38 38 39 39 40 41 41 42 43 43 44 43 44 44 44 44 44 45 45 45 46
27 28 30 31 33 33 34 33 33 33 33 33 33 33 33 34 35 35 36 36 37 38 39 40 41 42 42 43 44 44 45 46 46 46 46 46 46 47 47 47 46 47
27 27 28 28 29 29 30 31 31 31 31 31 31 32 33 34 35 36 36 37 38 39 40 41 42 43 44 45 46 46 47 47 48 48 48 48 48 48 49 49 49 48
29 29 30 30 30 31 31 32 32 32 31 31 32 33 34 36 37 37 38 39 40 40 41 42 43 44 45 46 47 47 48 49 50 50 51 50 50 50 51 51 51 51
32 33 33 34 34 35 35 34 34 33 33 33 34 35 37 38 39 39 40 41 41 41 42 42 43 44 45 46 47 48 49 50 51 52 52 52 52 52 53 53 53 53
33 34 35 37 39 39 38 37 36 35 35 36 36 37 38 39 39 40 40 41 40 41 41 41 42 43 43 44 45 47 48 49 51 52 54 54 54 54 54 55 55 55
35 37 39 41 43 43 42 40 40 39 38 38 37 38 40 40 40 40 40 40 39 39 39 39 40 40 41 42 43 45 46 48 49 51 53 55 56 56 56 57 57 57
40 41 42 44 45 45 45 43 43 42 40 39 39 39 40 40 40 40 40 39 38 37 37 37 38 38 39 41 43 44 46 47 48 50 51 53 55 56 58 58 59 59
44 45 46 47 46 46 47 46 45 44 42 42 41 41 41 41 40 40 39 38 37 37 37 37 37 38 39 41 43 44 46 47 48 50 51 52 53 54 56 58 59 60
48 48 48 50 49 48 49 49 47 46 46 45 44 44 43 41 41 40 39 38 38 37 37 38 38 39 41 43 45 47 48 49 50 50 51 52 53 54 55 56 57 59
49 49 48 50 53 52 53 53 51 50 49 48 47 45 44 42 41 40 39 38 38 38 38 39 39 40 43 45 47 49 50 51 52 53 53 54 54 55 55 55 56 57
50 51 50 52 56 58 58 57 55 53 52 49 47 45 43 42 41 40 40 40 39 39 39 40 40 42 44 47 49 51 52 53 53 54 55 56 56 56 56 57 57 57
52 51 52 54 57 60 60 59 56 54 52 49 46 44 42 42 42 41 41 41 41 41 40 40 41 43 45 48 50 51 53 54 55 56 57 58 58 58 58 58 58 58
53 52 53 56 57 57 57 57 54 52 50 47 44 42 41 42 42 42 43 43 43 42 41 41 43 45 47 49 51 52 54 55 57 59 60 60 60 59 59 59 59 59
53 52 54 56 56 56 57 56 53 49 46 44 41 40 40 41 43 44 45 45 44 44 43 44 45 47 50 51 53 54 56 57 59 61 62 63 62 61 60 60 60 60
56 53 53 54 56 58 59 57 51 45 41 38 37 37 40 43 45 46 46 46 46 46 46 47 48 50 52 53 55 57 60 61 63 63 64 64 63 62 61 61 61 61
59 55 53 56 59 61 59 55 48 41 37 35 36 39 42 45 46 46 46 46 46 47 47 48 50 53 54 56 58 61 64 66 66 66 64 63 62 61 61 62 62 62
59 55 53 55 57 57 55 50 44 38 35 35 37 39 41 43 44 45 45 46 47 48 49 50 52 54 56 59 61 64 67 67 67 65 63 61 60 59 59 59 59 59
58 57 55 55 56 56 50 44 40 37 36 38 38 38 40 41 43 44 46 47 48 49 51 52 54 56 59 62 64 66 66 65 63 61 59 58 57 55 54 53 53 54
58 57 55 55 57 55 48 42 40 40 42 43 41 41 41 42 44 45 46 47 49 50 52 54 56 58 61 64 65 64 63 61 60 58 57 55 53 51 50 50 51 53

ECMWFNIL_500_spd_015.txt.gz
Wind_Speed
24 24 24 24 25 25 26 26 27 27 27 27 26 25 25 25 25 26 26 26 26 26 26 26 26 27 27 28 29 30 30 30 30 30 30 30 30 30 30 31 31 31
24 24 25 25 25 25 26 26 27 27 27 27 26 25 25 24 25 25 26 26 26 26 26 26 26 27 27 27 28 29 30 31 31 32 32 32 32 31 31 32 32 32
25 25 25 25 25 26 26 26 26 27 27 27 27 26 25 25 25 26 26 26 26 26 27 27 27 27 28 28 29 29 30 31 32 33 33 34 34 34 34 34 34 34
27 27 26 26 26 26 27 27 27 27 27 27 27 28 28 27 27 27 28 28 28 28 29 29 29 30 30 30 31 31 31 32 32 33 34 35 36 36 37 38 38 38
27 28 29 28 28 28 28 28 28 28 28 28 29 29 30 30 30 30 30 30 30 30 31 31 31 32 33 33 33 34 34 34 34 35 35 36 37 38 39 40 40 41
25 26 27 28 29 29 30 30 30 30 30 30 30 31 31 32 32 32 32 32 32 32 32 33 33 34 34 35 35 36 36 37 37 37 37 38 39 39 40 40 41 42
22 23 23 24 25 26 28 29 30 31 32 32 33 33 33 33 33 34 34 34 34 34 35 35 35 36 36 36 37 38 38 38 39 39 39 40 40 41 41 42 43 43
23 24 24 23 23 23 24 25 26 27 28 29 31 32 33 34 34 35 35 36 36 37 37 37 36 36 37 37 38 38 39 39 40 41 41 42 42 43 43 44 44 45
24 25 26 26 25 24 24 24 24 24 25 25 26 28 29 30 32 33 33 34 35 35 35 35 35 36 37 37 38 39 40 40 41 41 42 43 44 44 45 46 46 47
27 29 29 29 28 27 27 27 26 26 26 26 27 28 29 30 30 31 31 31 32 32 33 34 35 36 37 38 39 40 41 42 42 43 43 44 44 45 46 47 47 48
32 33 33 32 31 31 31 31 30 29 29 29 30 31 31 31 32 32 33 33 34 34 35 36 37 37 37 37 38 39 40 41 42 43 44 45 45 46 46 47 47 48
34 33 33 34 34 35 37 37 36 35 34 34 34 34 34 34 34 35 36 36 37 37 38 38 38 38 37 37 37 37 37 37 38 39 40 41 42 43 44 45 46 46
34 34 36 38 39 40 40 41 41 41 41 40 39 38 38 38 38 38 38 39 40 40 40 40 40 39 38 37 36 36 35 35 35 36 37 37 37 38 39 40 42 43
38 39 41 42 43 43 43 45 46 46 46 45 43 41 40 40 40 40 40 41 42 42 42 42 42 41 40 38 37 36 36 36 36 36 36 36 36 36 37 39 40 41
42 43 43 42 43 45 48 51 51 50 50 50 47 44 43 43 43 42 42 43 44 45 45 45 45 44 42 40 39 38 37 37 37 37 37 37 37 38 39 40 41 42
47 48 47 47 47 49 52 55 55 54 52 50 47 44 43 43 43 43 44 45 46 47 47 47 47 45 44 42 41 40 39 39 38 38 39 39 39 41 42 43 44 45
51 51 51 51 51 50 51 55 57 53 47 45 45 44 44 44 45 45 46 48 51 51 50 50 49 46 44 43 43 42 41 41 40 40 41 41 42 44 45 46 47 48
52 52 53 53 53 51 50 53 57 55 51 50 50 50 49 49 48 47 47 50 53 54 54 52 49 47 45 44 43 43 43 42 42 43 43 44 46 47 47 48 49 50
53 53 54 55 55 54 53 54 57 58 56 52 50 50 50 50 50 49 49 49 50 52 55 53 49 47 47 45 44 44 44 44 45 46 47 48 49 49 50 51 51 52
56 56 57 58 58 57 56 56 56 57 57 55 54 52 51 52 52 51 50 48 46 48 52 52 48 47 47 46 45 45 46 47 48 49 50 50 51 51 52 53 53 55
58 59 59 60 61 61 59 59 59 60 62 61 59 55 52 53 53 51 51 49 46 47 49 48 46 46 46 46 46 47 48 50 50 51 52 53 53 53 54 55 56 57
61 61 62 63 65 64 63 62 62 63 63 61 58 56 53 53 53 52 52 50 47 47 46 44 44 45 46 46 47 49 51 52 52 53 53 54 55 56 57 58 59 60
60 61 62 63 63 61 60 59 60 62 62 60 60 59 56 55 55 54 55 54 50 45 43 42 43 44 45 46 48 50 52 53 53 54 54 56 57 58 60 60 61 63
59 60 60 60 60 58 56 56 56 56 57 58 59 59 58 57 54 51 51 50 45 40 40 41 43 44 45 47 48 51 52 53 54 55 56 57 59 60 61 62 63 65
59 59 58 58 58 57 56 55 54 52 52 53 54 56 57 56 51 47 44 41 38 38 41 42 43 45 46 48 49 51 53 54 55 56 57 59 60 61 62 63 64 67
59 59 58 58 57 55 56 57 55 52 51 49 49 51 53 52 48 45 42 41 40 44 46 44 44 46 47 49 51 53 54 56 57 58 59 60 61 62 63 64 67 70

ECMWFNIL_500_spd_018.txt.gz
Wind_Speed
24 23 23 22 22 23 23 23 23 23 24 25 25 25 24 24 24 25 25 25 25 24 24 24 24 24 25 25 25 25 25 24 24 25 25 26 26 27 27 28 28 28
25 26 25 24 23 23 23 23 22 22 23 24 25 25 25 24 23 23 23 23 24 24 24 23 24 24 24 25 26 26 26 26 25 25 25 26 26 27 27 28 28 29
25 26 26 26 25 24 24 23 22 22 23 24 24 25 25 25 24 23 22 22 22 22 22 23 23 23 23 24 25 25 26 26 26 26 26 26 27 27 28 28 29 29
25 26 27 27 26 26 25 24 23 22 22 23 24 25 26 26 25 24 23 22 22 22 22 23 24 24 24 24 25 26 26 27 27 28 28 28 29 29 29 30 30 31
24 25 26 26 26 26 26 26 25 24 23 24 24 25 26 26 26 26 25 24 24 24 24 25 25 26 26 27 27 27 28 28 29 30 31 31 31 32 32 32 33 33
24 23 24 24 24 25 25 25 25 25 24 25 25 26 26 26 26 27 26 26 26 26 26 27 27 28 28 29 29 29 29 30 30 31 32 33 33 34 35 35 35 36
25 25 24 23 22 22 22 22 22 22 22 23 25 26 27 28 28 28 27 27 27 27 28 29 29 29 30 30 31 31 32 32 32 32 33 34 34 35 36 37 37 38
28 26 25 24 22 21 22 22 22 21 21 21 22 24 25 26 26 26 26 26 26 26 27 29 30 31 31 31 32 32 32 33 33 34 35 35 36 36 37 38 38 39
31 29 27 25 24 23 24 24 24 24 23 23 23 24 24 24 23 23 23 23 23 23 24 26 28 30 31 31 31 31 31 32 33 34 35 36 37 38 39 39 40 41
34 32 30 28 27 27 27 27 27 28 27 27 26 25 25 25 25 25 24 24 24 24 24 25 26 27 29 30 30 31 31 32 33 34 34 36 37 38 39 40 41 42
35 34 33 31 30 31 31 31 32 32 32 32 31 29 28 28 28 28 26 26 26 26 27 27 27 28 29 30 31 32 33 34 34 34 35 35 36 37 38 38 39 39
36 35 34 33 34 35 35 35 36 35 34 33 34 33 32 31 31 31 30 30 30 30 30 30 31 31 31 32 32 33 34 34 35 35 35 36 36 36 37 36 36 36
37 37 36 36 36 38 38 38 38 37 36 36 37 38 38 38 36 35 35 34 34 34 34 34 34 34 34 34 35 35 35 36 36 36 36 36 36 36 37 37 36 35
38 38 38 38 38 39 41 40 39 38 40 42 43 44 44 44 42 40 39 39 37 37 38 37 37 36 36 36 37 37 36 37 38 39 38 37 37 37 37 38 37 36
40 41 41 41 41 42 43 42 42 43 44 44 46 49 49 47 44 43 42 42 40 40 41 42 40 39 37 37 38 38 38 39 40 41 41 40 39 39 39 39 39 39
45 44 44 44 44 45 45 45 46 47 46 45 46 50 53 52 49 47 45 42 41 41 41 40 38 38 37 38 39 40 41 42 43 43 43 42 41 41 41 41 41 41
49 49 48 47 47 47 48 49 50 50 49 48 47 49 53 53 52 50 49 46 45 44 41 39 38 40 42 42 42 42 43 44 46 47 45 43 43 43 43 43 43 42
52 52 52 51 50 50 50 52 54 53 53 53 52 52 54 55 54 52 51 49 48 45 45 46 46 45 45 44 44 44 44 45 46 46 46 45 44 44 44 45 44 43
55 55 55 54 53 52 53 54 55 55 55 55 55 55 56 57 56 54 53 52 51 49 50 51 50 46 46 47 47 46 46 46 45 45 45 45 45 45 45 46 45 44
58 57 57 56 55 54 54 55 56 56 56 56 56 56 56 56 56 55 54 53 53 53 52 51 50 49 50 51 50 48 47 46 47 46 45 45 45 45 45 45 45 44
59 59 58 58 58 57 56 56 56 57 57 57 57 57 56 55 55 55 54 53 53 54 54 54 54 54 54 51 51 50 48 47 47 47 47 47 45 44 43 44 44 44
60 60 59 59 59 58 58 58 58 58 58 58 58 59 58 57 56 56 56 56 56 56 57 57 57 57 54 53 53 52 50 49 49 49 47 45 43 42 43 44 45 46
60 60 59 59 59 59 59 60 60 60 59 58 57 57 56 55 54 54 55 56 56 55 55 55 56 56 56 56 56 55 53 52 50 47 44 42 42 42 44 45 46 48
58 58 59 59 60 60 61 61 62 62 61 59 57 57 56 55 54 53 52 53 53 54 54 55 55 55 55 57 57 56 55 53 48 42 40 41 43 45 46 47 49 50
57 57 58 59 59 60 60 61 62 62 62 60 59 58 55 53 51 49 48 49 51 52 53 53 52 53 53 54 55 55 54 52 47 42 41 43 45 47 49 50 52 53
58 58 59 59 60 60 60 61 61 62 61 58 54 52 50 48 47 46 46 47 49 49 49 49 49 50 50 50 51 50 51 51 50 47 46 47 48 49 51 52 54 55

ECMWFNIL_500_spd_021.txt.gz
Wind_Speed
21 21 20 20 19 19 18 18 18 18 19 20 21 22 22 22 21 21 20 19 19 19 19 20 20 20 21 21 20 19 19 18 19 20 21 21 22 22 22 22 22 23
22 21 21 20 20 20 20 20 19 19 19 20 20 21 22 22 22 21 20 19 19 19 19 19 20 20 20 21 20 20 19 19 18 19 20 21 22 22 23 23 23 23
21 21 20 20 19 19 20 20 20 20 20 20 21 22 22 22 22 22 21 20 19 19 19 19 19 20 20 20 20 20 20 19 19 19 19 20 21 22 22 23 23 24
20 20 19 19 19 19 19 20 20 21 21 21 22 22 23 23 23 23 22 22 21 20 20 20 19 19 19 19 19 19 20 20 20 20 20 20 21 21 22 23 23 24
20 20 20 20 19 19 19 20 21 21 22 22 22 23 24 24 24 24 24 23 23 23 22 21 21 21 20 20 20 20 20 21 21 22 22 22 22 23 23 24 25 25
22 21 21 20 20 20 20 21 21 22 22 22 22 23 24 24 25 25 25 25 25 25 25 24 24 23 22 22 21 21 22 22 23 24 24 24 25 25 25 26 26 27
24 24 23 22 21 21 22 23 23 22 23 22 22 22 22 22 23 24 25 26 27 27 27 27 26 26 25 24 23 23 23 24 24 25 26 26 27 27 27 28 28 29
27 27 26 25 24 24 24 25 24 24 23 22 22 21 21 20 21 21 22 24 26 27 29 29 29 29 28 26 25 24 24 24 24 25 26 27 28 29 30 30 31 31
29 29 29 28 27 26 25 26 27 26 25 24 23 23 22 21 21 20 21 22 23 25 26 28 28 28 28 27 26 25 24 24 24 25 26 27 28 28 29 30 31 32
30 31 33 32 31 30 28 28 28 28 27 26 26 25 25 24 23 23 23 23 23 22 23 25 26 26 25 26 26 26 26 25 25 26 26 27 28 28 29 30 30 31
33 34 35 35 34 33 32 31 30 30 30 29 29 30 29 28 27 26 26 26 26 25 24 24 25 25 25 26 27 28 28 28 28 29 29 30 30 30 30 30 31 31
35 35 35 36 36 34 32 32 32 32 32 32 31 31 32 32 32 31 30 29 29 29 27 27 27 28 28 28 29 30 31 32 32 33 34 34 34 34 33 32 32 32
36 36 35 36 37 36 35 34 34 33 34 33 33 33 34 36 36 35 33 33 32 32 32 32 32 33 32 32 32 33 33 34 35 36 36 37 37 37 37 36 35 34
39 39 38 38 38 38 38 38 36 36 36 36 35 35 36 37 39 39 38 37 37 36 36 36 36 36 37 36 36 37 37 36 37 38 38 38 39 39 39 39 39 38
43 42 41 41 40 40 40 41 40 39 39 39 39 38 37 38 41 42 42 40 40 40 40 40 39 38 38 39 38 37 37 37 38 40 41 40 39 39 39 39 40 40
46 45 44 44 43 43 43 43 43 43 43 43 43 42 42 43 43 43 43 42 41 41 42 43 42 39 39 39 39 38 38 37 37 38 39 39 39 39 39 40 41 41
48 47 46 46 46 46 45 45 45 46 47 47 47 46 46 47 48 48 48 48 47 47 47 47 46 44 42 41 40 41 41 41 40 39 39 40 40 42 43 44 44 44
52 51 50 49 50 50 49 49 49 49 50 50 51 51 50 51 51 52 52 53 54 54 53 53 52 50 49 47 46 46 46 45 44 44 43 43 45 46 46 46 47 47
55 54 54 53 53 54 54 54 53 53 53 53 54 54 55 55 54 54 54 54 55 56 56 56 55 53 52 52 51 51 50 48 47 47 48 48 50 50 47 46 47 48
57 56 56 56 56 56 56 56 56 55 55 56 56 56 57 57 57 57 56 56 56 57 57 56 55 54 53 52 52 52 52 51 50 51 52 53 53 52 49 47 48 49
57 57 56 56 57 57 56 56 56 56 55 56 56 57 57 57 57 57 57 57 57 57 58 57 56 55 54 54 53 53 53 52 51 51 53 54 53 52 53 53 52 52
56 56 56 56 56 56 56 56 56 56 56 56 56 56 56 56 56 57 57 57 57 57 57 57 56 56 56 56 55 55 54 54 53 52 53 54 54 54 56 57 56 54
56 56 56 56 56 56 56 57 57 57 57 57 57 58 58 58 58 58 58 58 58 57 56 56 57 56 56 55 54 54 53 53 52 51 51 52 53 54 55 57 57 57
56 56 56 57 57 57 57 57 58 58 58 58 58 59 59 59 59 59 59 59 58 56 55 55 55 54 54 54 53 53 53 53 52 50 49 49 50 51 53 54 56 57
56 56 56 57 57 57 57 57 57 57 57 58 58 58 59 59 59 60 59 58 57 56 55 54 54 54 55 55 54 52 51 49 48 47 47 47 48 49 50 51 53 55
56 56 56 56 56 56 56 56 56 56 56 56 56 57 57 58 59 59 59 58 58 56 56 55 53 53 52 52 50 49 47 46 47 48 48 49 50 50 50 51 51 52

ECMWFNIL_500_spd_024.txt.gz
Wind_Speed
20 20 20 20 20 20 19 19 19 19 18 18 18 17 17 17 17 17 17 17 17 17 18 18 18 19 19 19 19 19 19 18 19 20 20 21 20 20 21 21 21 21
22 21 21 20 20 20 20 19 19 19 19 19 19 18 18 17 16 16 16 16 17 17 17 17 17 17 18 18 18 19 19 19 19 19 20 20 21 20 20 21 21 21
23 23 22 21 20 20 19 19 18 17 18 18 19 19 19 18 17 16 16 16 16 16 16 16 16 16 17 17 18 18 18 18 18 19 19 20 20 20 20 20 20 20
23 23 22 21 20 19 18 18 17 17 17 17 18 19 19 19 19 18 17 17 16 16 16 16 16 16 16 17 18 18 18 18 18 18 18 18 19 20 20 20 20 20
24 22 21 20 19 18 18 18 18 17 17 17 18 18 19 19 20 20 19 19 18 18 17 17 17 17 17 17 18 19 19 19 19 19 19 19 19 20 20 20 21 21
25 23 22 21 19 18 18 19 19 19 18 18 18 18 19 19 20 20 20 21 21 21 20 19 19 18 18 18 19 20 20 20 21 21 21 21 21 21 21 22 22 22
25 25 24 24 23 21 21 21 21 21 21 20 19 19 20 19 19 19 19 20 20 20 21 21 21 21 20 20 20 21 21 22 22 22 22 23 22 23 23 23 24 24
26 26 26 26 26 25 24 24 24 24 23 23 22 22 21 20 20 20 19 19 19 19 19 19 20 21 21 22 22 22 22 23 23 24 24 24 24 25 25 25 25 25
29 29 29 28 28 28 28 28 27 27 26 26 25 24 23 23 22 22 21 20 19 18 18 18 19 19 20 21 22 22 23 23 24 24 25 26 26 27 27 27 28 28
31 31 31 31 31 31 31 31 31 30 28 27 26 26 25 25 25 25 24 23 21 20 20 20 20 20 20 20 21 21 21 22 23 24 25 26 27 28 28 29 29 30
33 33 34 34 34 33 33 33 33 33 31 30 30 29 29 29 29 28 28 27 25 24 24 24 23 23 22 22 23 23 23 24 25 26 26 27 28 28 29 29 30 31
36 36 36 36 36 35 35 35 35 35 34 34 33 33 32 32 33 33 33 31 30 29 28 27 26 26 26 26 26 26 26 27 28 29 29 29 29 29 30 31 31 32
38 38 37 37 37 37 37 37 37 37 37 37 36 35 34 34 36 37 37 36 35 33 32 31 28 27 28 29 30 30 31 31 32 33 34 34 33 32 32 33 33 34
39 39 39 39 39 38 39 39 39 38 38 39 39 37 36 35 37 38 39 39 39 37 37 35 32 30 31 33 34 36 37 37 37 37 38 38 37 37 36 36 36 37
42 42 42 42 42 41 42 41 41 40 40 41 41 40 40 39 38 39 40 41 41 41 40 39 38 37 37 37 37 38 38 38 37 38 39 40 40 40 39 38 38 39
47 47 47 47 47 46 46 45 45 44 44 44 44 44 44 43 42 41 42 43 43 43 42 42 42 43 43 41 40 39 37 34 34 35 36 38 39 39 39 39 39 39
51 51 51 50 50 50 50 50 49 49 48 48 47 48 48 47 46 45 44 45 46 46 46 46 47 47 47 45 44 44 42 41 40 40 40 40 40 40 40 40 40 41
53 53 53 53 53 52 52 52 52 51 51 50 50 50 51 51 50 50 49 48 48 49 49 50 50 51 51 50 49 49 49 50 50 49 48 47 47 46 46 46 45 46
54 54 54 54 53 53 53 53 53 52 52 52 52 52 52 52 53 53 53 52 52 52 52 52 53 53 54 53 53 53 53 54 54 54 53 52 51 51 51 50 50 50
57 57 56 56 55 55 55 54 54 54 54 54 55 55 54 54 55 56 56 56 56 56 56 56 55 56 56 56 56 56 56 56 57 56 55 54 53 52 52 52 51 51
59 59 59 58 58 58 57 57 56 56 56 56 56 57 57 57 58 58 59 59 59 60 59 59 58 59 59 59 59 59 58 58 57 57 56 55 54 53 53 52 52 51
58 58 58 58 58 58 58 57 57 57 57 57 57 57 57 57 58 59 60 60 61 61 60 60 60 60 59 59 59 59 58 58 57 57 56 56 55 54 53 53 52 52
56 56 56 56 56 56 56 56 56 56 57 57 57 57 57 57 57 58 58 59 59 59 59 59 59 59 58 58 58 57 57 57 57 57 56 56 55 55 53 52 51 51
54 54 54 54 54 54 55 55 55 56 56 56 56 57 57 57 57 57 57 58 58 58 57 58 58 58 57 57 57 57 56 56 57 56 56 55 55 54 52 51 51 51
52 52 52 52 53 53 53 54 54 55 55 56 56 56 57 57 57 57 57 58 58 58 58 58 58 58 57 57 57 56 56 56 55 55 55 54 55 54 53 52 53 53
52 52 52 52 52 53 53 53 54 54 55 55 55 56 57 57 57 57 58 58 58 58 59 59 58 57 57 56 56 56 55 55 55 54 54 54 54 54 54 54 54 53

ECMWFNIL_500_spd_027.txt.gz
Wind_Speed
20 19 19 19 20 20 20 20 20 20 20 19 18 17 17 17 17 17 17 17 17 17 17 17 18 19 20 20 21 22 22 22 22 21 21 21 21 21 21 21 21 20
22 21 21 20 20 21 22 21 21 20 20 20 19 18 17 17 17 16 16 16 16 16 16 16 17 18 18 19 20 21 21 22 21 21 21 21 21 21 20 20 20 19
22 22 22 21 21 21 22 22 22 21 21 20 19 19 18 17 17 16 16 16 16 16 16 16 16 16 17 18 19 19 20 20 21 21 20 20 20 21 20 20 20 19
23 23 22 21 21 21 22 22 23 22 22 21 20 18 17 17 16 16 16 16 16 16 16 16 16 16 16 17 18 18 19 19 19 20 20 20 20 20 20 20 19 19
24 23 22 22 22 22 21 22 23 23 23 22 20 19 18 17 16 16 16 16 16 17 17 17 17 17 17 17 17 18 18 18 19 19 19 19 19 19 20 20 19 19
25 24 23 24 24 23 22 23 23 23 23 22 21 19 18 18 17 16 16 16 17 17 17 18 18 19 19 19 18 18 19 19 19 20 20 20 20 20 21 21 21 20
27 25 25 25 24 24 23 24 24 24 23 22 22 21 20 19 18 17 17 17 17 17 17 17 17 18 19 19 20 20 20 20 21 21 22 22 23 23 23 23 22 22
30 28 26 26 25 24 24 24 25 25 25 24 23 23 22 21 20 19 19 18 18 18 18 17 16 16 17 17 18 19 20 21 22 23 23 24 25 25 25 25 25 25
34 32 30 28 27 26 25 25 25 26 26 26 26 25 25 24 24 22 21 21 20 20 20 20 19 18 17 17 17 17 19 20 22 23 24 26 26 27 27 27 27 27
33 32 32 31 30 29 29 29 29 28 28 28 28 28 28 27 27 25 24 23 23 23 23 23 22 21 20 20 19 19 19 20 21 22 23 25 26 27 28 28 29 29
33 33 33 33 32 32 32 32 32 32 31 31 31 31 30 29 29 28 27 25 25 25 26 25 25 24 23 23 23 22 23 23 23 23 24 25 26 26 27 28 29 29
34 34 34 35 34 35 35 35 34 34 34 33 33 34 33 31 30 30 30 30 29 28 29 29 28 28 27 26 26 26 27 28 27 27 27 27 27 28 29 29 29 29
38 37 37 37 37 37 37 37 36 37 37 38 38 37 36 34 33 32 33 33 33 33 32 33 32 32 32 31 31 30 30 31 31 32 32 31 31 31 31 31 32 31
43 41 40 41 41 40 39 39 39 39 39 39 40 40 39 37 35 34 34 35 36 36 36 37 36 35 36 35 35 35 35 34 34 34 34 34 35 35 35 35 35 35
46 44 42 43 44 44 43 42 41 41 41 41 41 39 38 38 37 36 36 37 38 38 39 40 39 38 38 38 38 39 39 38 37 36 36 36 37 38 39 40 41 41
51 49 47 45 45 46 46 46 46 46 46 46 45 43 41 41 40 39 39 40 39 41 42 42 41 40 40 40 40 42 42 42 41 40 40 40 39 39 39 38 39 39
52 51 50 48 46 47 48 48 49 49 49 49 50 49 48 47 46 45 45 44 44 44 45 45 44 43 43 43 43 43 43 44 43 43 44 44 43 43 43 41 40 40
50 50 50 50 50 50 50 51 52 52 52 52 53 53 53 52 50 49 49 49 50 49 48 48 48 47 47 47 47 46 46 46 46 46 47 47 48 48 48 47 47 47
48 48 49 49 50 51 52 53 54 54 55 55 55 55 55 54 53 52 52 52 53 53 52 52 52 50 49 50 51 51 51 50 50 50 50 50 51 51 51 50 51 51
49 48 49 50 50 51 52 53 54 54 54 55 55 55 55 55 54 54 54 53 54 54 54 55 55 53 51 52 53 53 53 54 54 53 53 53 54 54 54 53 53 54
55 54 55 56 56 56 56 56 57 57 57 57 57 56 56 56 57 57 56 56 56 56 56 57 56 54 53 55 56 55 56 57 57 56 56 56 57 56 57 56 56 56
58 58 59 59 60 59 59 59 60 60 60 60 60 60 60 60 60 60 60 59 59 59 59 58 56 55 56 57 57 58 58 59 59 59 59 59 59 59 59 59 59 58
58 58 58 58 58 59 58 58 59 59 59 60 60 60 61 60 61 61 60 60 61 61 60 58 56 56 57 57 57 58 58 59 59 59 59 60 59 59 60 60 60 59
57 57 57 57 56 56 56 56 56 56 56 57 57 58 58 58 58 58 59 60 60 59 58 56 56 57 57 57 57 57 57 57 57 57 57 57 58 58 59 59 59 59
55 55 55 55 55 55 55 54 54 54 54 54 54 55 55 56 56 56 57 58 57 56 55 55 56 56 56 56 56 56 56 56 56 56 56 56 57 57 58 59 59 60
54 54 54 54 54 54 54 54 54 53 53 53 53 53 53 54 55 55 55 55 54 54 54 55 55 55 55 56 55 55 56 56 56 57 56 56 57 57 58 59 59 59

ECMWFNIL_500_spd_030.txt.gz
Wind_Speed
22 22 20 18 17 18 18 19 19 19 18 19 19 19 18 18 18 17 17 16 16 16 16 17 17 18 18 19 19 19 19 19 20 19 19 20 20 20 20 19 19 19
22 21 20 18 18 19 20 20 20 20 20 20 20 20 19 19 19 18 18 17 16 15 15 15 16 16 17 17 18 18 18 19 19 19 19 19 19 19 20 19 19 19
22 21 20 19 20 21 22 22 21 21 21 21 21 20 20 19 19 19 19 18 18 17 16 15 15 16 16 16 17 17 17 17 18 18 19 19 19 19 19 19 19 18
23 22 21 20 21 21 22 23 22 21 21 22 21 21 20 19 19 19 19 18 18 18 17 17 16 16 16 16 16 16 17 17 17 17 17 18 18 18 18 19 19 18
24 24 23 21 21 22 22 22 22 22 21 21 21 21 20 20 19 18 18 18 18 18 18 18 18 18 18 17 17 17 17 17 17 17 17 17 17 18 18 18 19 19
26 25 23 22 22 22 21 21 22 22 22 21 21 20 20 20 19 18 18 17 17 17 18 18 19 19 19 19 19 19 18 18 18 18 18 18 18 18 18 19 19 19
26 25 24 23 23 23 22 21 22 23 23 22 20 20 20 20 19 19 19 18 18 18 18 18 19 19 20 20 21 21 21 21 20 20 20 20 20 20 20 20 20 20
27 27 26 24 23 24 24 24 24 23 23 22 21 21 21 21 21 20 20 20 20 20 20 19 19 19 20 20 20 21 21 22 22 23 23 23 23 23 23 22 22 22
31 31 30 28 27 27 27 27 27 26 24 22 22 22 22 22 23 23 22 22 22 23 23 22 22 21 20 20 20 20 20 21 22 23 24 24 25 25 25 25 24 24
35 34 33 31 30 30 29 30 30 30 28 25 24 24 24 24 24 25 25 25 25 26 26 25 24 23 22 22 22 21 21 22 22 22 22 22 23 24 24 25 26 26
37 35 33 32 31 31 30 29 29 29 29 29 28 27 27 27 26 27 28 29 28 29 28 27 27 26 25 25 25 25 24 24 24 23 23 23 23 24 23 24 25 26
36 35 34 33 32 32 31 30 31 32 32 31 30 29 29 29 29 30 31 32 31 31 30 30 30 29 28 28 28 28 27 27 27 27 26 26 26 26 26 26 26 27
38 37 37 36 35 35 35 34 35 35 33 30 29 30 31 32 33 35 35 33 31 30 30 32 32 33 33 31 29 29 30 30 31 31 30 30 30 30 30 30 30 30
40 40 40 40 39 40 41 40 39 37 33 32 33 33 34 34 34 34 35 34 32 30 29 30 31 31 32 32 30 29 30 32 33 34 34 34 34 34 34 34 34 34
43 43 43 43 43 44 45 45 45 44 42 41 41 40 39 39 38 38 38 36 34 31 30 30 30 29 29 28 28 29 31 32 34 36 37 37 37 36 36 36 36 36
47 47 47 47 47 47 48 48 48 47 46 44 44 44 44 45 45 45 44 42 40 39 39 40 40 37 34 32 31 32 34 35 36 37 38 39 39 39 38 38 38 39
52 51 51 51 50 50 51 51 51 50 48 46 44 45 45 47 48 47 46 47 48 48 49 49 48 44 42 41 39 38 39 40 41 40 40 41 42 42 41 40 41 42
54 53 53 52 52 52 53 53 53 53 52 51 49 47 46 47 48 49 48 48 49 51 51 52 50 48 47 46 44 43 43 44 45 45 44 45 45 45 44 44 44 44
54 53 52 52 51 52 52 53 54 54 54 54 53 52 50 49 49 50 51 51 51 51 52 53 52 51 51 50 48 47 46 46 47 48 48 48 48 48 49 49 49 49
54 53 52 51 51 51 52 52 53 54 53 53 53 53 53 52 51 51 52 52 52 51 52 52 52 52 51 50 49 48 47 48 49 50 50 50 50 51 52 53 53 53
53 54 53 52 51 52 53 53 54 54 53 52 52 52 52 53 52 52 52 52 53 53 53 53 52 52 52 52 50 49 50 51 52 52 52 52 52 52 52 53 54 55
53 53 54 54 54 54 54 54 54 55 54 53 53 53 53 54 55 56 56 56 56 57 57 56 56 57 57 56 55 54 54 56 56 55 55 55 55 55 55 55 55 55
52 53 54 55 56 56 57 57 57 57 57 57 57 57 57 58 59 60 61 61 61 61 61 60 59 59 58 57 57 56 57 58 57 56 56 56 56 55 55 55 55 56
52 52 53 54 54 56 57 58 58 58 57 57 57 58 58 58 59 60 61 62 62 61 60 59 59 59 58 57 57 56 56 56 56 55 55 54 54 54 54 55 55 55
51 52 52 53 54 55 55 56 56 56 56 56 55 56 56 56 57 58 59 60 60 58 58 57 58 58 58 57 56 55 54 54 54 53 53 53 53 53 53 54 54 55
50 51 52 53 54 54 55 56 57 57 56 56 56 55 56 56 56 56 56 57 57 56 56 56 57 57 57 56 55 54 53 53 52 52 53 52 52 53 53 53 53 54

ECMWFNIL_500_spd_033.txt.gz
Wind_Speed
25 24 23 21 21 19 18 18 18 17 16 17 17 17 17 17 17 16 16 16 16 16 15 15 15 15 15 16 16 15 15 15 15 14 14 14 14 15 15 15 14 14
26 26 24 21 20 19 17 16 16 15 15 16 17 17 17 17 17 17 17 17 17 17 16 16 16 16 16 16 16 16 16 16 15 15 14 14 14 14 14 14 15 14
27 26 25 22 20 19 17 16 15 15 15 16 17 17 16 17 17 17 17 17 17 17 17 17 16 16 16 16 16 16 16 16 16 16 15 15 14 14 14 14 14 14
28 26 24 22 20 20 19 17 15 15 16 16 16 16 16 16 16 16 16 17 17 17 17 17 16 16 16 16 16 16 17 17 17 17 17 16 16 15 14 14 14 13
30 25 23 22 21 21 20 18 17 16 17 17 17 16 16 16 15 15 16 16 16 17 17 17 16 16 15 15 16 16 17 17 18 18 18 18 18 17 16 16 15 14
30 22 20 21 23 23 21 18 17 17 16 17 18 18 18 17 17 16 16 17 17 17 17 17 16 16 16 16 16 16 17 18 18 19 19 20 19 19 18 18 17 16
28 23 19 18 20 23 22 19 17 18 17 17 18 19 18 19 19 19 18 18 18 18 18 17 17 17 17 17 17 17 17 17 18 19 19 20 20 20 20 19 18 18
26 26 25 23 24 23 22 20 19 19 19 19 19 20 19 20 20 21 21 21 21 21 21 20 19 19 19 19 19 19 19 18 18 18 18 19 19 20 20 20 20 20
27 27 29 32 34 31 27 25 23 22 22 22 22 22 21 22 22 21 21 22 23 23 22 22 22 21 21 21 21 21 21 20 19 18 18 18 18 19 19 19 19 19
32 31 30 33 36 36 33 31 29 27 26 26 26 25 25 26 26 24 23 23 24 23 23 23 23 23 24 26 25 24 23 23 22 20 19 19 19 19 18 18 18 18
34 35 35 35 35 35 35 34 32 29 27 28 28 28 28 28 28 27 26 26 26 26 26 25 25 25 26 26 26 26 25 24 24 24 22 21 21 21 20 19 20 19
35 35 36 36 36 35 34 33 31 29 28 28 28 28 28 27 26 27 29 29 29 29 28 28 28 28 28 27 26 26 26 25 26 26 26 25 24 24 23 22 22 22
37 36 35 35 35 35 35 33 32 30 31 31 30 29 29 29 29 30 31 30 29 29 29 29 30 30 30 29 27 26 27 27 28 29 29 29 27 26 26 25 26 26
41 40 39 38 37 37 37 36 35 34 34 34 34 33 33 33 33 33 32 30 30 31 31 31 31 31 31 30 28 28 27 25 26 28 30 30 29 28 29 29 29 30
44 44 44 43 42 41 40 40 39 39 39 38 38 38 38 38 38 37 37 36 37 38 37 35 34 35 37 36 33 31 28 24 25 27 28 29 29 29 29 30 30 32
47 47 47 47 47 47 46 45 45 44 44 43 43 42 41 41 41 41 42 42 42 41 40 39 39 39 40 40 38 37 36 36 38 38 35 33 32 32 32 32 33 34
50 50 50 50 51 51 51 51 50 50 50 50 49 48 47 46 45 45 45 45 44 44 43 43 43 42 43 43 43 43 44 46 47 46 44 41 39 38 37 38 39 39
53 53 53 54 54 55 55 55 55 55 55 54 53 53 52 52 51 50 49 48 47 46 46 46 46 46 46 46 46 46 46 46 46 46 46 45 43 42 40 39 41 42
54 54 55 56 56 57 58 58 58 58 58 58 57 56 55 55 54 53 52 51 49 48 47 47 47 47 48 48 48 47 47 47 46 46 46 45 45 44 42 41 43 44
51 52 52 53 54 55 57 57 58 58 59 59 59 59 58 58 57 55 54 53 51 50 49 49 48 47 47 47 48 47 47 46 47 47 46 45 45 45 43 43 44 45
50 50 50 50 51 53 54 54 55 55 56 56 57 56 57 57 57 57 55 54 53 52 51 51 50 48 46 45 46 46 46 46 46 46 47 47 48 48 47 46 46 47
53 53 52 52 51 51 52 52 52 53 53 53 53 53 54 54 55 55 55 54 53 52 51 50 50 49 49 49 49 48 49 49 49 49 50 50 51 52 52 52 51 50
54 54 54 53 52 51 51 51 51 51 51 51 51 52 53 53 54 54 55 55 54 53 52 52 52 52 53 53 53 53 52 52 52 52 52 52 52 53 54 55 54 53
54 54 53 53 52 52 51 51 51 50 50 51 51 51 52 52 53 54 55 55 55 54 54 53 53 53 54 55 55 54 53 52 52 52 52 52 52 52 52 53 53 54
53 52 52 52 52 52 52 52 51 51 51 51 51 52 52 52 52 53 53 53 54 53 53 53 52 51 51 52 53 52 52 52 51 51 51 51 51 51 51 51 51 52
52 52 51 51 51 51 51 51 51 51 51 52 52 52 53 53 53 53 53 53 53 53 53 53 52 52 51 51 51 51 51 51 51 50 50 50 50 50 50 51 51 50

ECMWFNIL_500_spd_036.txt.gz
Wind_Speed
21 19 19 18 17 17 17 17 18 18 18 19 19 17 16 15 14 14 13 13 13 13 13 13 13 13 13 13 13 13 14 14 15 16 16 17 17 17 17 17 17 17
24 21 21 19 18 19 17 16 17 18 18 18 18 18 17 17 16 15 15 14 14 13 14 14 14 14 14 14 14 14 14 14 14 14 15 15 16 16 17 17 17 16
24 23 22 21 21 21 18 16 16 17 18 18 18 17 17 17 17 17 16 16 15 15 14 14 15 15 15 15 15 15 15 15 15 14 14 15 15 15 16 16 17 17
21 21 22 23 23 22 18 17 17 17 17 18 18 17 16 16 17 17 16 16 16 16 15 15 15 15 16 16 16 16 16 16 16 16 15 15 15 15 15 15 15 16
22 20 20 22 23 22 19 18 20 18 17 16 17 18 17 16 15 16 16 15 15 15 15 16 16 16 16 17 17 17 17 17 17 17 17 16 16 15 15 15 15 16
20 20 19 20 23 24 20 19 21 19 16 16 16 18 18 17 17 16 16 16 15 15 15 15 16 17 16 16 17 17 18 18 17 18 18 18 18 17 17 16 16 16
20 21 20 19 22 23 21 21 21 18 17 17 18 19 19 19 19 18 17 17 17 17 17 17 17 17 17 17 17 17 17 17 17 17 18 18 18 19 19 19 19 18
23 23 22 21 21 22 22 21 20 18 17 19 21 21 21 21 20 20 20 20 20 20 20 20 19 18 18 18 19 19 19 18 17 17 18 19 19 19 20 20 20 20
23 24 24 23 23 23 24 24 24 24 24 23 23 24 24 23 21 21 21 21 23 24 23 22 21 20 19 20 20 20 21 20 20 20 20 20 19 20 20 21 20 20
25 25 25 25 25 25 26 27 28 29 28 26 25 26 26 24 23 23 23 23 25 28 28 25 23 22 22 21 21 21 22 23 23 24 24 23 22 22 22 21 20 20
27 26 25 25 26 27 27 28 29 29 28 27 27 28 26 25 25 24 24 24 25 27 29 28 25 24 25 25 25 25 25 26 26 26 24 23 24 24 24 23 22 22
28 28 27 28 28 29 31 32 32 31 30 28 27 28 27 26 26 25 25 25 25 25 26 26 25 26 26 26 26 26 27 28 29 28 25 23 24 25 25 25 25 24
32 32 32 31 30 31 32 32 31 31 31 29 29 30 29 28 27 27 27 27 27 27 26 25 26 27 28 27 24 23 26 28 28 27 26 25 25 26 26 26 27 26
36 35 35 34 33 34 33 33 33 33 33 33 34 34 32 31 30 30 30 30 30 30 30 30 30 30 31 30 28 27 28 29 29 29 28 28 28 27 25 24 24 26
39 39 39 38 38 38 37 37 38 38 38 39 39 38 36 34 34 33 33 34 34 35 34 34 35 35 34 34 35 35 34 33 33 33 32 31 30 29 26 24 25 27
41 42 42 42 42 41 41 41 41 41 41 42 42 41 41 40 39 38 38 38 38 39 39 39 39 39 39 39 39 39 38 36 35 35 35 35 34 34 34 34 36 36
42 43 43 43 44 44 44 44 44 44 44 44 44 44 45 45 44 44 44 43 43 44 44 44 44 44 43 43 42 41 40 39 38 38 38 38 39 39 40 41 41 41
42 42 42 41 42 42 43 44 46 47 47 47 47 48 48 48 49 49 48 48 48 48 48 48 47 46 46 45 45 44 43 42 42 42 41 41 41 42 42 43 43 43
43 43 42 42 42 42 43 43 44 45 46 47 47 48 48 49 49 50 50 50 50 49 49 49 48 47 46 46 46 46 46 46 45 44 44 43 43 43 44 44 44 44
45 45 45 45 45 45 45 44 43 43 43 43 44 45 45 46 47 47 48 49 49 48 48 48 47 46 46 46 46 47 48 47 46 45 45 45 45 45 45 45 45 45
47 47 46 46 46 46 46 46 45 45 45 45 46 47 47 47 48 47 47 47 47 47 47 47 47 47 47 47 47 47 47 46 45 45 45 45 45 45 45 45 44 44
49 49 49 48 47 47 47 47 47 48 49 50 51 51 51 51 51 51 49 48 47 47 46 46 47 47 47 47 48 47 47 46 46 45 45 45 45 45 45 45 45 45
52 52 51 51 50 49 49 49 49 50 51 52 53 53 53 53 53 53 52 50 50 49 48 47 47 47 47 47 48 48 48 48 48 48 47 47 47 47 48 48 48 48
54 54 54 54 54 53 52 51 51 52 52 53 54 54 55 55 54 54 52 51 51 50 50 50 49 48 48 48 48 48 48 48 49 49 49 49 50 50 50 50 50 50
55 55 55 55 55 54 53 53 52 53 53 54 55 55 55 54 54 53 52 51 51 51 51 51 51 50 50 49 49 49 49 49 49 49 50 50 50 51 51 51 51 51
57 57 56 56 55 55 54 54 54 54 54 54 54 54 53 53 52 51 51 51 51 51 51 51 52 52 52 52 51 51 51 51 51 50 50 50 51 51 50 50 50 50

ECMWFNIL_500_spd_039.txt.gz
Wind_Speed
27 27 22 18 14 13 15 17 19 20 20 19 18 17 17 17 17 16 15 14 13 12 11 11 11 11 11 12 12 12 12 13 14 15 16 16 17 18 18 19 19 20
26 25 24 22 18 15 15 16 18 20 20 19 19 18 17 17 17 16 16 15 14 13 13 12 12 12 12 12 12 12 12 13 13 13 14 14 15 15 16 17 17 18
22 20 18 16 15 14 15 17 20 21 21 20 20 19 18 17 16 16 16 16 15 15 15 14 14 13 13 12 12 11 12 12 13 13 13 13 13 14 14 15 16 16
20 18 15 12 13 13 13 17 20 22 22 21 20 19 18 17 16 16 16 17 17 16 16 15 15 15 14 14 13 12 12 12 12 13 14 14 14 14 14 14 15 15
19 20 17 14 13 12 13 15 19 21 22 21 20 19 19 19 18 18 17 17 16 16 15 15 15 15 15 14 14 14 13 13 13 14 14 15 15 15 15 15 15 15
17 17 16 14 13 13 13 15 17 20 21 20 20 19 19 19 19 18 17 16 14 14 14 14 14 15 15 15 15 15 15 14 14 15 15 15 16 16 16 16 16 17
15 16 16 17 16 15 15 15 15 18 20 20 19 20 20 19 18 17 16 14 13 13 13 12 12 13 14 15 16 16 16 15 15 15 15 15 16 16 16 17 17 18
15 18 19 19 18 17 17 16 15 17 19 18 19 20 20 18 18 18 18 17 15 15 16 15 14 13 14 15 16 17 17 17 16 16 16 16 16 16 17 18 18 19
18 20 21 20 19 17 18 19 19 20 20 20 20 21 23 24 23 22 22 22 20 19 20 20 19 17 17 17 16 17 17 18 18 18 17 18 18 19 19 20 21 21
18 19 20 19 17 15 17 19 19 21 22 23 23 22 24 27 27 25 25 27 26 24 23 24 24 24 23 22 20 19 18 18 18 18 18 18 19 20 22 23 23 23
18 17 17 17 16 15 14 15 17 19 20 22 23 22 23 24 25 25 25 26 27 27 26 26 26 26 26 25 23 21 20 20 20 20 20 19 19 20 22 23 23 22
20 18 17 17 18 19 19 19 20 21 21 22 22 22 21 21 23 24 24 24 23 23 24 24 24 25 24 23 23 22 21 22 22 23 22 20 19 19 20 20 20 21
23 22 22 21 21 21 22 23 23 24 24 24 22 22 22 21 21 22 24 25 23 22 22 22 23 24 24 23 24 24 23 23 24 25 24 23 21 20 20 20 20 21
26 25 25 25 24 23 24 24 22 22 22 21 22 25 27 26 25 25 25 26 25 24 24 23 23 24 25 25 26 26 26 26 27 28 28 27 27 26 26 26 26 26
29 28 28 27 26 26 27 26 23 23 25 27 29 31 31 30 30 30 31 31 31 32 31 30 28 28 28 29 29 29 29 30 31 32 32 32 32 32 31 31 31 31
34 33 32 32 31 31 32 32 31 31 33 33 34 34 33 32 33 34 35 37 38 39 38 35 32 32 33 33 33 33 33 34 34 35 35 36 35 35 34 34 34 33
39 38 37 36 36 36 36 35 35 35 35 35 34 33 33 33 34 36 38 39 40 40 39 37 36 36 36 36 36 37 37 37 38 38 38 38 38 38 37 37 36 36
42 41 41 40 40 39 38 37 37 37 37 37 37 36 36 37 38 38 39 39 40 39 38 38 38 37 37 38 38 39 39 40 40 40 40 40 40 41 41 41 40 40
43 42 43 42 42 40 39 39 39 39 40 40 40 40 41 40 40 39 39 39 39 39 38 38 39 39 39 39 39 39 40 40 41 41 41 42 42 42 43 43 43 43
44 43 43 43 42 41 40 40 41 41 42 42 43 43 43 42 41 40 39 39 40 40 41 41 42 43 43 43 42 42 42 42 42 41 41 42 42 43 44 45 45 45
46 45 45 44 44 43 42 43 43 43 44 44 44 44 44 43 43 42 42 42 42 43 43 44 45 45 45 46 46 46 46 45 44 43 43 42 42 42 43 44 45 46
47 47 47 47 47 47 46 47 47 47 47 47 47 47 46 46 45 44 44 44 45 45 46 46 47 47 47 48 48 48 48 48 47 46 45 44 44 43 43 43 44 44
46 47 48 49 50 50 50 50 50 50 50 49 49 49 48 48 48 47 48 48 48 48 48 48 49 49 50 50 50 50 50 49 49 48 47 46 45 45 44 44 44 44
45 46 47 48 49 50 51 51 50 50 50 50 50 50 50 50 50 50 50 50 50 50 50 50 50 51 51 51 51 51 51 50 49 49 48 47 46 46 45 45 45 45
46 47 48 49 49 49 50 50 49 49 49 50 50 50 51 51 52 52 52 51 51 51 52 52 52 53 52 52 52 51 51 50 49 49 48 48 47 47 46 46 46 46
50 50 52 53 53 52 52 51 51 51 51 52 52 53 53 53 53 52 52 51 51 52 53 53 53 53 53 52 52 51 50 49 48 48 48 47 47 47 47 46 46 46

ECMWFNIL_500_spd_042.txt.gz
Wind_Speed
19 20 20 19 18 18 18 18 18 16 15 15 14 13 14 15 16 16 16 16 15 15 14 14 13 13 13 14 15 15 15 15 14 14 13 12 12 12 12 13 13 13
17 18 18 17 16 18 19 19 19 17 16 16 15 14 14 14 15 15 15 14 14 13 13 13 12 12 13 14 15 16 16 16 16 15 14 13 12 12 11 11 11 12
14 15 16 15 15 15 15 16 17 17 17 17 16 14 14 14 15 15 14 13 13 13 12 12 12 13 13 14 15 15 16 16 16 16 15 14 13 13 12 11 10 10
11 12 13 14 14 13 12 13 15 17 18 17 15 14 15 15 15 14 13 13 13 13 13 13 13 13 13 14 14 15 15 15 15 15 14 14 14 13 13 12 12 11
10 11 12 12 13 12 11 13 16 17 17 16 15 15 16 15 15 14 14 13 13 13 13 13 13 13 13 14 14 15 15 15 15 15 15 14 14 14 14 13 13 12
9 10 10 10 10 10 11 13 14 16 17 16 15 17 17 17 16 15 14 14 12 12 12 13 13 13 13 14 14 14 15 15 15 15 15 15 14 14 14 14 14 13
10 9 9 10 10 11 12 13 15 17 18 17 16 17 18 17 16 15 13 13 11 11 11 12 12 12 13 13 13 14 14 15 15 16 16 16 15 15 14 14 14 14
12 12 12 12 13 13 14 15 17 18 18 17 16 17 17 17 16 15 14 14 13 12 13 13 14 14 14 14 14 14 13 14 15 16 17 17 17 16 15 15 15 15
14 14 14 15 16 16 16 15 16 17 18 17 15 16 18 18 17 17 18 18 17 16 17 17 18 19 19 18 17 16 15 15 15 16 17 18 18 19 18 18 17 17
15 15 15 15 16 16 15 13 13 15 17 18 18 18 18 19 20 20 21 21 20 19 19 19 20 21 22 21 20 19 19 19 18 18 18 19 19 19 19 19 19 19
16 16 16 15 15 15 14 14 14 14 14 16 18 19 19 19 21 21 21 22 21 20 20 20 20 21 21 22 21 20 19 19 19 20 20 20 20 20 20 20 20 20
17 17 17 17 16 16 17 17 16 15 15 15 16 18 20 20 20 19 20 22 21 20 21 21 21 21 20 21 22 19 17 16 17 18 19 20 20 20 20 20 20 21
21 20 19 19 19 20 21 19 17 16 17 18 18 20 22 22 21 20 20 21 20 20 22 23 22 22 22 22 22 20 18 18 19 19 20 20 20 20 20 21 22 22
26 25 24 23 23 24 22 20 19 18 19 20 20 20 20 21 22 22 22 22 21 22 24 24 24 25 25 25 24 23 23 25 25 25 24 24 24 24 23 23 24 25
31 30 29 28 28 27 25 23 23 22 21 20 21 21 21 21 22 24 26 28 29 29 29 29 29 29 29 29 29 30 31 31 31 31 30 29 29 29 29 29 28 29
34 34 34 33 32 32 31 30 29 28 26 25 25 26 27 28 28 29 30 31 32 31 31 32 32 33 33 34 35 37 37 36 37 37 36 34 33 33 33 34 34 34
38 38 38 37 36 35 34 33 32 32 32 31 30 30 30 31 32 32 31 31 31 31 31 31 32 33 34 35 37 38 39 39 39 40 39 37 36 36 36 37 38 38
41 41 40 39 39 37 36 36 35 35 35 35 34 33 32 32 32 32 32 31 32 32 33 33 34 35 36 36 36 36 37 36 36 36 35 35 36 36 37 38 39 40
44 43 42 41 40 39 38 38 38 37 37 36 36 35 34 34 34 35 34 33 33 33 34 35 36 36 36 36 36 36 36 35 35 34 35 35 36 36 37 37 38 39
43 43 43 43 43 42 41 40 40 39 39 39 38 38 37 37 37 38 37 36 35 35 36 36 37 37 37 38 38 37 37 37 37 37 37 37 37 38 38 38 38 39
44 45 45 45 44 43 43 43 43 43 42 42 41 40 39 39 39 39 39 39 39 39 39 39 39 40 40 40 40 39 39 40 40 40 40 40 41 40 40 40 40 40
45 45 45 44 44 44 44 43 43 43 42 42 42 42 42 42 42 42 42 42 43 43 43 43 42 42 42 42 42 42 42 42 43 43 43 43 43 43 43 43 43 42
42 42 42 42 42 42 42 41 40 41 42 42 43 43 43 44 44 45 45 45 45 45 45 44 44 44 43 43 44 44 44 44 44 44 44 44 44 45 45 45 44 44
36 36 38 39 40 41 40 40 40 41 42 43 43 44 44 44 44 45 45 45 45 45 45 45 44 44 44 44 45 45 46 45 45 45 45 45 45 45 45 45 45 45
36 36 37 38 39 40 41 41 42 43 44 44 45 45 46 45 44 44 44 44 45 45 45 45 45 45 46 46 47 47 47 47 47 46 46 46 46 46 46 45 45 45
45 44 42 41 40 42 44 45 45 46 46 46 46 48 50 49 47 47 47 47 47 47 47 46 47 47 47 47 47 47 47 47 47 47 47 47 46 46 45 45 45 45

ECMWFNIL_500_spd_045.txt.gz
Wind_Speed
12 12 13 15 16 18 19 20 20 20 20 18 15 14 14 14 13 13 13 14 14 14 15 16 16 17 17 18 18 18 18 18 17 17 17 17 17 16 16 15 15 14
14 14 13 14 15 16 17 18 19 21 23 21 18 17 17 16 14 13 13 13 13 13 14 14 15 15 16 17 17 18 18 18 17 17 16 16 16 16 16 15 14 14
12 11 11 12 13 15 16 17 18 21 23 22 19 18 18 17 15 14 14 14 13 13 13 14 13 14 14 15 16 17 18 18 18 18 17 17 16 16 16 15 15 14
10 10 10 11 12 13 14 16 17 18 19 19 18 18 18 17 15 13 13 13 14 13 13 13 12 12 13 14 16 17 18 18 19 19 18 18 17 16 15 15 15 15
12 12 12 12 12 13 15 16 17 17 17 17 18 18 16 15 14 11 11 12 12 12 12 12 12 13 13 14 15 15 16 16 17 17 18 18 17 17 16 15 15 14
12 12 12 13 14 15 16 17 17 17 16 16 17 17 16 16 14 12 11 12 12 12 11 11 12 13 14 15 15 15 15 15 15 16 16 17 17 16 16 15 15 14
12 13 14 15 15 16 16 16 15 16 16 16 17 18 17 16 15 14 14 13 12 11 11 10 11 12 13 13 14 13 13 14 15 15 15 15 16 16 16 16 15 15
13 14 15 15 16 16 16 16 15 16 17 17 19 20 19 17 17 17 15 12 11 11 12 11 11 12 13 14 14 14 15 15 16 16 16 16 16 16 16 17 17 16
15 16 16 16 16 17 17 18 17 17 17 17 19 20 20 19 18 18 16 14 12 13 14 15 15 15 16 17 17 17 18 18 18 18 18 17 16 17 18 18 18 18
16 17 17 17 17 17 16 16 16 16 16 16 17 19 21 20 19 19 18 16 15 16 17 18 18 17 18 18 18 19 20 20 20 20 20 20 20 20 19 18 19 19
15 16 18 19 17 16 15 14 14 14 14 14 16 18 20 21 21 21 19 18 18 21 21 19 18 19 19 19 18 19 19 19 20 20 21 22 23 23 21 19 19 20
14 15 17 17 16 15 15 15 14 14 14 15 17 18 19 19 20 21 21 20 21 23 22 21 20 21 20 20 20 20 19 19 19 19 20 20 20 21 22 22 21 22
17 17 18 18 17 17 17 17 17 17 17 18 18 19 20 20 20 21 22 22 23 23 23 23 23 23 22 21 21 21 22 22 21 21 22 21 19 19 20 22 22 23
21 21 22 23 22 22 21 21 21 21 21 20 19 20 20 21 23 24 25 25 26 26 26 25 25 24 23 22 22 23 25 26 26 25 25 25 24 22 21 22 23 24
25 26 26 26 26 26 26 26 25 25 25 24 24 24 24 25 26 26 26 25 25 26 26 27 27 26 26 26 27 29 30 30 31 30 30 30 30 29 28 27 27 28
30 30 30 30 30 30 30 30 29 29 29 29 29 29 28 28 28 28 27 26 26 27 28 29 30 30 31 31 32 33 32 32 33 33 33 34 34 34 35 33 32 33
34 34 34 34 34 34 34 34 34 34 34 34 33 32 31 31 32 32 32 32 31 31 32 34 34 35 35 35 34 33 33 33 34 34 34 35 36 36 38 37 35 35
38 38 38 38 37 37 37 38 38 38 38 37 37 36 35 35 35 35 36 36 35 35 35 36 37 37 37 36 35 34 34 34 35 36 37 37 37 36 36 36 36 35
42 42 42 42 42 41 40 40 40 40 40 40 40 39 38 38 37 37 37 37 37 36 36 37 38 39 39 38 37 36 35 36 37 38 38 38 37 36 35 35 35 35
43 43 43 43 43 43 42 41 41 41 41 41 41 41 40 40 39 39 38 38 38 38 38 39 39 40 40 39 38 37 37 37 38 38 38 37 37 36 35 36 36 37
40 41 41 42 42 42 42 41 41 41 41 41 41 42 42 41 41 40 40 40 41 42 41 41 41 41 41 41 40 40 40 39 39 40 39 39 39 38 38 38 38 39
36 36 37 38 39 40 41 42 42 42 43 43 43 43 42 42 41 42 42 43 43 43 43 42 42 43 43 44 44 43 42 41 41 41 41 42 42 42 41 41 41 41
32 32 32 32 34 35 37 39 40 41 42 42 42 42 42 42 42 42 42 42 42 42 42 43 44 45 45 45 45 45 44 42 42 42 42 42 42 42 42 42 42 42
31 31 30 29 29 31 32 33 35 37 38 39 40 40 40 41 41 42 41 40 40 40 41 43 44 44 44 43 43 43 42 42 42 42 42 42 42 42 42 43 43 43
36 35 35 33 31 31 32 32 33 34 35 36 38 39 39 40 41 41 41 41 41 42 42 43 43 43 43 42 41 41 41 42 42 43 43 43 43 43 44 44 44 44
45 45 45 44 42 40 39 38 39 39 38 38 39 39 40 41 42 42 43 44 44 44 44 44 45 45 44 44 43 43 44 44 45 45 45 44 44 45 45 45 45 45

ECMWFNIL_500_spd_048.txt.gz
Wind_Speed
18 17 18 19 20 20 20 21 21 21 20 18 17 17 16 16 16 16 16 17 17 18 18 19 19 19 18 18 17 17 16 16 16 16 17 17 18 18 18 18 18 18
21 18 16 16 17 17 18 19 20 20 19 18 19 20 19 18 17 18 18 18 17 17 17 18 18 19 19 19 18 17 16 15 15 15 15 16 16 17 18 18 18 17
20 19 18 17 17 17 18 18 19 19 19 20 22 21 18 16 17 19 19 18 18 17 17 17 18 18 18 18 18 17 17 16 15 15 15 15 16 16 17 17 17 16
18 18 18 18 17 17 17 18 18 19 19 21 22 19 15 13 16 18 19 19 18 18 18 17 17 17 16 17 17 17 17 16 16 16 17 17 17 17 17 16 16 16
18 18 17 17 16 16 17 17 18 19 20 21 21 19 15 13 15 17 18 18 19 18 18 17 17 16 16 16 16 16 16 16 16 16 17 18 19 19 18 17 16 15
19 19 19 18 17 17 17 18 18 19 19 20 21 21 20 17 16 16 17 18 18 18 17 17 17 17 16 16 16 16 15 15 15 15 16 17 18 19 19 19 18 16
20 20 20 20 19 18 17 18 19 19 20 20 21 21 21 19 18 17 16 17 18 17 17 18 18 18 17 16 15 14 14 14 14 13 14 15 16 17 17 18 18 17
20 20 20 19 18 17 17 18 19 19 20 20 20 20 20 20 18 17 17 17 18 17 17 18 19 18 17 15 14 13 14 14 13 13 14 15 16 16 17 18 18 18
19 19 18 17 17 17 17 17 18 19 19 19 20 20 20 21 20 18 17 18 18 18 18 18 19 18 17 16 16 16 16 17 17 17 18 18 18 18 18 18 18 18
19 19 18 18 18 18 18 18 19 20 20 21 22 22 22 23 21 19 18 18 18 18 19 20 20 19 19 20 20 19 19 19 19 20 20 20 20 21 21 21 21 21
20 20 20 20 21 21 20 20 20 21 21 21 21 21 21 21 20 19 18 18 19 19 20 22 22 22 22 22 22 22 21 20 20 21 21 21 22 22 23 23 24 25
22 22 23 24 24 23 23 23 22 22 21 20 19 19 19 19 19 18 18 18 19 19 21 23 24 24 24 24 24 23 23 22 22 23 22 21 21 22 23 23 24 24
22 24 24 24 23 22 23 23 23 22 21 20 19 19 19 19 19 20 21 20 20 20 22 23 25 25 25 26 26 25 25 25 24 24 23 23 22 23 23 24 24 24
23 24 24 22 21 21 22 23 22 22 22 21 21 21 21 21 21 21 22 22 21 21 22 23 25 26 27 27 27 27 27 27 25 24 24 24 24 24 25 26 26 26
23 25 25 25 24 24 25 25 24 24 24 24 25 25 25 24 23 23 23 23 23 23 24 25 26 28 29 30 30 29 29 28 28 27 27 26 27 27 28 29 30 30
23 24 26 27 28 28 28 27 27 27 27 28 29 29 29 27 26 26 27 27 28 27 28 28 29 29 30 30 31 31 31 31 31 31 31 31 32 32 32 33 34 34
27 28 29 30 32 33 32 31 32 32 32 32 33 33 32 31 30 30 31 32 32 32 31 31 31 31 31 31 32 33 34 35 35 35 36 37 37 37 36 37 37 37
33 33 34 34 35 36 36 37 37 37 37 37 38 37 37 37 36 35 35 35 36 35 35 35 35 35 35 36 36 37 38 39 40 40 41 41 40 40 39 39 39 39
39 39 39 39 39 39 40 40 40 40 40 41 41 41 41 41 40 40 39 39 39 38 39 39 39 40 41 41 42 42 43 43 43 43 43 42 41 41 41 41 41 41
42 43 42 42 42 42 42 43 43 42 42 43 43 43 43 42 39 39 41 42 42 41 41 42 43 43 44 45 45 45 44 44 44 43 42 42 42 43 43 43 43 43
41 41 42 42 42 42 42 43 45 45 45 46 46 46 46 44 42 43 45 45 45 45 44 44 45 45 45 46 45 45 44 43 43 43 43 44 44 44 44 44 43 43
37 38 39 39 40 41 42 43 44 45 45 46 46 46 47 47 47 49 50 50 49 48 46 46 45 45 46 46 45 44 44 44 44 44 45 45 45 46 46 45 45 45
38 39 40 41 41 42 42 43 43 43 43 44 44 45 46 47 49 49 50 50 49 48 48 47 46 46 46 46 45 45 46 46 46 45 45 45 46 46 47 47 47 48
39 39 40 41 42 42 41 40 40 39 39 40 41 42 44 45 46 47 48 48 48 49 49 49 48 48 46 46 46 46 45 45 44 43 43 44 45 46 46 46 45 45
41 41 41 40 41 42 43 41 39 37 37 37 37 38 40 42 43 44 45 45 46 47 47 47 46 46 45 45 45 43 42 41 41 41 42 44 45 45 44 44 43 43
48 47 45 44 44 44 45 44 42 39 36 35 36 36 38 41 42 42 42 43 43 43 43 43 43 42 42 42 41 41 40 41 42 44 45 45 45 46 46 46 46 46

ECMWFNIL_500_spd_051.txt.gz
Wind_Speed
24 23 27 29 25 22 23 23 23 22 21 20 18 17 16 15 15 15 16 17 18 18 19 19 19 19 19 19 20 19 19 19 19 19 19 19 19 18 18 17 16 16
25 23 26 29 27 23 22 22 22 22 21 19 17 16 16 16 16 17 18 19 20 20 21 20 20 19 19 20 20 20 20 20 19 19 19 19 18 18 18 18 17 16
25 24 26 28 25 21 20 20 19 19 19 18 17 16 16 16 16 17 19 20 21 21 21 21 20 20 20 20 20 21 21 20 20 19 18 18 18 17 17 17 17 17
26 27 28 27 24 22 22 21 20 19 18 18 16 15 15 16 17 18 18 19 20 21 21 21 21 20 20 20 20 20 21 21 20 19 18 17 16 16 16 16 17 17
29 29 28 27 25 24 23 23 22 20 19 17 16 16 16 17 18 19 19 19 19 20 20 21 21 21 20 19 20 20 21 21 21 20 19 18 17 16 15 15 15 15
29 27 24 25 25 24 23 23 22 21 20 19 18 18 18 19 19 19 19 19 20 20 21 21 22 21 20 19 19 20 20 21 20 20 19 18 18 17 16 16 15 14
26 24 24 25 25 24 23 23 22 21 20 20 20 20 20 20 20 19 19 19 19 20 20 21 22 22 21 20 19 19 20 20 20 20 19 18 18 18 17 16 16 15
24 24 24 24 24 24 24 24 24 24 23 23 23 22 22 22 22 21 21 20 20 19 20 21 22 22 22 22 21 20 19 19 19 19 18 18 17 17 17 16 16 16
26 26 25 25 26 26 26 26 26 26 25 25 25 24 24 24 24 23 22 21 20 19 20 22 22 23 23 23 22 21 19 18 17 17 17 18 18 18 18 18 18 18
25 25 24 25 26 27 27 28 28 28 28 27 26 26 26 25 24 24 23 22 22 21 21 22 23 24 24 24 24 22 20 19 18 18 19 20 20 21 21 21 21 21
24 24 24 25 27 27 27 28 29 29 29 28 27 26 26 25 25 25 24 23 23 22 22 22 23 25 25 25 24 24 22 22 21 22 22 22 22 23 22 22 22 23
25 26 26 27 27 27 28 30 30 29 28 27 27 26 26 26 25 25 25 24 23 22 22 22 23 24 25 25 25 25 25 25 24 24 24 24 25 24 24 24 23 23
23 24 25 26 26 27 28 28 27 26 27 28 28 27 26 26 26 25 24 23 23 23 23 22 22 23 25 26 26 26 26 27 26 26 26 26 27 27 27 27 26 24
20 21 22 23 24 26 26 24 23 23 24 26 29 29 29 29 28 26 25 25 24 24 24 24 23 24 25 26 26 26 27 27 27 27 26 26 27 28 29 29 28 27
20 21 22 22 23 26 28 26 25 24 23 24 27 28 29 28 26 25 26 27 27 26 26 27 26 26 27 27 25 25 26 27 27 27 27 27 29 30 29 30 29 29
22 22 21 21 21 25 27 27 26 26 26 27 26 25 25 25 25 26 26 28 28 28 28 30 30 30 29 28 26 26 27 28 28 28 28 28 30 31 30 31 31 30
27 26 25 24 25 26 27 28 27 28 30 31 29 28 28 28 29 31 31 31 31 30 29 30 32 32 32 31 31 30 30 31 32 31 31 31 33 34 33 33 33 32
29 29 29 30 30 30 30 31 31 31 32 33 33 34 34 33 33 33 32 32 34 34 34 34 34 35 35 36 36 35 35 36 37 37 37 36 38 38 38 38 37 37
31 32 32 33 34 33 34 35 35 35 36 37 37 36 35 34 33 33 33 35 37 39 39 39 39 40 40 40 41 40 40 40 40 41 41 41 42 42 42 42 42 42
35 36 36 37 37 37 38 39 39 39 41 42 41 40 39 40 41 41 41 42 42 42 41 42 43 44 45 45 45 44 44 44 44 44 44 45 45 45 45 45 46 46
40 40 40 41 41 41 42 43 43 44 45 45 45 46 47 48 48 48 47 46 45 44 44 45 46 47 47 47 46 45 45 45 44 45 46 47 47 48 48 48 48 47
42 42 42 43 44 45 45 46 47 48 48 49 49 50 50 49 49 49 48 47 46 46 47 48 48 49 49 49 48 47 46 46 46 47 48 48 49 49 49 49 48 48
40 39 40 40 42 43 44 45 47 47 48 48 48 47 46 46 46 46 47 47 48 49 50 52 52 53 52 52 52 51 51 50 50 49 48 48 49 49 48 48 48 48
34 36 37 38 40 41 41 42 43 44 45 45 45 45 45 45 46 46 47 49 50 50 51 52 53 53 53 54 54 53 53 52 51 49 48 48 49 48 47 47 47 47
35 36 38 39 39 40 40 40 41 42 43 43 44 45 45 45 46 47 47 48 49 49 50 50 51 51 52 53 53 53 53 52 51 51 51 50 50 50 49 48 48 46
46 46 47 47 47 47 46 46 46 46 46 46 46 46 46 46 46 47 48 48 49 50 50 50 50 50 51 51 51 51 51 51 51 51 50 50 50 49 48 46 45 43

ECMWFNIL_500_spd_054.txt.gz
Wind_Speed
21 20 19 18 17 18 20 22 24 24 22 22 21 19 17 17 17 17 17 17 16 14 14 14 15 15 16 17 18 18 19 19 19 19 19 19 19 19 19 18 18 18
21 23 22 20 18 18 20 22 24 26 26 25 22 19 17 17 18 18 17 17 16 16 16 16 17 17 17 18 19 19 19 19 19 19 19 19 19 19 19 19 19 18
22 23 24 23 21 20 21 22 24 26 26 24 21 19 19 19 19 18 17 16 17 17 17 17 17 17 17 18 18 18 18 18 18 18 19 19 19 19 19 19 19 19
23 23 23 25 24 23 24 24 24 24 24 21 19 19 19 19 18 18 17 16 17 17 17 17 17 17 17 17 17 17 18 18 18 19 19 19 19 19 19 19 19 19
25 25 24 25 26 27 29 27 24 25 24 22 21 19 19 18 18 17 17 17 17 17 17 18 18 19 18 18 17 17 17 18 18 19 19 19 19 19 20 19 19 19
24 25 25 26 28 30 30 28 25 26 26 24 24 21 20 19 18 19 19 19 19 19 19 20 20 20 19 18 18 17 17 18 18 19 19 20 20 20 20 19 19 18
24 24 25 28 29 29 28 26 25 27 26 25 24 23 21 20 20 21 21 21 21 21 21 21 21 20 19 19 19 18 18 18 18 19 19 19 19 19 20 19 19 18
22 25 26 28 28 27 27 26 26 27 26 25 25 24 23 23 23 23 23 23 22 22 22 22 21 21 20 20 20 19 19 18 18 18 19 18 18 19 19 18 18 17
17 22 26 26 25 25 26 26 27 28 27 26 26 26 25 25 25 25 25 24 23 22 21 21 21 21 21 21 20 20 20 20 19 19 18 17 16 16 16 17 18 18
14 16 21 22 22 24 26 27 28 28 28 28 28 27 27 27 27 26 25 24 23 23 22 21 21 21 22 21 21 21 21 21 20 19 18 18 16 16 17 18 19 20
13 16 20 21 23 25 26 27 28 28 28 28 28 28 28 28 27 26 25 24 24 24 22 22 22 22 23 23 22 21 21 21 21 21 20 20 20 20 21 22 23 23
13 16 19 21 21 20 19 22 25 27 28 28 28 29 29 27 27 25 25 25 24 24 23 22 23 24 24 23 22 21 20 21 22 23 23 23 23 23 23 24 25 25
15 18 20 22 22 19 18 20 22 25 27 28 28 28 28 27 27 26 25 25 25 24 22 20 20 21 22 21 20 21 20 20 22 24 24 24 24 23 24 24 24 25
13 18 20 20 21 21 20 20 21 24 26 26 26 26 27 28 29 29 28 28 27 25 22 20 19 19 20 20 21 21 20 20 23 25 25 25 24 24 25 25 25 26
12 15 15 15 17 18 18 19 21 22 24 24 24 26 27 27 27 28 28 28 28 26 24 23 22 21 21 22 22 22 22 22 23 23 24 25 25 26 27 27 28 27
14 16 16 16 16 17 19 20 20 20 21 21 23 26 27 26 25 25 25 25 26 25 25 25 24 23 23 24 24 25 26 27 27 26 25 25 27 28 28 28 29 29
18 20 21 22 21 20 21 21 21 22 23 22 23 25 26 27 26 26 26 25 24 24 26 28 28 27 27 27 27 28 28 29 30 30 29 29 29 30 31 32 32 33
22 22 23 24 25 25 25 25 26 28 28 26 25 26 27 28 28 29 29 28 28 28 30 32 33 34 33 32 29 29 30 31 32 32 33 34 34 35 35 36 37 37
24 25 25 27 28 28 28 29 30 31 30 29 28 28 29 30 31 32 32 31 32 33 35 36 35 35 34 32 32 34 36 36 37 37 38 39 40 40 41 41 42 42
28 27 27 29 30 30 31 31 32 32 32 32 32 32 33 34 35 35 36 36 36 37 37 37 36 34 35 37 40 42 40 39 41 41 41 42 42 44 45 45 45 46
33 32 32 32 33 34 35 35 34 34 34 35 36 36 37 38 38 38 38 39 40 41 41 41 41 41 43 45 46 45 43 41 42 43 43 44 45 46 46 45 45 46
37 37 37 37 38 39 40 40 39 39 39 39 39 39 40 41 42 42 41 41 43 45 45 45 46 47 48 47 46 44 43 43 44 45 46 47 48 48 48 48 48 48
40 41 41 42 44 44 44 44 44 43 43 43 43 43 43 44 44 44 43 43 45 46 47 46 46 46 45 45 44 43 43 44 46 47 47 48 49 50 51 52 52 51
42 42 43 44 45 45 45 44 43 43 43 44 44 44 44 45 45 45 45 45 45 46 47 47 46 45 43 43 42 43 43 45 47 47 47 48 49 49 51 52 51 51
41 40 40 39 39 39 39 39 38 37 37 38 40 42 43 44 45 45 45 46 46 46 48 49 49 47 45 44 44 44 44 46 48 49 49 49 49 48 49 51 51 50
39 37 35 33 33 33 34 36 37 37 39 41 43 43 44 45 45 46 47 48 47 47 47 49 49 49 49 48 47 47 47 48 50 51 51 51 51 50 49 49 50 49

ECMWFNIL_500_spd_057.txt.gz
Wind_Speed
11 12 15 18 20 19 17 16 16 17 17 17 16 16 15 14 15 17 19 19 19 19 19 18 16 15 15 15 14 13 12 11 10 9 9 9 9 10 10 11 11 12
12 13 14 16 19 20 19 18 18 18 19 19 17 17 17 17 17 18 19 19 19 19 19 19 18 18 17 16 15 13 11 10 9 8 8 8 9 9 10 11 11 12
14 15 14 15 19 22 22 22 22 21 21 20 19 19 19 18 18 19 20 20 20 19 18 19 19 19 18 17 14 12 11 10 9 9 8 8 9 10 10 11 11 12
14 15 17 18 19 21 22 23 25 25 24 22 21 21 20 18 18 19 19 20 20 19 19 19 19 19 18 16 14 12 11 10 10 9 9 9 10 10 11 11 11 11
14 16 19 21 22 21 21 22 25 27 27 24 23 22 21 19 19 18 18 19 20 20 19 20 20 19 17 15 14 12 11 11 10 10 10 10 11 11 12 12 12 12
14 15 18 21 22 22 22 23 25 26 26 26 25 23 22 21 21 20 19 19 20 21 20 20 19 19 17 16 14 13 13 12 11 11 11 11 11 12 12 12 12 12
13 13 16 19 21 21 22 24 25 25 25 26 26 24 23 24 23 21 21 21 21 20 19 19 18 18 17 16 15 15 15 14 13 12 12 12 12 12 12 12 12 12
13 12 14 17 18 20 22 24 24 25 26 27 26 25 25 26 25 23 22 22 21 20 19 18 18 17 16 16 16 16 16 16 16 15 14 13 12 12 12 12 12 12
15 15 16 16 17 19 22 23 24 26 27 27 26 25 25 26 25 23 22 21 21 20 18 18 18 17 17 17 17 17 17 17 17 16 14 14 13 13 12 12 12 12
18 20 21 19 17 17 18 19 22 25 27 28 26 25 25 25 24 22 21 22 20 18 17 16 16 16 16 17 17 18 18 17 16 15 15 15 15 14 14 13 13 13
19 21 22 20 18 17 17 18 19 23 25 26 25 24 24 24 24 23 23 23 20 18 17 17 17 18 18 18 18 19 19 19 18 16 16 15 14 14 15 15 16 17
16 18 19 19 18 18 18 18 18 20 22 23 23 23 24 25 25 25 24 23 21 20 19 19 19 19 19 19 20 19 18 19 18 16 16 15 14 14 16 17 17 18
15 16 18 19 18 17 19 19 17 17 18 20 21 23 25 26 26 25 24 23 21 21 20 20 20 20 20 20 21 20 18 18 18 17 17 16 15 16 17 18 18 18
14 14 15 16 17 17 17 17 15 15 15 16 18 20 22 24 24 23 22 21 21 21 21 21 22 22 21 20 21 21 20 19 19 18 17 16 17 17 18 18 19 18
11 11 10 12 15 16 16 17 17 17 16 15 16 18 20 21 22 21 20 20 20 20 20 20 20 21 20 20 21 22 22 21 21 20 18 18 19 19 19 19 19 20
12 11 11 13 15 15 15 15 15 14 13 13 14 16 17 18 19 19 19 19 20 20 19 18 19 19 19 19 20 21 22 23 23 23 22 22 21 21 22 22 22 23
14 14 14 15 16 16 15 14 13 13 14 15 15 15 15 16 16 17 18 19 20 20 20 20 20 20 20 20 20 22 24 26 27 28 29 28 25 23 23 25 26 27
16 16 16 16 17 17 16 16 16 16 17 17 17 16 16 17 18 19 21 21 21 21 22 22 23 22 23 23 24 26 28 29 30 30 31 31 28 27 29 31 31 32
18 19 19 19 19 19 19 19 19 20 20 20 19 19 19 21 22 24 24 23 23 24 25 26 26 25 26 27 28 29 30 31 31 29 29 29 30 33 37 38 36 36
20 21 20 20 20 21 22 23 23 24 24 24 24 23 23 24 25 26 27 27 27 28 28 29 29 30 30 31 31 32 32 33 33 32 32 33 35 39 41 41 40 40
26 25 23 23 23 24 25 26 26 27 28 28 28 27 27 27 28 29 30 31 31 31 32 33 33 34 34 35 35 35 36 36 36 36 37 38 40 42 42 42 42 41
31 31 31 31 31 31 31 31 32 32 33 34 34 34 33 33 33 33 34 35 35 36 36 37 38 38 38 38 39 38 39 39 39 39 40 41 42 43 43 43 43 42
34 35 35 36 36 36 36 37 37 38 38 39 39 39 39 39 38 38 38 38 39 40 40 41 41 41 41 41 41 41 42 42 41 41 42 43 44 44 45 45 44 43
36 37 38 39 39 39 38 39 39 40 42 43 44 44 44 44 44 43 43 43 43 43 43 43 43 43 43 43 43 44 44 44 44 44 44 45 45 46 46 46 45 45
38 39 40 41 42 42 41 41 41 42 44 46 46 45 45 45 45 44 43 42 41 40 40 41 41 42 42 43 44 44 44 45 47 47 47 47 47 47 47 47 47 47
39 40 41 42 43 43 43 42 43 43 43 44 43 42 42 42 42 41 39 38 37 38 39 39 40 42 43 44 45 45 47 49 52 52 51 50 50 50 49 48 48 49

ECMWFNIL_500_spd_060.txt.gz
Wind_Speed
12 13 14 14 15 16 17 18 17 16 16 17 18 18 18 18 18 16 15 15 15 16 16 16 15 14 13 13 13 12 12 12 13 13 13 13 12 11 11 10 10 10
13 14 15 15 15 15 17 19 19 19 19 18 19 19 19 18 18 18 18 17 16 16 16 16 15 15 15 14 14 14 14 13 13 13 12 12 12 11 10 10 10 10
15 16 17 17 17 16 17 18 20 21 21 21 22 21 20 19 18 18 19 19 18 17 17 16 16 16 16 15 15 15 15 14 14 13 12 12 11 10 10 10 10 10
17 17 18 18 18 17 17 18 19 21 23 24 24 24 22 20 20 19 19 18 18 17 17 16 16 15 16 16 16 16 16 15 14 13 12 11 10 10 9 9 9 9
18 18 18 19 19 19 19 18 19 21 22 23 24 24 24 23 23 22 20 18 17 16 15 14 14 14 15 15 15 15 15 14 13 12 12 11 9 8 8 7 7 7
20 19 20 20 21 21 20 19 20 22 22 22 22 23 24 24 24 24 22 19 17 16 14 13 12 13 14 15 14 14 13 12 12 11 11 10 10 9 8 7 7 7
19 19 20 21 21 19 18 19 21 23 23 22 21 22 23 23 23 24 23 21 18 16 14 12 12 12 13 14 13 11 11 11 11 11 11 11 11 10 9 9 9 9
18 19 20 19 18 17 17 19 21 23 23 21 21 23 24 22 21 22 23 22 18 15 13 11 12 12 12 11 11 11 11 11 12 12 12 12 12 11 11 10 10 9
19 21 21 19 17 17 18 20 21 22 23 21 21 23 23 22 20 20 21 20 15 12 11 12 12 12 11 11 12 13 14 13 14 14 14 14 14 13 12 12 11 10
20 22 22 20 20 19 19 20 21 21 22 22 22 23 23 22 20 18 19 17 12 11 12 12 11 11 11 12 13 14 14 13 14 14 14 14 14 14 13 12 12 11
21 22 23 22 22 22 21 22 21 20 21 22 22 22 21 21 20 18 17 15 13 11 11 10 10 11 11 12 12 13 13 13 13 13 12 12 13 13 13 13 13 12
22 22 23 23 25 25 24 24 22 20 20 21 20 20 19 19 21 19 16 14 12 10 9 9 10 10 11 12 13 13 14 14 13 12 10 10 11 12 13 13 14 14
20 21 22 23 23 24 23 23 23 21 18 18 18 18 19 20 21 18 14 12 11 11 11 11 11 11 12 14 15 15 15 14 14 13 11 10 11 12 13 14 14 15
19 20 21 22 22 21 20 21 22 21 19 18 17 16 18 20 19 15 13 13 12 12 13 13 12 13 14 14 15 16 15 15 14 13 12 12 13 13 13 13 14 15
19 19 20 21 20 19 19 20 21 20 19 18 16 15 15 16 15 14 13 13 12 12 12 13 13 13 12 12 13 14 14 15 15 14 14 14 14 15 15 15 15 16
19 19 19 19 17 16 16 17 17 16 16 15 15 15 14 13 13 13 12 12 12 12 13 13 13 13 12 12 13 13 14 14 14 14 15 15 16 17 18 19 20 20
19 19 18 18 16 15 14 15 15 14 14 13 13 13 13 13 12 12 11 11 11 12 13 13 14 14 14 15 15 16 16 16 15 16 17 18 19 20 21 22 23 23
19 19 18 18 17 16 15 16 16 15 15 14 14 14 15 15 15 14 14 14 14 15 15 16 17 17 18 18 19 19 19 19 19 20 21 22 22 22 23 23 23 24
19 19 19 19 19 18 17 17 18 18 18 17 17 17 18 18 18 18 18 18 19 20 20 20 20 20 21 22 22 23 23 23 23 24 25 25 25 25 25 25 25 25
20 20 20 20 20 20 19 20 20 21 21 21 20 19 20 21 21 22 23 24 25 25 24 24 23 24 24 25 26 27 27 27 27 28 29 29 29 29 28 28 28 29
22 22 22 22 23 23 23 22 23 24 24 23 23 23 24 25 26 26 27 28 29 29 28 27 27 27 28 29 30 31 31 31 31 32 32 33 33 32 32 32 32 32
23 24 24 24 25 26 26 25 26 28 28 28 28 29 30 30 30 30 31 32 32 33 32 31 31 32 32 34 35 35 35 35 35 35 36 37 37 36 36 35 35 34
26 26 27 27 27 28 28 29 30 32 32 33 33 33 33 34 34 35 36 36 36 38 38 37 37 38 38 39 40 40 40 40 40 40 40 40 40 39 38 37 37 36
30 30 30 30 31 31 31 32 33 34 35 35 36 36 36 37 39 40 40 41 41 41 42 42 43 43 44 44 44 44 44 44 45 44 44 43 42 41 40 38 38 38
33 34 33 33 33 33 33 34 36 37 37 37 38 39 41 42 43 43 44 44 44 44 45 46 47 48 48 48 48 48 48 48 48 48 46 45 43 42 41 40 40 41
33 33 33 33 33 33 34 35 36 38 39 40 41 43 44 46 47 48 48 49 49 49 49 49 49 50 50 50 50 50 50 49 49 48 46 44 43 43 43 43 45 47

ECMWFNIL_500_spd_063.txt.gz
Wind_Speed
17 18 18 19 19 19 19 18 18 19 19 19 19 19 17 16 15 15 14 14 14 14 14 15 16 15 15 15 14 14 13 12 12 12 13 14 14 14 15 15 16 16
17 17 18 19 19 19 20 20 19 19 20 20 20 19 17 15 14 14 13 13 13 14 15 16 16 16 16 16 16 15 14 15 15 15 15 15 15 15 15 15 15 14
16 17 18 19 19 19 19 19 20 21 22 22 21 18 17 16 15 15 14 14 13 13 14 16 17 17 16 17 17 16 16 16 17 17 16 15 15 15 15 14 14 14
18 18 18 18 18 18 18 18 19 20 21 22 20 18 19 19 18 18 18 17 14 13 14 15 16 17 17 17 17 17 16 16 16 16 15 14 13 13 14 14 14 14
19 19 19 18 18 18 19 20 20 19 19 19 19 19 21 22 21 20 19 19 18 16 15 15 15 16 17 18 17 16 16 15 15 14 13 12 12 12 13 13 13 14
21 21 21 20 19 19 20 20 20 19 18 17 18 19 20 20 19 18 17 18 18 18 17 15 14 15 16 17 17 16 15 14 13 12 11 11 10 10 11 12 13 14
24 24 23 22 21 20 20 20 19 17 16 16 16 16 17 18 18 18 18 19 19 19 18 15 15 16 16 17 17 16 14 12 11 10 9 9 9 9 9 10 12 13
25 24 23 23 22 21 20 20 18 15 14 14 14 14 15 18 18 18 19 20 21 21 18 16 16 17 17 17 16 14 12 11 10 9 9 9 9 8 9 10 11 13
25 24 23 23 22 21 21 20 17 15 14 14 13 12 14 17 17 17 18 20 21 21 18 17 17 18 18 16 15 13 11 10 10 9 9 9 9 9 9 10 11 12
25 23 23 23 23 24 24 21 18 17 15 13 13 15 17 19 19 20 20 20 20 19 19 19 18 18 16 14 13 12 11 10 10 9 9 9 9 9 9 10 11 12
24 24 24 25 26 28 25 21 19 17 14 12 15 19 20 20 20 21 21 19 18 18 19 20 18 16 15 14 13 12 11 10 9 9 9 9 9 9 9 10 11 11
24 23 24 27 29 27 24 23 21 19 17 16 18 22 21 19 18 18 18 17 17 19 21 21 18 16 15 14 13 11 10 10 10 10 10 10 10 10 10 10 11 11
24 25 27 29 30 26 22 22 21 20 21 21 21 23 22 17 15 15 15 16 18 21 23 22 20 17 16 14 13 11 11 11 11 11 12 12 12 11 11 11 11 11
23 26 26 26 25 23 21 20 20 21 22 23 23 24 21 18 16 15 17 18 20 21 21 21 20 17 15 14 13 13 13 13 13 13 13 13 13 13 12 12 11 10
21 20 19 18 18 19 20 21 21 22 23 23 24 24 23 22 19 18 18 19 19 18 17 17 17 16 14 14 13 14 14 13 13 13 14 14 14 13 13 12 11 11
20 18 17 17 19 20 21 21 21 21 22 23 23 23 23 22 20 18 17 17 16 16 15 14 14 14 14 14 14 14 13 12 12 12 13 14 14 13 13 12 13 14
19 19 18 19 19 20 20 20 20 20 20 21 21 21 21 20 19 18 17 15 14 14 13 13 14 14 14 14 14 14 14 13 13 13 14 14 14 15 15 15 16 17
19 18 18 19 19 19 20 20 20 20 20 21 20 20 19 18 18 17 16 15 15 15 15 14 14 14 14 15 15 16 16 16 16 16 16 17 17 18 19 19 20 20
21 20 19 19 20 21 21 21 21 21 21 20 19 19 18 18 17 16 15 16 17 16 16 15 16 17 17 18 19 19 20 20 19 19 20 20 21 22 23 23 24 24
22 21 20 19 20 21 21 21 22 23 22 20 18 18 19 20 19 18 19 20 19 18 18 18 19 20 21 22 22 22 23 23 23 23 24 24 25 26 27 27 28 28
21 21 21 19 19 19 19 19 21 22 21 19 19 20 21 23 23 22 22 22 20 20 22 23 23 25 26 27 27 27 27 28 28 28 29 29 30 30 31 31 32 33
26 26 25 24 24 23 23 22 22 23 22 20 20 21 23 25 25 23 23 23 22 21 23 24 25 27 29 29 30 32 32 32 32 32 33 34 34 34 34 35 36 37
30 30 30 30 31 30 30 28 27 27 26 24 24 25 25 25 25 24 24 24 25 25 27 28 29 30 31 32 34 35 36 37 37 38 39 39 39 38 38 38 39 39
30 32 33 34 35 35 34 33 32 31 30 28 27 27 27 28 28 28 28 29 31 33 34 35 36 37 38 39 40 41 42 43 44 44 45 45 45 44 44 43 42 42
33 35 36 37 37 38 37 37 36 36 35 34 33 33 34 36 36 36 36 37 39 39 40 41 42 43 44 45 46 47 48 49 49 49 49 49 49 49 48 47 46 44
32 33 35 37 38 39 39 39 39 39 39 39 39 40 41 41 41 41 41 42 42 42 43 44 46 47 48 49 50 51 52 52 52 52 51 51 51 51 50 49 47 44

ECMWFNIL_500_spd_066.txt.gz
Wind_Speed
15 16 17 19 21 21 19 17 17 18 18 18 18 17 16 14 13 12 12 13 13 13 13 13 14 15 16 16 17 17 17 16 16 16 15 15 15 14 14 15 15 16
15 15 15 16 19 20 20 19 20 19 18 18 18 17 15 14 14 13 13 13 13 13 13 14 14 15 16 16 16 17 18 18 17 16 17 16 16 15 15 15 16 17
16 16 16 16 17 18 19 20 21 21 20 18 17 16 16 16 16 15 14 14 13 13 13 13 13 14 15 16 16 17 18 19 19 18 18 18 18 17 16 16 17 17
17 16 16 16 16 16 17 18 18 19 19 18 17 17 17 17 18 18 16 15 14 14 14 14 13 13 15 16 18 19 20 20 21 20 20 20 20 19 17 16 16 16
17 16 15 14 15 15 15 15 16 16 17 16 16 17 17 18 19 18 17 16 16 16 16 16 16 16 16 17 18 20 21 22 22 22 21 20 19 18 16 15 14 14
17 17 16 15 15 15 15 16 16 15 15 15 15 15 16 16 17 17 16 17 17 16 16 16 16 17 17 17 18 19 21 22 23 22 21 19 18 16 15 14 14 14
20 20 19 18 17 17 16 16 16 15 14 13 15 15 15 16 17 18 17 17 16 15 15 15 16 17 17 17 18 19 20 21 22 21 20 18 17 16 15 15 15 15
22 22 21 20 20 19 19 18 17 15 13 14 16 17 16 16 17 17 16 14 12 12 14 15 16 17 17 17 18 19 20 21 21 20 19 17 16 16 16 15 15 15
24 23 23 22 21 21 21 20 19 16 14 15 17 16 14 14 16 15 13 11 11 13 16 17 17 17 17 16 16 17 19 20 19 18 17 16 15 15 16 15 15 15
25 24 24 23 21 22 22 22 19 16 14 14 15 14 13 15 16 15 13 13 15 17 19 19 16 14 14 13 12 14 17 19 18 17 16 16 15 15 15 15 15 15
25 24 24 22 21 22 23 22 18 15 14 14 13 14 14 15 16 16 15 16 17 17 17 16 14 12 12 11 12 14 17 19 19 19 18 17 16 16 15 15 15 15
22 23 24 23 23 23 24 23 20 16 15 15 15 16 16 17 19 19 17 17 18 16 14 13 13 13 13 13 14 16 19 20 21 20 19 18 17 16 15 15 16 16
21 21 24 25 24 24 25 24 21 18 18 18 19 19 20 22 23 21 20 19 19 16 14 13 14 14 15 16 17 18 19 21 21 20 19 18 18 17 16 16 16 16
21 21 22 23 24 25 25 25 25 23 22 20 19 21 23 23 23 22 21 21 20 17 15 14 14 15 16 18 19 19 20 21 21 20 20 19 19 18 18 17 17 17
19 21 22 23 26 27 25 25 26 25 22 20 18 20 21 22 22 21 20 20 20 19 17 15 15 15 16 18 19 20 21 21 21 20 20 20 19 19 18 17 17 17
18 20 20 20 23 22 18 17 17 17 18 18 18 19 20 20 20 19 19 19 20 19 17 15 15 16 17 18 19 20 21 21 21 21 20 19 19 18 18 17 17 18
16 18 19 19 19 18 16 15 15 15 16 18 18 19 19 19 18 18 19 19 19 19 17 15 16 17 18 18 19 20 20 20 20 19 19 18 18 18 18 18 18 19
18 18 19 20 19 19 18 17 17 16 16 17 17 18 18 18 18 18 18 18 19 19 18 16 16 17 17 18 18 18 18 18 18 18 18 18 18 19 19 19 20 22
19 19 19 19 20 20 19 19 18 17 16 17 18 19 19 18 19 19 19 19 20 20 18 17 17 17 18 19 19 19 18 18 18 18 19 20 20 21 22 22 23 24
20 20 19 19 20 21 20 20 20 19 18 19 19 20 20 20 20 20 20 21 21 20 18 18 18 19 21 21 21 20 20 19 20 20 21 22 23 24 25 25 26 27
24 22 21 19 20 21 21 22 22 22 22 22 22 22 22 22 22 21 21 21 22 21 20 20 22 23 24 24 23 23 23 23 24 23 23 24 25 26 27 28 29 30
26 25 24 23 23 24 24 24 24 23 23 23 24 24 25 25 24 23 23 24 24 23 23 25 26 25 26 27 26 26 27 27 27 26 26 26 27 28 29 30 32 33
25 25 25 26 27 27 26 26 26 26 25 25 25 24 24 24 22 23 25 26 27 27 27 29 28 26 27 29 29 28 28 28 28 28 28 29 30 31 31 33 35 36
26 27 27 28 29 29 29 29 31 31 31 31 30 29 28 25 22 23 27 28 28 28 29 30 30 28 29 30 32 32 31 31 32 34 35 35 36 36 37 38 39 41
30 29 29 31 32 31 31 32 33 33 34 34 34 34 33 31 28 29 32 32 30 28 28 30 31 31 31 33 35 36 37 39 40 41 41 41 41 41 41 42 43 45
35 33 32 33 35 34 34 35 36 37 37 37 35 34 35 35 34 34 35 36 35 33 33 34 35 35 36 37 39 41 42 44 45 45 45 45 44 44 44 45 47 49

ECMWFNIL_500_spd_069.txt.gz
Wind_Speed
13 13 15 17 19 20 21 20 19 19 19 18 18 19 20 20 19 18 17 16 16 15 14 13 13 13 13 14 14 15 15 16 17 18 18 19 18 18 19 19 19 19
11 12 13 16 18 19 20 19 18 17 17 17 17 19 20 19 19 18 17 17 16 15 14 13 13 13 14 14 14 14 15 16 17 18 18 19 19 18 19 19 18 17
9 11 12 14 16 19 20 20 18 17 16 16 17 18 18 18 18 18 18 18 17 15 14 13 13 14 14 14 14 14 15 16 17 18 19 19 19 19 19 19 19 18
11 11 12 13 14 16 19 19 18 17 17 17 17 17 17 17 18 19 19 18 17 16 14 14 14 14 14 14 14 14 16 17 18 19 19 19 20 20 21 21 21 20
13 13 12 12 12 13 15 16 17 17 18 18 18 18 18 17 18 19 19 18 18 17 15 15 15 15 16 16 16 16 17 17 18 19 19 20 20 21 21 22 22 21
13 13 13 13 12 13 13 14 15 16 17 18 18 18 18 17 17 18 18 18 17 17 16 16 16 17 18 19 19 18 17 17 17 18 19 20 20 21 21 22 22 21
14 14 14 14 14 14 13 14 14 15 16 17 17 17 17 16 17 18 18 16 15 15 16 16 17 17 17 18 18 17 17 17 16 17 17 19 20 21 21 21 21 21
16 15 15 15 15 15 14 14 15 15 15 16 17 17 17 17 17 18 17 16 16 16 16 17 17 16 15 16 16 16 15 16 17 17 17 18 19 20 21 21 21 21
17 18 18 18 17 16 15 15 16 16 16 16 16 17 17 17 18 18 17 17 17 17 17 17 16 14 13 14 15 15 15 16 17 18 18 18 19 19 20 20 21 21
18 18 20 21 20 19 17 16 16 17 18 18 17 17 18 18 17 17 18 18 17 17 17 15 14 13 13 14 14 14 15 15 17 18 19 19 19 20 20 21 21 21
17 17 19 21 22 22 20 18 16 17 19 20 19 20 20 19 19 19 20 19 18 18 16 14 14 14 14 14 14 14 15 16 17 18 19 20 20 21 21 22 22 22
16 16 17 20 22 22 21 18 16 17 19 20 20 22 22 21 21 22 21 19 18 17 16 15 15 16 17 17 17 16 15 16 17 18 20 21 22 23 23 23 23 22
18 18 19 20 20 21 20 17 16 17 19 20 21 22 22 22 23 21 20 21 20 18 17 17 17 18 19 19 18 16 15 15 16 19 21 23 24 25 24 24 23 23
20 20 22 23 22 22 22 19 17 17 18 20 21 23 24 23 23 22 22 25 25 22 21 20 20 20 20 20 18 16 16 16 17 19 22 24 26 26 25 24 24 23
24 22 24 25 24 23 23 22 21 20 20 21 23 24 25 24 24 24 26 28 28 25 23 22 21 20 21 20 20 18 17 16 18 20 22 25 26 26 25 24 24 24
22 21 23 26 25 24 23 23 25 25 24 23 24 26 27 25 24 26 27 27 27 25 24 23 21 21 22 22 22 19 17 17 19 21 23 25 26 26 26 25 25 26
20 19 21 24 24 24 24 25 28 30 25 20 20 25 27 26 25 26 26 25 25 25 24 22 22 22 22 22 21 18 17 17 19 21 23 25 26 27 27 27 27 27
20 20 20 20 20 22 24 23 24 24 20 16 16 20 23 25 25 25 24 23 23 22 20 20 20 20 20 20 19 17 17 17 19 22 24 25 26 27 28 28 28 28
21 20 19 19 20 21 23 22 20 19 18 18 18 19 21 22 22 22 22 21 20 19 18 18 19 19 20 21 20 18 17 18 20 22 24 26 27 27 27 28 28 28
23 22 20 20 21 20 20 20 20 19 19 19 20 20 21 21 21 21 21 20 19 19 19 21 21 21 21 21 20 19 19 20 21 23 24 25 25 26 27 27 27 28
25 25 24 24 24 21 19 19 20 21 21 21 21 21 21 22 22 22 21 21 20 20 21 23 24 23 22 22 21 21 22 22 23 24 24 25 26 26 27 28 28 29
24 25 26 27 27 23 20 19 21 21 22 22 22 22 23 23 24 24 23 22 21 22 23 24 25 24 24 23 24 24 25 24 25 26 27 27 28 28 28 29 30 30
23 24 25 26 26 25 23 23 24 23 23 23 23 24 24 25 25 26 25 25 25 25 26 26 25 25 26 26 27 27 27 28 28 29 30 31 31 31 32 32 32 33
23 24 25 25 25 25 25 26 26 26 25 24 24 24 25 26 27 28 28 28 28 29 30 29 28 28 29 31 32 32 32 32 32 32 34 35 36 37 37 36 36 35
24 25 26 26 26 26 26 26 26 27 27 27 26 27 27 27 28 29 29 28 29 31 32 31 30 31 34 35 36 36 36 36 36 36 37 39 40 40 40 39 38 37
26 27 27 28 28 29 29 28 28 28 29 29 29 30 30 30 30 31 31 32 34 35 35 33 32 34 37 37 37 38 39 40 41 41 41 41 42 42 42 41 41 41

ECMWFNIL_500_spd_072.txt.gz
Wind_Speed
18 18 17 17 17 17 16 16 18 19 19 19 20 21 21 20 18 18 17 18 18 19 18 18 17 16 16 16 16 17 17 17 17 16 16 16 16 16 16 16 16 16
17 17 16 17 17 16 15 17 18 18 19 19 19 20 21 19 17 17 18 20 21 20 19 18 18 17 17 17 17 17 17 17 16 16 16 16 16 16 16 16 16 16
17 17 17 17 16 16 16 17 18 18 18 18 18 19 20 18 17 18 19 21 22 21 20 20 20 19 18 17 17 18 17 17 16 15 16 16 16 16 16 16 16 16
17 17 17 16 16 16 16 17 19 18 18 17 17 18 18 17 17 18 20 21 22 21 21 21 20 19 18 18 18 17 17 16 15 15 15 16 16 16 17 17 17 17
18 17 16 15 15 15 16 17 19 19 18 18 17 17 16 16 17 18 20 21 22 21 21 20 19 19 18 18 18 17 16 15 15 15 15 16 17 17 17 18 18 18
19 17 16 15 14 15 15 17 18 18 18 19 19 18 18 18 18 20 21 21 21 21 21 21 20 20 19 18 18 17 17 17 17 17 17 17 18 18 18 18 19 19
19 19 18 17 16 16 16 16 17 17 18 19 20 20 20 20 20 21 22 22 21 21 21 21 21 21 20 19 18 18 17 18 18 19 19 18 18 18 18 18 19 19
19 19 19 18 17 16 17 16 16 17 19 20 21 21 21 21 21 21 21 22 22 21 20 20 20 20 19 19 18 18 17 17 18 19 19 19 18 18 18 18 19 19
18 20 20 19 18 18 17 17 17 18 20 21 21 21 21 21 20 20 21 22 22 21 20 20 20 19 19 18 17 17 17 18 18 19 20 20 19 18 18 18 19 19
18 20 22 22 22 21 19 19 19 20 21 21 21 21 22 22 22 22 23 23 22 21 20 20 20 19 18 17 16 17 18 19 20 21 22 22 21 20 19 18 19 20
22 23 24 25 25 24 23 22 21 21 22 22 22 21 22 23 24 24 24 23 21 21 20 19 18 17 17 16 17 18 19 20 21 22 22 22 21 20 19 19 19 20
24 25 25 24 23 23 23 23 23 23 23 23 23 23 23 24 25 24 23 22 22 21 19 18 18 17 17 17 18 19 20 21 21 21 21 21 21 20 20 20 20 21
24 24 24 23 22 21 21 22 24 25 24 23 23 23 23 24 25 25 24 23 24 22 20 18 18 18 18 18 19 20 22 23 23 22 21 21 21 20 21 21 21 22
23 24 24 24 24 24 21 20 21 23 24 24 24 23 23 24 26 26 24 24 25 24 22 21 20 19 19 19 20 21 23 23 23 23 22 21 22 22 22 22 23 24
23 24 25 25 26 26 25 23 21 21 22 23 22 22 22 23 25 25 24 25 26 26 25 24 22 21 21 21 21 22 23 23 23 23 23 23 24 24 24 24 25 25
24 24 24 25 26 26 26 26 25 23 23 24 23 22 22 24 26 26 26 27 27 27 27 27 25 24 24 24 24 23 23 23 23 23 24 25 25 25 26 26 26 27
23 23 23 23 25 26 27 28 28 25 24 25 25 25 24 25 26 28 29 29 29 29 29 29 27 26 26 26 25 24 22 22 23 25 26 27 26 26 26 27 27 28
23 23 22 21 22 25 28 30 29 27 28 28 27 27 28 28 27 28 30 30 30 29 30 30 27 26 26 25 24 23 22 22 23 26 27 28 28 28 27 27 28 29
25 25 23 22 21 21 23 24 25 28 32 32 29 26 28 29 28 28 29 30 30 31 31 29 25 24 24 23 23 22 22 22 24 26 28 30 30 29 28 28 29 30
25 25 25 24 22 21 20 20 21 23 26 27 23 20 21 22 22 23 26 29 30 31 30 26 24 24 24 23 23 23 23 23 25 26 29 30 30 29 28 28 30 31
22 23 24 23 22 21 21 21 20 20 22 23 22 20 19 21 21 22 23 25 27 28 27 25 25 25 25 25 25 23 23 25 26 27 29 30 29 28 28 29 30 32
21 22 22 22 22 22 22 21 21 22 23 23 23 22 21 21 22 22 23 24 24 25 26 26 27 28 28 28 27 25 25 26 28 29 29 30 30 29 29 30 31 33
20 20 21 22 22 22 22 23 23 24 24 24 23 22 21 21 21 22 22 23 24 25 27 28 29 31 31 31 30 28 27 28 30 31 31 31 32 32 32 32 33 34
20 21 21 21 21 21 22 23 24 25 26 24 23 22 21 21 21 22 23 23 24 25 26 28 29 31 31 32 31 30 30 30 31 32 32 33 34 35 35 35 35 36
22 22 22 22 22 22 22 22 23 25 25 25 25 24 24 24 24 24 24 24 25 26 27 29 30 31 31 31 32 32 32 32 32 34 35 36 37 38 38 38 38 39
25 24 24 24 24 24 24 24 25 25 26 27 28 28 27 27 27 27 27 27 28 30 31 32 32 32 31 31 32 33 33 34 35 36 37 39 40 41 41 41 42 43

ECMWFNIL_500_spd_075.txt.gz
Wind_Speed
23 21 20 20 19 19 19 19 20 19 19 18 17 16 16 17 18 18 19 19 18 17 17 16 16 16 16 16 15 14 14 14 15 15 16 16 17 17 17 18 18 16
23 22 20 18 17 18 19 20 20 20 18 17 16 16 17 17 18 20 21 20 18 17 16 16 16 16 16 16 15 15 15 15 16 16 17 17 17 17 18 18 18 18
22 21 21 19 18 18 19 19 19 19 18 16 16 17 18 19 20 21 21 20 18 16 16 16 16 16 16 16 16 16 16 17 18 18 18 18 18 17 18 18 18 18
23 25 26 24 21 19 19 19 19 19 19 18 18 19 19 20 20 20 20 19 18 17 16 16 17 17 17 17 17 18 18 19 19 19 19 18 18 18 17 17 17 17
26 28 28 25 22 21 20 21 21 21 20 19 19 19 19 20 20 19 18 17 17 16 16 17 18 19 19 19 19 19 19 20 20 19 19 18 17 16 16 16 16 17
27 27 27 26 24 22 22 22 23 23 22 21 21 20 19 19 18 16 15 16 17 16 16 18 19 20 20 20 20 19 19 19 19 19 18 17 17 17 17 17 17 17
27 26 27 27 25 24 23 23 22 22 22 21 19 18 19 19 18 17 17 17 18 17 18 19 20 21 21 20 21 20 20 20 19 19 19 19 20 20 20 19 19 18
28 28 27 27 27 25 24 23 22 22 22 21 19 18 19 20 19 19 19 20 20 20 20 20 20 21 21 21 22 21 21 21 20 19 20 20 20 20 20 20 20 20
28 28 27 27 27 27 25 23 22 22 22 21 20 21 21 21 20 20 21 21 22 22 21 21 20 21 21 21 21 20 20 20 20 19 19 20 20 20 20 21 21 22
27 27 27 26 26 27 26 24 23 23 22 21 21 21 21 21 21 21 21 21 22 22 21 21 21 21 21 20 19 19 19 19 19 19 19 19 20 21 22 22 23 23
27 26 25 23 24 25 25 25 24 24 23 21 21 20 20 21 21 21 21 21 22 22 21 21 21 21 21 20 19 19 19 19 19 18 19 20 21 22 23 24 25 26
25 24 22 21 22 24 25 25 25 24 24 23 22 21 22 22 22 23 22 22 23 23 22 21 21 21 21 20 19 19 19 18 18 18 20 21 22 23 23 24 26 27
25 25 23 23 23 24 25 26 26 25 25 25 23 23 24 25 25 25 25 24 24 24 23 22 22 22 21 20 19 19 19 19 18 19 21 22 23 23 23 23 24 25
27 27 26 25 25 25 25 25 26 26 27 26 25 25 25 26 26 26 26 26 26 25 24 23 22 22 21 20 20 20 20 20 19 21 22 23 23 24 23 23 23 23
29 28 28 28 27 26 25 25 25 26 26 26 26 26 27 27 27 26 27 27 27 27 26 25 24 22 22 22 22 21 21 20 20 22 23 23 24 24 23 22 22 23
31 29 28 28 27 26 25 25 26 26 26 25 24 25 26 27 27 27 27 27 28 28 27 27 26 25 24 23 23 23 22 22 22 22 23 24 25 24 24 23 24 25
31 29 27 26 25 25 24 24 26 27 27 27 26 26 26 26 27 27 27 26 26 27 27 27 27 27 25 24 24 24 24 24 24 24 25 25 26 26 25 25 26 27
30 29 27 24 23 23 22 22 24 26 27 28 28 28 27 27 27 27 27 26 25 26 27 28 28 28 28 26 25 25 24 25 26 26 26 26 27 27 27 27 27 28
28 27 25 24 23 21 20 20 22 24 26 29 29 29 29 29 27 27 27 27 26 26 27 27 29 30 30 29 28 27 24 24 26 26 26 27 27 28 28 28 28 28
27 25 24 23 21 19 19 21 23 23 22 23 25 27 29 31 30 29 29 28 28 29 28 29 30 31 32 32 32 29 25 25 26 26 26 27 27 28 28 29 29 29
24 22 22 22 20 19 22 23 24 23 19 18 20 23 25 27 28 27 25 25 26 27 27 28 29 30 32 33 32 28 25 25 25 26 26 27 27 26 26 29 31 31
21 20 20 21 21 22 23 23 22 22 21 19 20 21 21 21 21 20 20 20 21 22 23 24 24 25 27 27 26 24 24 25 25 26 27 28 28 27 26 29 32 32
21 21 21 22 21 21 21 20 21 22 22 21 21 21 20 19 19 19 19 20 21 22 23 23 22 22 23 24 24 24 25 26 26 28 28 29 29 30 29 31 33 33
23 23 22 21 20 20 19 19 20 20 20 20 20 21 21 20 19 19 18 18 19 20 22 22 22 23 24 24 25 25 25 26 27 27 28 29 30 31 32 33 33 33
23 23 22 21 21 20 20 20 21 22 22 22 21 22 22 21 21 20 18 18 19 20 21 22 23 24 26 26 26 26 26 28 28 28 28 30 31 32 32 32 32 33
23 23 23 22 21 21 20 20 22 24 26 25 24 24 25 24 24 23 22 23 23 23 23 25 26 27 28 28 28 29 30 31 32 31 32 32 33 33 34 33 33 34

ECMWFNIL_500_spd_078.txt.gz
Wind_Speed
20 20 19 19 20 20 19 19 20 21 21 20 19 17 17 17 16 16 15 15 14 14 13 13 13 13 13 13 13 13 13 13 12 12 12 13 13 14 14 14 15 15
19 19 19 20 21 21 19 18 20 21 21 20 18 17 17 17 17 16 15 15 14 14 14 13 14 14 13 13 13 13 13 13 12 12 13 13 14 14 15 15 16 16
19 19 20 21 21 22 21 20 20 21 21 20 19 19 19 18 18 16 16 15 14 15 15 14 14 14 14 14 13 13 13 13 13 13 13 14 15 16 16 17 17 18
20 20 21 22 22 23 24 22 21 21 22 21 20 20 19 19 18 17 17 16 15 15 15 14 15 15 15 14 14 14 14 14 14 14 15 16 17 17 17 17 18 18
21 21 21 21 22 24 24 23 22 23 23 21 20 20 20 19 19 19 18 17 17 16 15 15 15 16 16 15 15 15 15 16 16 17 17 17 18 18 17 18 18 17
23 22 22 21 22 23 24 23 24 24 23 21 20 20 19 19 19 19 18 17 16 15 14 14 15 15 16 16 16 17 17 18 18 18 18 18 18 18 18 17 17 17
23 22 23 22 23 23 23 23 23 22 22 21 20 21 21 21 20 20 19 17 15 13 12 12 13 15 16 16 17 17 18 18 19 19 19 19 19 19 18 18 18 19
21 21 22 23 22 22 21 21 20 21 21 21 21 23 24 23 22 21 20 18 16 14 13 13 14 15 16 16 17 17 18 19 20 20 20 20 20 19 19 19 20 20
18 18 20 21 19 19 19 19 19 21 21 22 23 24 25 24 24 22 20 19 17 17 16 16 16 16 16 17 17 18 19 19 20 20 20 21 20 20 20 20 20 20
18 18 19 20 18 19 19 18 20 21 22 22 23 23 23 24 24 21 19 18 18 17 17 16 16 16 17 18 18 18 19 19 18 18 18 19 20 20 21 20 20 20
20 19 20 21 20 19 19 19 20 21 21 22 22 22 22 22 22 20 19 18 17 17 16 16 16 16 17 18 18 19 18 18 18 18 18 18 19 20 21 20 20 19
21 19 19 21 20 19 19 20 20 21 21 22 22 21 22 22 21 21 20 19 18 18 18 18 17 17 17 18 18 19 18 18 18 18 18 19 19 20 20 20 20 20
22 20 20 22 22 20 20 19 20 21 22 22 22 22 23 23 22 22 22 21 20 20 20 20 19 18 17 18 18 19 19 19 19 19 18 18 19 19 20 20 21 21
22 21 20 21 23 22 20 19 20 21 22 22 22 23 24 24 23 24 23 22 22 22 22 22 21 19 18 18 19 19 19 19 19 19 18 19 19 20 20 21 22 22
23 22 21 21 22 22 21 21 21 21 21 22 22 23 25 25 25 25 24 23 23 22 22 23 22 21 19 19 20 19 19 19 20 20 20 20 20 21 21 22 22 23
25 24 24 25 24 23 23 23 23 22 22 22 22 24 25 26 26 27 26 25 25 24 24 24 23 22 21 21 21 20 20 20 21 21 21 21 21 22 22 23 23 23
26 25 26 27 26 25 24 24 25 24 23 23 23 25 26 26 26 27 26 25 25 25 25 24 23 23 23 22 22 22 22 22 22 22 23 23 23 24 24 23 22 22
26 25 25 27 27 25 24 25 26 26 24 24 24 25 26 26 26 26 26 25 24 23 23 23 23 23 22 22 23 24 24 24 23 23 23 24 25 25 23 21 21 20
25 24 25 26 26 25 25 25 24 24 23 23 22 23 24 26 28 28 27 26 24 22 22 22 23 23 22 23 24 24 25 25 25 24 24 24 24 24 22 19 19 18
22 23 25 25 25 24 24 23 22 21 21 20 20 20 21 23 26 28 28 27 25 24 23 23 24 24 23 24 25 25 26 27 27 26 25 24 24 24 22 20 20 19
23 24 25 25 24 23 23 22 21 20 20 20 20 20 19 19 20 22 24 24 24 26 27 26 26 26 26 26 26 27 29 29 29 28 26 26 26 24 23 23 23 22
20 21 23 23 22 22 22 21 19 19 20 21 20 20 19 18 17 17 18 18 19 22 25 25 25 25 25 25 26 28 30 29 29 29 28 27 25 23 24 25 25 25
13 14 16 18 20 20 20 20 20 21 22 21 20 21 20 19 19 17 16 15 16 17 19 20 20 20 21 22 23 25 26 25 25 25 24 23 22 23 25 26 26 27
13 13 13 14 15 16 16 18 19 20 20 21 21 22 22 21 20 18 17 16 16 16 17 18 19 20 21 22 23 23 23 23 22 21 21 22 23 24 26 27 28 29
17 16 16 16 16 17 17 17 18 18 18 19 20 20 21 20 19 18 18 18 18 18 18 19 19 20 21 22 23 23 23 23 23 22 22 23 24 26 27 28 28 30
19 19 19 20 20 21 21 21 20 20 19 19 21 22 21 20 20 20 20 20 20 20 20 21 21 21 22 22 23 23 24 24 24 25 26 26 27 28 29 30 30 32

ECMWFNIL_500_spd_081.txt.gz
Wind_Speed
16 16 15 14 15 14 14 14 13 12 12 13 15 16 15 14 14 16 16 16 14 13 12 11 10 9 10 11 11 11 11 12 12 12 12 12 12 11 12 13 12 12
14 13 11 12 13 13 13 13 13 12 12 13 14 15 14 14 16 17 16 15 14 12 11 10 10 9 10 11 11 12 12 11 11 11 12 12 12 12 12 13 12 13
14 12 10 11 12 12 12 12 12 12 12 13 14 14 15 16 17 17 17 16 14 12 11 10 9 9 10 11 12 12 12 12 11 12 12 12 12 12 12 13 13 13
17 16 15 15 14 12 13 13 13 13 14 15 14 15 16 17 18 18 17 16 15 13 11 10 10 10 11 12 13 14 13 13 12 12 13 13 13 13 13 13 14 13
18 17 15 17 18 16 15 15 15 16 17 17 15 15 16 18 19 19 18 17 15 14 12 11 10 11 12 13 14 15 14 14 13 13 14 13 13 14 14 14 14 14
14 15 13 15 17 17 16 17 18 18 19 19 17 16 17 19 19 18 18 17 16 14 13 12 12 12 13 15 16 16 15 15 15 14 14 14 14 14 14 14 14 14
13 14 14 14 16 16 16 17 19 19 19 19 18 17 18 19 19 19 18 16 15 13 12 12 12 13 14 15 16 17 16 16 15 15 15 14 14 15 15 15 15 15
16 15 15 14 15 17 18 18 19 18 19 19 17 17 19 20 20 19 18 16 14 13 12 11 11 12 13 15 15 16 16 16 16 16 16 15 16 16 16 16 16 17
16 15 15 14 14 16 18 18 18 19 19 18 17 18 20 20 20 19 17 16 15 14 13 12 12 13 13 14 14 14 15 16 16 16 16 16 16 16 17 17 17 17
16 14 12 13 13 14 15 18 19 20 20 18 17 17 19 20 19 18 17 17 16 15 15 14 14 14 14 14 14 15 16 17 17 16 16 16 16 16 16 15 16 17
16 14 13 14 15 14 16 18 19 19 19 17 16 16 18 19 18 17 17 17 16 15 15 15 15 15 14 14 15 16 16 17 16 16 16 16 16 16 15 15 16 17
14 14 14 15 17 17 18 20 19 18 19 18 16 17 19 18 17 18 18 16 16 15 15 15 15 14 14 14 15 16 16 16 16 16 15 16 17 16 16 16 17 16
14 14 13 14 17 18 19 19 18 17 18 18 18 18 19 17 17 18 17 16 16 16 15 15 14 14 14 14 15 16 16 17 17 16 16 16 17 17 17 17 17 17
15 14 13 14 17 19 18 19 19 17 17 18 18 19 19 19 19 18 18 17 17 16 15 14 14 14 14 14 16 17 18 18 18 17 17 17 17 17 17 17 18 18
16 15 13 13 17 18 18 19 20 18 17 17 17 19 19 19 19 19 19 18 17 16 15 15 15 16 16 16 17 18 19 19 20 19 18 18 18 18 18 18 18 19
17 15 13 13 15 17 17 18 18 19 19 17 17 18 18 18 20 20 19 18 17 16 17 17 18 18 18 18 19 19 20 21 21 21 19 19 20 19 19 20 21 21
17 13 10 12 15 18 19 19 20 20 20 19 19 20 19 19 21 20 19 19 19 19 20 20 20 20 21 21 22 21 21 22 23 23 22 22 22 21 21 22 23 23
16 12 9 11 16 19 21 22 23 22 21 21 22 22 21 20 20 20 19 19 20 21 22 22 22 22 22 23 24 24 22 22 23 24 25 25 24 24 24 24 24 23
13 11 11 13 16 19 21 21 23 23 22 23 23 23 22 21 21 20 20 20 21 21 22 22 22 22 22 23 24 24 23 22 23 24 25 26 25 25 25 24 24 23
16 15 15 15 17 20 19 19 21 23 22 22 22 22 22 21 20 20 20 20 21 22 24 24 24 24 23 23 23 23 23 23 24 25 26 26 26 26 26 25 25 24
13 15 17 18 18 20 20 19 21 22 21 20 20 21 20 20 19 18 18 19 20 22 24 26 26 25 25 24 24 25 25 25 25 26 27 28 27 27 26 27 27 26
12 14 18 20 18 19 20 20 20 21 20 18 19 19 20 20 19 17 17 18 20 21 23 25 26 27 26 26 26 27 28 28 28 28 30 31 30 27 26 27 28 28
12 12 15 19 20 20 20 19 19 20 18 17 19 21 22 22 21 19 19 19 20 20 20 22 24 26 26 26 27 28 29 30 29 30 31 32 31 29 27 26 27 28
12 11 10 12 14 16 17 18 17 17 17 19 22 24 21 18 19 20 20 20 20 20 20 20 20 20 22 23 24 25 25 25 26 26 27 28 28 26 25 24 24 25
15 14 13 11 10 11 15 16 15 16 19 21 22 22 19 18 20 22 22 22 22 22 21 20 19 19 19 21 22 23 24 24 25 25 25 25 25 24 23 23 24 25
16 17 16 15 13 13 14 15 14 16 18 19 19 18 18 19 21 23 23 22 22 21 21 21 21 21 21 22 23 23 24 25 25 25 25 24 24 24 24 25 26 27

ECMWFNIL_500_spd_084.txt.gz
Wind_Speed
15 13 13 14 15 15 13 11 10 9 9 10 12 14 15 15 14 13 12 13 13 14 15 16 17 18 19 19 19 19 19 19 19 18 18 17 17 17 16 16 15 15
15 13 12 13 14 15 16 14 13 12 11 10 11 13 15 15 14 13 14 14 14 14 16 17 18 19 19 19 19 19 19 19 19 18 18 18 17 16 16 15 14 14
14 13 11 11 11 13 18 18 16 15 13 12 11 12 13 14 15 14 14 14 14 14 16 17 18 19 19 19 19 19 19 19 19 19 18 17 16 15 14 14 13 12
15 13 12 13 13 13 16 17 16 16 15 14 14 13 14 15 16 16 15 14 14 15 17 17 18 19 19 19 19 19 20 20 20 19 17 16 15 14 13 12 11 11
16 16 16 16 14 11 14 16 16 16 15 15 16 16 16 17 17 16 15 15 15 17 18 18 19 19 19 19 19 20 20 20 20 19 17 16 14 13 12 12 11 11
17 17 16 14 11 11 15 17 18 18 15 15 17 16 17 17 17 16 15 16 17 18 18 19 19 19 19 19 20 20 20 20 19 18 17 16 14 13 12 12 12 12
13 13 12 10 9 11 15 16 18 17 14 15 16 17 17 17 16 15 16 17 17 18 19 19 19 19 19 20 20 20 20 20 19 19 18 16 15 14 14 14 14 13
13 12 12 10 9 11 15 19 20 18 16 17 17 18 18 17 16 16 16 17 18 19 19 19 20 20 19 20 20 20 20 20 20 19 19 18 17 16 16 16 16 15
14 14 14 13 12 12 15 19 22 22 19 18 18 18 18 18 17 17 17 17 18 19 19 20 20 19 19 19 19 20 20 20 19 20 20 20 19 18 18 17 17 17
12 15 16 15 14 14 15 18 21 22 20 17 17 18 18 18 18 17 18 18 19 20 20 20 19 19 18 18 18 19 19 19 19 20 21 20 20 19 18 18 18 18
10 12 15 16 16 14 15 18 20 19 19 17 17 18 18 19 18 19 19 19 20 21 21 20 19 19 19 19 19 19 19 19 20 21 21 20 20 19 19 19 18 18
10 11 13 16 17 15 16 19 20 18 18 18 18 19 19 19 19 20 20 20 20 19 19 19 19 20 20 21 20 19 19 19 20 21 21 20 20 19 19 18 18 19
10 11 12 14 16 17 19 22 22 21 19 19 19 20 20 20 21 21 21 20 20 18 18 18 19 21 21 21 21 20 19 19 20 21 21 20 19 19 19 18 18 19
12 12 13 14 15 18 21 23 23 23 21 21 21 21 21 22 22 22 21 21 20 19 19 20 21 22 22 22 21 20 19 19 19 19 20 19 19 19 18 18 18 18
13 13 14 16 17 19 21 22 22 22 22 22 22 22 21 22 23 22 21 21 20 20 21 22 22 22 22 22 21 20 19 19 18 19 19 19 19 19 19 18 18 19
15 16 17 18 19 20 21 21 21 21 22 22 21 21 21 21 23 22 21 21 21 21 22 23 23 22 22 22 21 20 20 19 18 18 19 20 20 20 20 20 20 21
13 17 19 18 19 19 20 22 21 20 20 21 22 22 21 21 22 22 22 22 22 23 23 23 23 23 23 23 22 21 21 20 19 19 20 21 21 21 21 22 22 23
7 12 17 18 18 19 20 21 22 20 20 21 22 22 22 22 22 23 23 23 23 24 24 25 25 24 24 24 23 23 23 22 21 20 20 21 22 22 23 23 24 24
6 6 12 15 16 17 19 20 21 21 21 22 23 24 24 24 24 24 24 24 24 24 25 25 25 25 25 25 25 24 24 23 21 21 22 21 21 22 23 23 24 26
8 7 9 13 15 15 17 20 24 24 23 23 23 23 24 24 24 24 24 23 22 22 23 24 25 25 25 25 25 24 24 23 22 21 22 22 20 19 19 20 23 26
9 9 11 12 15 16 16 19 22 23 23 23 23 22 22 23 23 23 23 23 21 21 21 21 22 22 23 23 25 25 25 25 24 24 25 24 21 20 21 23 26 28
8 10 11 13 16 20 18 17 19 22 24 26 25 22 21 21 22 23 23 21 20 19 19 19 19 19 21 22 24 25 26 26 25 25 26 27 25 25 27 29 30 30
9 9 11 13 16 20 22 22 23 25 26 27 27 24 21 21 21 23 23 21 20 20 20 21 21 21 23 24 24 26 27 28 28 27 27 27 27 28 30 31 32 33
10 9 11 13 13 16 20 23 25 27 26 25 26 25 23 22 21 22 22 22 23 23 23 24 24 24 25 25 24 24 26 28 31 32 31 30 29 29 30 32 33 34
12 13 14 14 12 12 16 19 22 26 27 25 24 25 25 24 23 22 22 22 25 28 28 27 26 26 25 24 23 23 23 25 27 30 30 29 28 27 27 28 29 30
14 15 17 17 15 15 16 16 16 21 26 26 24 24 24 22 20 19 19 20 23 28 30 29 27 26 25 24 24 24 23 24 25 26 27 27 26 26 26 27 27 28

ECMWFNIL_500_spd_087.txt.gz
Wind_Speed
22 19 16 15 14 15 16 17 15 15 16 18 19 19 18 18 18 17 17 16 14 14 13 13 13 14 15 17 18 18 19 20 20 20 20 19 19 19 19 19 19 19
21 17 14 14 14 15 16 17 17 17 18 19 19 18 18 18 19 19 18 18 17 16 15 14 14 15 16 17 18 18 19 19 20 20 20 20 20 20 20 19 19 18
22 18 16 15 14 15 16 16 19 20 19 19 20 19 19 19 20 20 20 20 19 18 17 16 16 16 17 17 17 18 18 18 19 19 20 20 20 20 20 19 19 18
22 20 17 16 15 16 16 15 18 22 22 21 21 20 20 20 20 20 21 21 21 20 19 18 18 17 17 17 17 17 17 17 18 19 20 21 21 21 21 20 20 18
21 19 18 16 16 17 15 14 17 23 25 23 22 22 22 22 21 21 22 21 20 20 19 19 18 17 16 16 17 17 17 18 19 20 21 21 22 22 22 21 20 19
21 21 20 18 18 17 16 16 17 22 27 25 24 24 24 23 23 22 22 21 20 20 19 19 18 17 17 17 17 17 18 18 19 20 21 22 23 23 22 22 21 20
21 22 20 19 20 20 18 16 17 22 26 26 25 26 25 24 23 22 21 20 20 20 20 20 19 18 17 17 17 18 18 19 20 21 22 22 23 23 23 22 22 22
20 20 19 18 20 21 19 17 18 22 24 24 25 26 26 25 23 21 20 21 21 21 21 20 19 18 17 18 18 19 20 21 22 22 23 23 23 23 23 23 23 22
17 18 18 18 19 21 19 17 20 22 23 23 25 27 27 25 22 21 21 22 22 21 21 20 19 18 18 18 19 20 21 22 23 23 24 23 23 23 23 23 23 22
15 18 20 21 22 23 20 19 21 23 24 24 25 28 27 23 21 21 22 23 22 21 20 19 18 18 18 19 20 21 22 22 23 24 24 24 23 23 23 23 22 22
16 18 20 22 24 24 22 21 22 24 26 26 26 28 26 23 22 22 24 24 22 21 20 19 18 18 19 20 21 22 22 23 24 24 23 23 23 22 22 22 22 23
13 14 16 18 21 22 22 23 23 25 28 29 28 27 24 23 23 24 24 23 21 20 20 18 18 19 20 22 22 22 22 23 23 22 21 21 21 22 22 23 23 23
12 13 14 15 18 20 21 22 22 25 28 29 28 27 24 22 23 24 22 21 20 20 19 19 20 21 23 23 23 22 23 23 22 21 21 21 22 23 23 24 24 24
14 15 15 15 16 17 18 20 21 24 27 29 27 25 23 23 23 23 21 21 21 20 20 21 22 22 24 24 23 23 23 23 23 22 22 23 24 24 24 25 25 25
13 15 15 15 14 14 16 19 21 23 27 29 26 22 22 23 23 23 22 22 22 22 22 23 23 23 24 23 23 23 24 23 23 23 22 22 23 24 24 25 25 25
13 14 14 15 14 13 15 18 20 22 25 26 25 22 23 24 23 23 23 22 23 23 23 24 24 24 24 23 23 24 24 23 23 22 21 22 23 23 24 24 25 25
12 13 15 16 15 15 17 17 19 21 23 24 25 25 25 24 23 24 24 23 24 25 24 25 26 26 25 24 25 25 24 23 23 22 22 22 23 23 23 24 25 25
9 10 13 17 18 19 20 19 19 22 23 23 25 25 25 25 25 25 25 24 25 25 25 26 26 27 27 26 26 26 24 23 23 23 23 23 22 23 23 23 24 25
7 7 10 13 16 20 21 20 21 23 24 25 25 23 23 25 26 26 26 25 25 25 25 26 27 28 28 27 26 25 24 23 23 24 24 23 23 23 23 24 25 26
8 7 8 8 10 14 17 19 20 22 23 25 25 24 24 25 27 28 27 26 26 26 27 27 28 28 28 27 26 25 24 24 23 24 24 23 23 22 22 23 25 26
10 9 8 7 7 10 15 18 20 22 24 26 26 26 26 26 27 28 28 27 27 28 28 27 27 26 26 26 26 26 25 25 24 24 24 24 22 21 21 22 24 25
9 10 10 9 9 13 19 22 21 21 24 27 28 28 27 26 26 27 28 28 28 28 27 26 25 25 25 25 25 25 24 23 23 22 22 24 25 24 25 26 27 27
8 9 11 11 12 14 17 21 23 22 22 25 28 30 28 26 26 27 27 28 27 26 26 25 25 24 24 24 24 24 23 23 22 21 21 24 26 26 26 29 32 32
10 10 11 12 14 14 14 15 19 22 23 25 28 30 29 28 28 28 27 26 25 24 24 24 24 24 25 24 25 26 25 25 25 25 25 26 26 27 28 30 32 33
14 13 13 13 14 15 14 13 15 19 22 25 28 30 30 30 30 29 29 28 25 24 25 25 24 25 25 24 25 26 25 26 28 28 28 28 29 31 32 31 31 32
17 16 15 16 16 17 17 15 16 17 19 21 25 29 30 30 30 30 31 30 26 24 26 27 27 28 28 28 29 28 28 30 32 30 29 30 30 29 30 30 30 31

ECMWFNIL_500_spd_090.txt.gz
Wind_Speed
25 24 23 22 20 20 21 19 19 19 19 21 22 20 19 18 15 15 16 16 15 15 15 15 15 15 15 14 14 14 15 15 16 16 17 18 18 18 17 17 17 17
26 25 23 21 19 19 20 21 20 20 19 20 21 20 19 18 16 15 15 14 14 14 14 15 15 15 14 14 15 16 17 17 17 18 18 18 18 18 18 18 19 19
26 27 23 20 19 18 19 21 21 21 22 22 22 22 21 19 17 17 17 16 16 16 16 17 16 15 14 16 18 19 19 19 19 19 19 19 19 19 19 20 20 19
26 26 23 19 18 19 20 21 21 22 24 24 24 24 23 21 20 20 20 20 20 20 20 20 18 17 17 19 20 21 21 20 20 19 18 18 19 19 20 20 19 19
24 24 21 18 18 21 22 22 22 22 23 23 24 25 24 23 22 22 22 21 22 22 23 22 21 20 20 21 22 21 20 20 19 19 18 18 18 18 19 19 19 19
23 23 21 19 19 23 24 24 23 22 21 21 23 25 26 25 24 23 22 23 24 24 24 23 22 21 22 22 21 21 20 19 19 18 17 17 17 18 18 19 19 19
24 24 22 20 22 25 26 24 23 23 22 21 22 25 27 26 25 24 24 24 25 25 24 23 22 21 22 22 21 21 20 19 18 18 18 18 18 18 18 19 19 19
23 25 23 23 25 27 26 25 24 24 24 22 23 26 28 27 26 26 25 25 25 25 24 23 22 22 22 22 21 21 20 19 19 19 19 19 18 19 19 20 20 19
20 23 23 23 25 26 26 26 25 25 25 23 23 26 29 29 28 26 25 25 25 25 24 23 22 22 22 22 22 21 21 20 20 20 20 20 20 20 21 20 20 20
18 22 22 22 24 27 27 26 25 24 24 22 23 27 29 28 27 25 25 25 25 24 24 23 22 21 22 22 22 21 21 21 21 20 20 21 21 22 21 21 20 19
14 19 21 23 25 26 26 25 24 24 22 22 23 26 27 26 26 26 27 27 25 24 24 24 22 22 22 22 22 22 22 22 21 21 21 22 23 23 22 22 21 20
10 14 18 22 24 23 24 24 24 23 22 22 24 26 26 25 26 28 29 27 24 22 23 24 22 22 22 23 23 23 22 22 22 22 22 23 23 23 22 22 21 21
9 11 14 18 20 20 21 22 23 23 22 22 24 26 26 26 27 28 29 26 22 21 22 23 23 23 24 24 24 23 23 23 23 22 23 23 24 23 22 21 20 20
10 11 13 15 17 18 20 22 23 24 23 23 24 26 27 27 28 28 29 26 23 22 22 23 24 25 26 25 24 23 23 23 23 23 23 24 24 23 22 21 19 20
10 12 14 15 16 17 18 19 21 22 23 24 25 27 28 28 28 28 28 27 25 23 23 25 26 27 26 26 24 23 24 24 24 24 24 24 24 22 21 21 20 21
10 12 14 16 17 17 17 17 17 20 23 23 24 27 29 29 29 28 27 27 26 24 24 26 27 27 27 25 24 24 24 24 24 25 24 24 23 22 21 21 21 22
11 12 13 15 16 17 17 17 16 18 21 22 23 25 27 30 30 29 27 26 25 24 25 26 27 28 27 26 24 24 24 23 24 24 23 22 22 22 22 22 22 22
11 11 12 13 15 18 18 17 16 17 19 21 23 25 26 29 31 29 26 25 24 24 25 26 27 28 28 26 25 25 24 23 23 23 22 22 22 22 22 22 23 23
10 9 9 9 12 16 19 18 17 17 17 20 23 24 23 27 31 31 28 26 24 24 25 26 27 28 28 26 26 26 25 23 23 23 23 23 24 24 24 24 24 25
9 8 8 7 7 10 14 18 19 20 19 20 22 23 23 27 30 31 29 27 25 25 26 27 27 27 27 27 27 27 26 24 23 23 24 25 26 26 26 26 26 26
9 8 8 7 5 4 7 12 15 18 20 21 22 23 24 27 29 29 28 26 26 26 26 27 27 27 27 27 27 27 27 26 24 24 25 26 27 28 28 28 28 28
9 8 8 9 7 5 8 12 13 16 19 20 21 22 24 26 28 29 27 26 26 27 27 27 28 28 28 28 28 28 28 27 25 25 26 27 28 29 29 29 29 28
10 9 8 9 9 9 12 15 14 15 19 22 21 21 23 28 29 29 28 26 26 27 27 27 29 29 29 29 29 30 29 27 26 25 25 26 27 28 27 27 28 27
14 13 12 11 11 12 15 15 14 14 16 19 22 23 25 28 30 30 30 27 26 28 29 29 30 31 30 29 30 29 28 27 26 26 26 26 27 28 28 28 29 29
17 17 16 15 14 15 15 16 16 15 14 16 20 24 27 30 30 31 32 32 30 29 29 31 32 31 30 29 28 28 28 28 27 26 26 27 29 30 30 31 32 33
18 18 18 17 17 17 17 17 17 17 16 16 16 17 22 28 29 29 30 32 32 31 31 32 32 30 30 30 29 28 28 29 28 28 28 30 31 30 30 31 31 34

ECMWFNIL_500_spd_093.txt.gz
Wind_Speed
29 27 27 27 25 25 27 28 27 25 24 22 20 19 18 16 17 18 17 16 16 14 15 18 19 19 19 20 21 20 18 17 18 18 18 17 17 17 15 15 16 16
31 27 27 29 27 26 27 28 27 25 24 23 21 19 19 18 17 17 17 18 18 15 14 15 17 19 20 20 21 20 18 17 18 18 18 17 17 16 16 16 16 16
31 29 28 29 29 27 27 27 28 26 24 24 22 20 19 18 18 17 17 18 18 16 15 16 17 18 19 20 20 19 18 18 19 19 19 18 18 17 16 16 16 16
30 30 30 30 29 28 26 26 28 27 24 24 23 21 20 19 18 18 18 18 17 16 16 16 17 18 19 20 19 18 18 18 20 20 19 19 18 17 17 17 16 17
28 28 29 30 29 28 26 26 28 27 24 23 23 22 22 21 20 19 19 19 18 17 18 18 18 19 20 19 19 19 19 19 19 19 19 19 18 18 18 17 17 17
26 25 27 29 29 29 27 26 27 27 24 22 22 22 22 22 22 21 21 21 20 19 20 20 20 20 20 19 18 19 19 18 18 19 19 19 18 18 18 17 17 17
24 25 28 29 29 29 28 27 26 26 24 21 20 21 21 21 22 22 23 23 22 22 21 21 21 21 20 19 18 18 18 18 18 19 19 19 18 18 18 18 18 18
24 25 26 26 25 26 27 25 23 24 23 20 19 20 19 19 20 22 23 24 24 24 23 23 22 22 20 20 20 20 20 20 20 20 20 20 20 19 19 19 18 18
22 18 19 20 21 24 25 23 22 24 23 20 19 20 20 19 20 22 23 25 25 25 25 25 24 23 22 22 21 22 22 22 22 22 22 21 21 20 20 19 19 19
18 14 14 18 21 23 25 23 23 24 23 19 18 20 21 21 21 22 23 25 27 27 26 26 25 24 23 23 22 23 23 23 24 23 23 22 22 21 20 20 20 20
16 14 12 16 21 22 23 24 24 23 22 19 19 20 22 22 22 22 22 24 26 26 26 25 25 25 24 23 23 23 24 24 24 24 24 24 23 22 22 21 21 21
15 14 11 11 18 21 22 23 23 22 23 22 22 23 22 22 22 22 22 24 26 26 25 25 25 26 25 23 23 23 24 24 25 25 25 25 25 24 22 22 22 21
16 14 12 9 12 17 20 21 21 21 23 23 23 24 23 22 22 22 23 25 25 25 25 25 25 25 24 23 23 23 23 24 25 26 26 26 25 23 22 22 22 22
17 15 12 9 9 12 15 18 19 19 21 21 22 23 23 22 22 23 25 26 25 25 26 26 25 24 23 23 24 24 25 26 26 27 26 26 25 24 23 23 22 21
18 15 13 11 10 11 12 14 16 17 18 20 21 22 22 21 21 24 26 27 26 25 26 26 26 24 24 25 26 26 26 27 27 27 27 27 26 24 24 23 22 21
18 16 14 13 12 12 13 13 15 16 18 20 22 24 24 23 23 26 28 28 27 26 27 28 28 26 25 26 27 27 27 27 27 28 28 27 26 25 24 23 21 21
18 17 15 14 13 13 14 16 17 18 19 19 22 26 26 25 25 28 29 29 28 28 28 29 30 28 27 27 27 27 27 27 27 28 27 26 26 25 24 23 22 21
18 17 16 15 14 13 15 17 18 19 19 19 21 23 25 25 26 28 30 31 30 29 30 31 31 29 28 27 27 27 27 27 27 27 26 25 24 24 23 23 23 22
17 17 17 16 15 14 13 16 19 19 19 19 20 21 22 23 24 26 29 31 31 31 31 32 31 29 28 28 27 27 28 27 27 26 26 24 23 22 22 23 23 24
15 15 16 16 15 13 10 10 15 19 19 19 19 19 20 22 24 26 28 30 31 32 33 34 32 29 29 29 28 27 27 27 27 26 25 24 23 22 23 24 25 26
15 14 15 15 14 13 10 9 10 14 18 19 19 19 20 22 24 27 30 31 32 34 36 35 32 30 29 29 28 27 27 27 27 26 25 24 23 23 24 25 26 27
16 15 14 14 14 13 14 15 13 11 13 18 21 22 24 24 24 26 30 32 33 35 38 38 34 31 30 30 29 28 27 27 27 27 26 25 23 23 25 26 27 28
17 17 15 15 14 14 16 19 19 16 13 14 18 22 26 28 25 24 27 30 31 33 36 39 38 34 31 30 29 29 28 28 28 28 27 24 23 24 26 27 28 29
19 18 17 17 17 17 18 20 21 20 18 16 15 16 20 26 28 27 27 27 28 29 32 36 39 38 34 31 30 30 30 29 28 27 25 24 25 27 28 30 31 32
22 21 19 19 19 19 20 21 22 22 22 22 21 17 15 17 21 24 28 31 29 30 33 36 37 37 34 33 32 31 30 30 28 26 24 25 26 27 28 30 30 32
24 24 23 21 21 20 20 22 23 23 23 23 23 22 19 17 16 17 22 29 32 33 35 36 37 37 35 34 34 33 32 30 30 28 28 28 29 30 30 30 30 31

ECMWFNIL_500_spd_096.txt.gz
Wind_Speed
35 35 35 36 36 36 36 34 33 32 32 32 32 29 26 24 24 24 25 25 23 22 21 20 20 20 21 23 25 25 24 24 25 25 24 23 22 21 18 16 16 17
35 35 35 36 36 36 37 36 34 34 33 34 33 30 26 24 23 24 24 23 21 21 21 19 18 19 22 25 26 26 24 24 25 26 26 24 23 20 17 16 16 18
34 35 36 36 35 36 38 37 35 35 34 34 33 30 26 24 24 23 24 22 21 20 19 16 14 15 19 23 25 25 24 24 24 24 24 23 21 19 17 17 18 19
33 34 35 36 35 35 37 37 35 35 35 33 32 30 27 25 25 23 22 22 21 20 18 16 15 15 17 20 22 23 23 23 22 21 21 21 19 18 18 19 19 18
33 34 35 36 34 33 34 34 33 34 34 31 29 29 27 26 24 22 20 21 21 20 17 17 18 19 19 20 22 23 22 22 21 20 21 19 17 17 18 19 19 18
32 33 34 35 34 31 31 31 31 32 32 29 28 27 26 26 24 21 20 19 20 19 18 18 19 20 20 20 20 21 22 22 21 21 21 19 16 18 18 18 18 18
31 32 32 32 32 30 28 28 29 29 28 27 27 26 25 24 23 22 21 19 19 19 18 18 19 20 20 20 19 20 21 21 21 21 22 20 19 20 20 20 21 21
29 30 30 29 29 30 29 29 30 29 26 25 26 26 24 24 23 23 23 21 21 20 19 19 21 21 20 21 22 22 22 21 21 21 21 20 20 21 22 23 24 25
28 28 28 25 25 27 26 27 28 28 26 24 25 25 24 24 22 20 21 20 20 20 21 22 24 24 24 24 25 24 23 23 22 20 19 19 20 21 23 24 25 25
27 27 27 23 22 22 19 19 22 23 23 22 22 23 23 23 21 20 19 18 18 19 21 22 23 24 25 25 26 25 23 22 22 21 21 21 21 22 23 24 25 24
26 26 27 25 22 19 14 17 18 18 19 20 20 21 22 22 21 21 20 19 19 20 20 21 21 23 23 23 24 24 23 22 22 22 22 22 22 22 23 24 24 23
26 27 27 26 24 19 12 13 17 18 19 21 21 21 21 21 20 20 20 20 20 20 22 23 24 26 26 24 24 24 24 24 23 23 22 21 21 22 23 23 24 23
26 27 27 26 25 21 14 10 13 17 20 21 21 21 22 21 20 19 20 22 22 21 23 25 25 26 25 24 24 24 24 24 24 23 21 21 22 22 23 24 25 25
24 25 25 25 25 22 17 12 10 15 18 20 20 20 22 22 21 22 22 22 23 23 23 24 25 25 23 23 23 23 24 24 24 24 23 23 23 24 25 26 26 26
23 23 23 24 24 22 19 16 12 12 15 17 18 19 22 23 24 25 25 24 24 24 23 25 27 26 24 24 24 24 24 24 25 25 26 26 26 26 26 26 26 26
22 22 22 22 23 22 20 19 16 14 13 15 16 18 21 23 24 25 24 24 24 24 24 27 28 27 26 26 26 25 25 25 26 27 28 28 27 26 26 26 26 26
21 21 21 21 22 21 20 19 19 17 16 16 16 18 20 21 21 22 23 23 23 23 25 27 27 26 27 28 28 27 27 27 27 28 29 29 27 26 26 26 26 26
21 21 21 21 21 21 20 19 19 19 17 17 18 18 19 19 20 21 23 24 23 23 26 28 28 28 28 28 28 29 30 28 27 27 28 28 28 27 26 26 26 27
20 21 20 20 21 21 20 20 20 18 15 15 18 19 19 19 19 21 23 24 24 25 28 30 29 29 29 29 29 30 31 29 27 27 28 29 28 27 26 26 27 27
20 20 20 20 20 20 20 20 21 20 18 15 16 19 18 18 18 19 21 23 25 26 29 30 30 31 31 30 30 32 33 32 29 28 29 29 28 27 26 26 28 28
20 20 20 20 20 20 20 21 22 23 22 19 15 14 15 16 18 20 21 22 23 27 30 31 31 32 33 33 32 32 34 34 31 30 30 29 29 29 27 27 27 28
21 20 20 20 21 20 20 21 22 23 23 22 19 15 13 13 15 17 20 21 22 26 31 33 32 33 34 35 34 34 35 34 32 31 30 30 31 30 29 27 26 27
22 22 22 21 21 21 21 20 22 24 24 24 24 22 20 18 16 15 17 20 22 26 29 32 35 37 36 36 36 36 36 35 33 32 31 32 32 32 31 28 26 27
24 23 23 22 22 22 22 22 21 23 25 25 25 25 26 25 24 21 18 18 20 25 29 31 34 38 40 39 37 37 38 38 35 33 31 30 30 31 30 28 27 29
27 25 24 24 23 23 23 23 22 22 24 25 25 26 26 26 26 25 23 20 19 20 24 28 31 36 39 40 38 37 38 39 38 36 33 30 30 29 28 28 29 30
28 27 25 25 25 24 24 24 23 23 23 25 26 26 25 26 26 25 24 23 22 21 20 21 24 28 34 37 39 40 40 41 41 39 35 33 32 30 28 28 30 31

ECMWFNIL_500_spd_099.txt.gz
Wind_Speed
34 35 36 37 37 36 36 36 36 38 39 39 39 37 36 36 35 33 31 30 29 30 28 25 25 24 23 23 23 20 20 23 24 23 23 24 23 23 24 25 24 22
35 36 37 38 37 37 36 36 35 36 38 40 40 38 37 36 35 33 31 28 29 30 29 27 25 24 23 23 23 21 21 24 25 24 23 24 23 24 25 26 25 22
35 36 37 37 37 38 38 38 38 37 37 39 39 38 36 34 33 32 30 28 28 29 29 27 25 25 23 22 23 23 23 26 27 25 23 24 25 27 28 27 25 23
34 35 35 36 36 37 37 38 39 39 37 36 35 35 34 32 30 29 28 27 28 28 28 26 26 25 23 21 22 24 26 28 29 26 24 26 28 28 27 26 25 23
33 34 34 34 34 34 35 37 39 38 36 31 30 32 30 27 26 26 27 27 27 27 27 26 25 25 23 22 21 23 28 30 29 26 26 27 28 27 27 26 25 23
32 32 32 32 32 32 34 36 37 35 32 29 27 27 25 22 22 24 26 27 26 26 26 25 25 25 24 23 20 21 24 27 26 25 25 25 26 27 27 26 24 23
31 31 31 30 31 32 34 36 35 32 28 26 24 21 21 20 20 23 25 26 26 26 24 23 24 25 24 23 22 21 21 22 22 24 25 24 24 25 24 23 24 24
31 31 30 29 29 31 34 36 34 30 25 22 21 20 20 19 19 22 25 25 25 25 24 23 23 24 25 25 25 23 23 22 22 24 24 23 23 23 22 22 22 21
30 30 29 28 29 31 33 34 33 28 22 19 19 19 18 18 18 22 25 24 23 24 24 22 22 23 25 25 25 24 23 22 23 24 23 22 21 20 20 20 19 19
29 30 29 28 29 30 32 32 30 25 18 16 16 17 17 18 19 22 23 23 23 23 23 23 23 23 23 23 23 23 21 20 22 21 20 20 19 19 20 20 19 17
29 29 28 28 29 30 31 31 28 22 15 14 14 13 15 16 18 21 23 24 23 23 23 23 23 23 22 22 23 22 19 19 20 19 18 18 17 18 19 19 19 19
27 29 29 27 28 29 30 29 28 22 14 14 14 12 13 14 16 19 22 23 22 22 21 21 21 22 22 23 23 22 19 19 19 19 20 19 17 18 19 18 20 20
26 28 29 28 27 28 28 28 28 24 18 15 14 13 14 15 15 16 19 21 21 22 22 21 21 21 21 22 22 22 21 22 21 21 20 19 18 19 19 19 20 21
24 26 28 28 26 26 27 27 27 26 23 21 17 14 17 18 17 16 16 18 19 20 22 21 21 21 21 22 23 23 24 25 23 21 20 19 19 19 19 19 22 22
23 25 27 28 27 25 26 26 27 26 26 25 22 17 17 18 18 18 18 17 17 18 20 21 21 22 22 24 24 25 27 25 22 21 21 21 21 22 24 25 27 27
23 24 25 26 27 26 25 25 26 26 26 26 24 22 17 16 18 18 19 21 20 19 21 23 23 23 24 24 24 23 24 23 21 21 22 22 23 24 25 27 28 28
23 23 24 25 26 26 26 25 25 26 26 26 26 25 19 15 17 17 18 21 22 22 23 24 24 25 24 24 24 25 24 22 21 22 22 22 23 25 25 26 26 27
25 24 25 24 25 26 25 25 25 25 26 26 25 26 23 17 16 17 18 19 19 20 22 23 24 25 25 25 28 30 28 26 25 25 24 23 24 25 25 25 25 26
28 26 25 25 25 25 25 25 25 25 26 26 25 25 25 21 17 16 18 19 18 18 19 22 24 26 26 27 29 31 30 28 27 27 27 27 27 28 27 26 25 26
30 28 26 26 26 26 25 25 26 26 26 26 25 25 25 24 21 18 17 17 18 18 19 20 23 25 26 28 29 31 29 28 28 28 27 28 29 30 29 27 26 26
30 30 28 27 26 27 27 26 26 26 26 25 25 25 25 26 26 24 21 17 15 16 17 20 22 25 27 27 29 31 31 30 30 27 26 27 29 30 29 26 25 26
30 31 30 28 27 27 27 27 27 27 27 26 25 24 24 25 26 26 25 22 18 15 15 18 21 25 28 30 30 32 32 33 32 27 25 27 29 30 30 27 25 25
30 30 31 30 29 28 27 27 27 27 27 26 25 24 23 23 24 25 24 23 21 19 18 19 20 21 24 27 30 32 34 36 35 32 30 30 31 33 32 29 27 27
29 30 30 31 30 29 28 28 28 28 27 27 26 24 22 22 22 23 23 22 21 21 20 21 21 20 20 21 23 26 30 33 37 39 37 32 31 36 37 34 30 29
30 29 30 31 31 30 30 29 29 28 28 27 27 25 23 22 22 22 22 22 21 21 21 21 21 21 21 20 20 20 21 24 29 37 40 38 36 37 39 37 32 28
30 30 30 31 31 31 30 29 29 29 28 28 27 25 23 22 22 22 22 22 21 21 20 21 21 22 21 21 20 19 18 18 20 26 35 41 42 38 34 33 31 27

ECMWFNIL_500_spd_102.txt.gz
Wind_Speed
25 26 28 29 31 34 36 36 36 36 36 36 37 38 37 37 37 36 34 31 30 29 28 28 28 27 24 24 26 26 25 25 26 26 24 23 26 29 27 25 24 26
26 27 29 31 33 36 36 36 37 37 36 36 38 38 38 39 38 37 33 29 28 29 28 27 26 25 24 24 26 26 25 24 26 26 24 22 24 27 26 24 25 25
27 28 30 32 34 36 36 35 36 37 37 38 39 39 39 38 37 35 31 27 27 28 27 26 24 23 23 24 25 25 25 24 25 27 25 24 25 27 27 27 27 26
27 29 31 33 35 35 34 34 35 37 38 39 40 41 39 36 34 32 28 25 24 23 23 23 22 21 22 23 24 25 24 23 24 27 26 25 26 28 30 29 28 27
28 30 32 33 34 34 33 33 35 36 37 38 40 42 39 33 29 28 26 23 19 18 19 20 20 21 22 23 24 23 22 22 24 26 26 27 27 30 32 31 29 29
29 30 32 33 33 33 32 33 34 35 36 39 41 41 36 29 25 24 23 19 15 15 17 18 19 20 21 22 23 22 21 21 23 25 26 29 29 31 32 30 29 28
29 30 31 32 33 32 32 33 34 35 36 39 42 39 31 25 22 20 18 16 15 15 15 16 18 20 21 22 21 21 21 21 23 25 27 30 32 33 31 28 26 25
29 30 30 31 32 31 31 32 33 34 36 37 40 37 28 21 18 17 16 16 17 16 15 15 17 18 19 20 21 21 21 22 24 24 25 26 29 30 27 24 23 22
29 30 30 30 31 31 31 32 32 33 35 36 37 35 28 19 16 16 16 17 18 18 16 14 15 17 19 20 20 21 21 23 24 23 21 20 21 22 21 21 20 20
29 30 29 29 30 30 30 32 32 32 34 34 35 34 28 21 16 16 17 18 18 18 16 15 16 18 20 20 19 19 20 22 22 23 22 20 19 20 19 19 17 17
29 29 28 28 30 30 30 31 32 32 32 33 34 33 29 23 18 16 15 16 18 17 15 15 16 18 19 20 19 19 19 20 20 21 21 21 21 21 21 19 18 18
29 29 28 28 30 31 30 30 31 31 31 32 33 32 30 25 20 16 15 15 17 19 16 14 15 17 18 18 19 19 18 17 18 18 19 21 21 21 21 21 20 19
28 29 28 28 30 31 31 30 30 31 31 31 32 31 30 28 23 19 18 18 18 19 18 15 15 15 15 15 16 18 17 17 16 17 18 20 20 19 20 20 18 17
29 29 29 29 30 31 31 30 30 30 31 31 31 31 31 30 28 25 21 19 19 19 17 15 15 16 15 14 15 16 16 16 16 17 18 19 19 18 18 18 16 16
29 29 29 29 29 30 32 32 31 30 30 30 31 31 31 30 30 29 25 20 19 19 18 16 16 18 17 16 15 15 15 16 16 17 19 20 19 19 18 18 18 18
30 30 30 30 30 30 32 32 32 31 30 30 30 31 30 30 29 29 28 23 20 19 19 18 17 18 18 17 16 15 16 17 17 18 19 21 21 19 19 19 19 18
30 30 30 30 30 30 31 32 32 32 31 30 29 30 30 30 28 28 28 26 24 21 18 17 18 19 20 20 19 18 18 18 19 20 21 23 23 21 20 20 19 18
31 31 30 30 31 30 31 32 32 32 32 30 29 29 30 30 28 27 28 27 26 24 20 17 17 18 20 21 21 21 20 20 20 21 22 24 23 21 20 20 20 19
31 31 31 31 32 31 31 31 31 32 32 31 30 28 28 29 28 27 27 27 26 25 22 19 17 18 18 19 20 20 20 19 20 21 22 23 22 20 19 20 22 22
30 31 32 32 33 33 32 32 31 31 31 31 31 29 28 28 28 27 26 26 26 25 24 22 19 18 17 16 18 20 20 20 21 22 24 26 24 22 21 22 25 26
31 31 32 33 34 34 34 33 32 31 30 30 30 30 29 29 28 27 25 24 24 24 24 23 21 20 18 16 16 19 21 23 23 24 27 30 29 27 25 25 25 27
31 32 32 33 34 34 34 34 33 31 30 30 29 29 29 29 29 27 26 24 24 23 22 22 21 21 20 18 17 17 18 20 22 25 28 30 31 31 31 29 27 26
31 32 33 34 34 35 35 35 34 32 31 30 30 29 29 29 29 28 26 25 24 23 22 21 20 20 20 18 17 17 17 16 17 20 23 25 27 29 31 32 32 30
32 33 34 34 35 35 35 35 34 33 32 32 31 30 29 29 28 27 26 24 23 23 22 21 20 19 19 18 18 17 17 17 17 17 18 19 21 24 27 30 32 29
34 35 35 36 36 36 36 36 35 34 34 34 33 32 30 29 28 27 26 24 23 23 23 22 21 20 19 19 18 18 18 18 18 18 18 18 19 19 21 26 31 30
36 37 37 36 36 36 36 36 36 36 36 35 34 33 31 30 29 28 28 27 26 25 25 25 24 23 22 21 21 20 20 20 19 19 19 18 18 18 17 20 28 33

ECMWFNIL_500_spd_105.txt.gz
Wind_Speed
21 22 23 23 24 24 25 27 29 30 31 32 35 37 38 39 41 42 43 42 38 35 33 32 32 31 30 29 27 27 27 25 24 23 23 24 23 23 21 20 23 25
21 22 23 23 23 24 25 28 30 31 32 33 36 37 39 40 42 44 43 40 35 32 31 30 29 29 29 28 26 25 24 24 23 23 23 23 23 23 20 19 22 25
22 23 23 23 23 24 26 28 30 31 32 34 36 38 39 41 43 43 38 32 28 26 26 25 25 26 27 27 26 23 22 23 22 22 22 21 21 20 18 19 24 26
23 23 23 23 23 24 26 28 30 31 32 34 36 37 39 41 43 40 32 24 21 20 20 19 20 22 24 25 25 22 20 21 20 20 19 19 19 18 19 23 26 27
23 24 24 23 24 25 27 28 29 30 32 34 36 37 39 40 42 38 28 20 16 15 14 15 17 20 21 21 20 19 19 19 18 17 15 16 18 19 21 24 24 25
24 24 24 24 25 26 27 28 29 30 31 34 35 37 38 39 40 37 28 19 14 12 11 11 12 14 15 15 15 16 17 18 17 14 14 18 21 21 23 24 25 28
24 24 24 25 26 26 28 28 29 30 31 33 35 35 37 38 39 37 30 21 15 12 11 11 10 10 12 13 15 17 17 16 16 14 16 20 22 23 25 26 27 30
25 25 25 26 27 27 28 28 29 30 31 32 34 35 35 36 37 37 33 24 17 14 13 12 12 12 13 14 15 17 17 16 16 15 18 21 21 23 27 28 27 29
26 25 26 27 27 28 28 28 29 30 31 31 33 34 34 35 36 36 34 28 20 16 15 13 13 13 15 15 14 14 15 15 16 17 19 23 23 22 23 23 24 28
26 26 27 28 28 28 28 28 29 30 30 31 32 33 34 34 35 35 34 31 24 18 16 14 13 14 14 15 15 15 16 15 15 17 18 21 23 21 19 18 18 19
27 27 28 29 29 28 28 28 29 30 30 30 32 33 34 34 34 34 34 33 28 22 18 17 16 15 14 14 15 16 16 16 15 15 16 18 19 19 17 17 15 14
27 28 29 30 30 29 28 28 28 29 30 31 31 33 34 33 33 33 32 32 31 27 21 19 18 17 15 14 14 14 15 16 15 15 15 16 16 14 13 14 15 15
28 29 30 30 30 30 29 29 28 28 30 31 31 31 32 33 33 33 32 31 31 30 26 22 19 17 16 14 13 13 13 14 15 15 16 16 16 14 13 15 15 15
29 30 30 31 31 31 30 29 28 28 29 31 31 31 31 32 33 32 31 30 29 29 28 25 21 18 16 15 13 13 14 14 15 16 16 16 16 16 15 15 15 15
29 30 31 32 32 32 31 30 29 28 29 30 32 31 30 31 32 32 31 30 28 28 27 25 23 20 18 16 14 14 14 15 15 15 16 16 16 16 16 16 16 15
30 31 32 32 32 32 31 30 29 29 29 30 32 32 31 30 30 31 31 30 28 27 26 25 24 22 20 17 15 14 14 15 16 15 15 14 15 16 16 18 17 16
31 32 32 33 33 32 31 30 30 30 30 30 31 32 32 31 30 29 30 29 28 27 25 24 24 22 21 19 17 15 15 15 17 17 16 15 16 16 17 18 19 18
31 32 33 33 33 32 31 30 30 30 31 31 31 31 32 31 30 28 28 28 28 27 26 24 23 22 21 20 19 17 15 14 15 17 18 17 17 18 19 21 22 21
32 33 33 33 32 32 31 31 31 31 32 32 32 31 31 30 29 28 27 26 26 26 26 25 24 23 21 20 20 19 18 16 15 16 17 18 18 19 21 24 24 23
32 32 32 32 32 32 31 32 32 32 33 33 33 32 31 30 29 28 27 26 24 24 24 23 23 22 21 20 19 19 19 18 17 16 17 18 19 20 22 24 24 22
32 31 31 31 32 32 32 32 32 33 34 34 34 33 32 31 30 29 28 27 25 24 23 22 22 21 20 20 19 19 18 18 18 16 16 17 19 20 21 23 24 23
31 31 31 32 32 33 33 33 33 34 35 36 35 34 33 32 31 30 29 28 26 25 23 22 21 20 20 19 19 19 18 17 17 16 15 15 16 17 19 21 24 26
32 32 32 33 33 34 35 35 35 36 37 37 36 35 34 33 31 30 29 28 27 25 24 22 21 20 20 19 19 19 18 17 17 16 15 15 15 15 16 18 21 24
32 32 33 34 35 35 36 37 37 37 38 38 37 36 35 34 32 30 28 26 25 25 24 24 23 22 21 21 20 20 20 19 18 17 16 16 16 16 16 17 18 20
31 31 32 33 34 35 36 36 37 37 38 38 38 37 36 34 33 32 30 27 26 25 25 25 25 25 24 24 23 23 22 22 22 21 20 19 19 18 18 18 19 19
30 30 31 32 33 34 35 35 36 36 37 37 37 37 36 36 34 33 32 31 29 28 27 26 26 27 27 27 26 26 25 26 26 26 25 25 24 23 22 22 21 21

ECMWFNIL_500_spd_108.txt.gz
Wind_Speed
22 23 23 23 24 24 24 23 23 23 23 24 26 27 29 31 33 36 39 42 45 46 41 36 32 29 27 28 30 31 31 30 28 29 29 27 25 24 24 24 23 22
22 23 24 24 24 24 24 24 23 23 24 25 26 28 30 32 33 36 38 42 45 43 37 32 29 25 22 22 24 26 27 26 25 25 26 26 24 23 23 22 22 22
23 24 24 24 25 25 25 24 23 23 24 25 27 28 30 31 33 35 38 41 44 41 33 28 26 22 19 18 18 20 21 22 22 22 24 25 24 23 21 22 21 21
24 24 25 25 25 25 26 24 23 23 24 25 27 28 29 31 32 34 37 39 42 39 30 24 22 20 17 16 15 15 17 19 19 20 22 23 23 21 21 22 21 21
24 25 25 26 26 26 26 25 23 23 24 25 26 27 28 30 31 33 35 37 39 38 30 22 20 18 16 14 12 12 13 15 17 19 20 20 20 20 21 21 21 22
25 25 26 26 27 27 27 25 24 24 24 25 26 27 27 29 31 32 34 35 37 37 32 24 20 18 16 13 11 9 10 11 14 17 18 19 20 21 22 23 22 22
25 26 27 27 27 27 27 26 24 24 24 25 26 26 26 28 30 31 32 33 34 36 33 26 20 18 17 14 12 10 10 11 13 15 17 19 21 21 21 23 26 26
26 27 27 27 28 28 28 26 25 25 25 26 26 26 26 26 28 29 30 32 32 33 33 29 22 18 17 16 13 11 10 10 12 14 16 19 20 21 21 22 25 27
27 28 28 28 28 28 28 27 26 26 26 26 26 26 25 25 27 28 29 30 31 31 31 31 26 20 17 16 14 11 10 10 11 12 15 17 18 20 22 24 24 21
28 29 29 29 29 29 28 27 27 26 27 27 27 26 26 25 26 27 29 30 31 31 31 31 29 24 19 17 15 12 11 11 12 13 14 15 17 18 21 23 24 21
29 30 30 29 29 29 28 28 27 27 27 28 27 27 26 26 26 27 29 29 30 31 30 29 29 27 22 19 16 14 13 12 13 14 15 16 16 16 18 19 20 20
31 31 31 30 30 29 28 28 28 27 28 28 28 27 27 27 27 27 28 29 30 30 29 28 28 27 24 21 18 16 14 13 13 14 15 16 16 16 17 17 15 15
32 32 32 31 30 29 29 28 28 28 28 28 28 28 27 28 28 27 28 28 29 29 28 27 26 25 24 22 20 18 16 15 14 14 15 16 17 17 18 16 14 13
32 33 32 32 31 30 29 29 29 29 29 29 28 28 28 28 29 28 28 28 28 28 28 27 26 25 24 22 21 19 17 15 15 16 16 16 16 17 18 17 15 15
33 33 33 32 31 30 29 29 29 30 29 29 29 28 28 28 29 29 28 28 28 27 27 27 26 25 24 22 21 19 17 16 15 16 17 16 16 15 15 16 16 16
33 33 32 31 31 30 30 30 30 31 30 30 29 29 29 29 29 30 29 29 28 27 27 26 25 24 23 22 21 19 18 16 15 15 16 17 17 16 15 14 15 15
33 33 32 31 31 31 31 31 31 31 31 30 30 30 30 30 30 30 30 30 29 29 28 27 26 25 23 22 21 20 19 17 16 15 15 15 16 17 17 16 15 14
32 32 31 31 30 30 30 31 31 31 31 31 31 32 32 32 32 32 31 31 29 28 28 28 27 26 25 24 22 21 20 19 18 16 15 14 15 16 18 18 17 15
31 30 30 29 29 29 30 30 31 31 32 32 32 33 33 34 34 34 33 32 31 29 27 27 26 26 25 25 24 22 22 21 20 18 17 15 14 15 17 19 19 18
29 29 28 28 28 29 29 30 31 32 32 33 33 34 34 35 35 35 34 33 32 30 28 27 26 25 24 24 24 23 22 21 21 20 19 17 15 15 16 18 21 22
28 28 28 28 29 29 30 30 31 32 32 33 33 34 34 34 35 35 34 33 32 31 29 27 26 25 23 23 23 23 22 21 21 21 20 19 18 16 16 17 20 23
28 28 28 29 29 29 30 30 31 31 32 32 33 33 33 33 33 33 33 33 32 30 29 28 27 26 24 22 22 22 22 22 22 21 21 20 20 19 18 17 18 20
28 28 29 29 29 29 29 30 30 31 31 32 32 33 33 33 33 32 32 32 31 30 29 29 28 27 26 24 23 22 23 23 23 23 22 22 22 21 20 19 18 18
29 29 29 29 30 30 30 30 31 32 32 33 33 34 34 34 33 33 32 32 31 31 31 30 30 29 28 27 25 24 24 24 24 25 25 24 24 24 23 23 22 20
28 29 29 30 30 31 31 32 33 33 34 34 35 35 35 35 34 33 32 32 32 32 32 32 31 30 29 28 27 26 26 26 26 27 27 27 27 27 27 27 26 25
28 28 29 29 30 31 32 33 34 34 35 35 36 36 36 35 35 34 33 33 33 33 32 32 31 30 29 29 28 27 27 27 28 28 29 29 29 29 29 29 30 30

ECMWFNIL_500_spd_111.txt.gz
Wind_Speed
23 23 22 22 22 23 23 24 24 24 25 25 26 26 26 27 27 27 28 29 31 33 35 38 40 42 38 32 32 32 29 27 23 19 19 21 23 24 23 24 26 26
24 24 23 22 23 23 23 24 24 25 25 26 26 26 26 26 26 27 27 29 30 32 34 37 39 41 37 31 29 30 28 25 22 18 16 18 20 20 21 22 23 24
25 24 24 24 24 24 24 24 25 25 26 26 26 26 26 26 26 27 27 28 29 31 33 35 36 38 37 31 27 27 26 23 20 18 15 16 17 17 18 19 21 23
25 25 25 25 25 25 24 25 26 26 26 26 26 26 26 26 26 26 27 28 29 30 33 34 35 36 36 32 27 25 24 21 18 16 15 15 15 15 16 18 20 22
25 25 25 25 25 25 25 26 26 27 27 27 26 26 26 26 26 26 26 28 29 30 32 34 34 35 36 33 29 25 22 20 18 16 14 13 14 15 16 17 19 20
25 25 26 26 26 26 26 26 27 27 27 27 27 26 26 26 26 26 26 27 29 30 32 33 34 34 34 34 31 27 23 20 18 16 14 12 13 14 15 16 18 19
25 25 25 26 26 26 26 27 27 28 28 27 26 26 26 26 26 26 26 27 28 30 31 32 33 33 33 33 31 28 25 21 18 15 13 12 12 13 15 16 18 20
26 25 25 25 26 26 26 27 28 28 28 28 26 25 25 25 25 26 26 27 27 28 30 30 31 31 32 32 31 29 25 22 20 17 14 14 14 14 15 16 18 20
27 26 26 26 26 26 26 27 28 29 28 28 27 25 25 25 25 25 26 27 27 27 28 29 29 30 30 30 30 29 26 23 21 19 17 16 16 16 16 16 16 18
28 27 26 26 26 27 27 28 29 29 29 28 27 26 25 24 25 25 26 27 27 27 28 28 28 28 28 28 28 27 26 24 22 20 18 17 17 17 17 17 17 17
28 27 27 27 27 28 28 29 29 29 29 28 27 26 26 25 25 25 26 27 27 27 27 27 27 28 28 27 27 26 26 25 23 21 20 19 18 18 17 17 17 18
28 28 28 28 28 29 29 29 29 29 29 28 28 27 27 26 26 26 26 26 27 27 27 27 27 27 27 27 26 26 25 25 23 22 21 20 19 19 19 18 18 19
28 28 29 29 29 29 30 30 30 30 29 29 28 27 27 26 26 27 27 27 27 27 27 27 27 27 27 27 26 26 25 24 24 23 21 20 20 20 20 19 19 19
29 29 30 30 30 30 30 30 30 30 29 29 28 27 27 26 26 27 27 28 28 27 27 27 27 27 27 27 26 26 25 24 23 23 22 21 20 19 20 20 19 19
30 30 30 30 30 30 30 30 30 29 29 29 28 27 26 26 26 27 27 28 28 28 28 27 27 26 26 26 26 26 25 24 23 23 23 22 21 19 19 20 20 20
30 30 30 30 30 30 29 29 29 28 28 27 27 26 26 26 27 27 27 28 29 29 28 27 27 26 26 25 25 25 25 24 24 23 23 23 22 22 20 20 21 21
30 30 30 30 29 29 29 28 28 27 27 26 26 26 27 27 27 28 28 28 28 28 28 28 27 27 26 25 25 24 23 23 23 23 23 23 23 23 22 22 21 21
29 29 29 29 29 28 28 27 26 26 26 26 26 27 27 28 28 28 29 28 28 28 28 27 27 26 26 25 25 24 23 22 22 22 22 22 22 22 22 22 22 22
29 28 28 28 28 28 27 27 26 26 26 26 26 27 27 28 28 28 29 29 29 28 28 27 27 26 26 25 25 24 24 23 22 22 22 22 22 22 22 22 23 23
28 27 28 28 28 28 27 27 27 26 26 26 26 27 27 28 28 29 29 29 30 29 29 29 28 27 26 26 25 25 25 24 24 23 22 22 22 23 23 23 23 24
27 27 28 28 28 28 28 28 28 27 27 27 27 27 28 29 29 30 30 30 30 30 30 29 29 28 27 26 26 26 26 26 26 25 24 24 23 23 24 24 25 25
27 28 28 28 28 29 29 29 28 28 28 28 28 29 29 30 31 31 31 31 31 30 30 29 29 28 28 27 27 27 27 27 27 27 26 26 25 25 24 25 25 26
28 28 28 29 29 29 29 29 28 28 28 29 29 30 30 31 31 31 31 31 31 30 29 29 29 29 29 29 28 28 28 28 28 28 28 28 27 27 27 26 27 27
27 27 28 28 28 28 28 28 28 28 29 29 30 31 31 31 31 31 31 31 30 30 30 30 30 30 30 30 30 30 30 30 30 30 30 29 29 28 29 29 29 30
26 27 27 28 28 29 29 29 29 29 30 30 30 31 30 30 30 30 30 31 31 31 31 31 32 32 32 32 32 32 32 31 31 31 31 31 30 30 30 30 32 33
26 27 27 28 28 29 29 29 29 29 29 29 29 29 29 29 30 30 31 31 32 32 33 33 33 33 34 34 34 34 33 33 33 33 32 32 32 32 32 32 32 34

ECMWFNIL_500_spd_114.txt.gz
Wind_Speed
22 23 24 24 24 24 23 22 22 22 22 22 23 23 23 23 24 25 25 26 26 27 28 29 30 32 34 35 36 37 37 36 33 31 30 28 25 23 21 18 16 16
22 23 24 24 24 24 23 22 22 23 23 23 23 23 24 24 24 25 25 26 26 27 28 29 30 31 33 35 35 36 36 35 33 31 27 25 24 22 20 17 16 16
22 23 24 24 24 23 23 23 23 24 24 24 24 24 24 24 25 25 25 26 26 27 27 28 29 30 32 33 34 34 34 34 33 31 27 23 21 20 18 16 14 15
23 24 24 24 24 24 24 24 24 24 25 25 24 25 25 25 25 25 26 26 27 27 27 28 29 30 31 32 33 33 33 34 33 32 28 24 21 18 16 14 13 14
24 25 25 25 25 25 25 25 25 25 25 25 25 25 25 25 25 25 26 27 27 27 27 28 29 30 30 31 32 32 32 33 33 32 30 26 22 18 15 14 14 14
25 26 26 26 26 26 25 25 26 26 26 25 25 25 25 25 25 26 26 27 28 28 28 28 29 30 30 30 31 31 31 31 31 31 30 28 24 20 18 16 16 15
27 27 28 28 27 26 26 26 26 26 25 25 25 25 26 26 26 26 26 27 27 28 28 29 29 30 30 30 30 30 29 29 29 29 29 28 26 23 21 19 17 17
28 28 29 29 27 27 27 27 27 26 26 26 26 26 26 26 26 26 26 27 27 28 28 29 30 30 31 31 31 30 29 28 28 28 27 27 26 24 22 21 19 18
29 29 30 29 28 28 28 28 27 27 27 27 26 26 26 26 26 26 26 27 27 28 29 29 30 30 31 31 31 31 29 27 26 27 27 26 26 25 23 22 21 20
30 30 30 30 30 29 29 28 28 28 27 27 27 27 27 26 26 26 26 27 27 28 29 30 31 31 31 31 31 31 30 28 26 25 25 25 25 25 23 22 21 20
31 31 31 31 31 30 30 29 29 28 28 28 28 27 27 27 27 26 26 26 27 28 29 30 31 32 32 32 32 31 30 29 27 25 24 24 24 24 24 23 21 20
31 31 32 32 32 32 31 30 30 29 29 28 28 27 27 27 27 26 26 26 27 28 29 30 31 31 32 32 32 31 30 30 29 26 24 23 23 23 24 23 22 21
32 32 33 33 33 33 32 31 30 29 28 28 27 27 26 26 26 26 27 27 27 28 29 30 31 31 31 31 31 30 30 29 28 27 25 23 22 22 23 23 23 22
32 33 34 34 34 34 32 31 30 29 28 27 27 26 26 26 26 26 27 27 28 28 29 29 31 31 31 31 30 30 29 28 27 27 26 24 22 21 21 22 23 22
32 33 34 34 34 33 32 31 30 29 28 27 26 26 26 26 26 27 27 27 28 28 28 29 30 31 31 30 30 29 28 27 26 25 25 25 24 22 21 21 22 23
33 33 33 33 33 33 31 30 29 28 27 26 26 25 26 26 27 27 27 28 28 29 29 29 29 30 30 30 29 28 27 26 25 24 23 24 24 24 23 22 22 23
33 33 33 33 33 32 31 30 29 28 27 26 26 26 26 26 27 27 27 28 28 29 29 29 30 30 30 29 29 28 27 26 25 25 24 23 24 24 24 24 23 23
33 33 33 33 33 32 31 29 28 28 27 27 27 27 27 28 28 28 28 28 29 30 30 30 29 29 29 28 28 27 27 26 26 26 25 25 25 24 25 25 25 24
33 33 32 33 32 31 30 29 28 28 28 28 28 29 29 29 29 29 29 30 30 30 30 30 29 28 28 28 27 27 27 26 26 26 26 26 26 26 26 26 26 26
32 32 32 32 32 31 30 29 29 28 28 29 29 29 29 30 30 30 30 30 30 30 29 29 28 28 27 27 27 27 27 27 27 28 28 28 28 28 28 28 27 27
32 32 32 32 31 30 29 29 28 28 28 29 29 29 29 29 29 30 30 29 29 29 28 28 27 27 27 27 27 28 28 29 29 30 30 30 30 30 30 30 29 29
32 32 32 31 30 29 28 28 28 28 28 29 29 28 29 29 29 29 28 28 27 27 27 27 27 27 28 28 29 29 30 31 31 31 32 32 31 31 31 31 31 31
32 31 30 29 28 28 27 27 27 28 27 27 27 27 27 27 27 27 26 26 27 27 27 28 29 30 30 30 31 31 32 32 32 32 33 33 33 33 33 33 33 33
31 30 28 27 27 26 26 26 26 25 25 24 24 24 25 25 26 26 26 27 28 29 30 30 31 31 31 31 31 31 31 31 32 32 33 33 33 33 33 33 33 33
29 28 27 26 26 25 25 24 24 24 24 24 24 25 25 26 27 27 28 29 30 31 31 31 31 31 30 31 31 31 31 32 32 32 33 33 34 34 34 34 34 34
27 26 25 25 25 24 24 24 24 24 24 25 26 26 27 28 29 30 30 31 31 30 30 29 29 30 30 30 31 31 31 31 31 31 31 31 31 32 32 33 33 34

ECMWFNIL_500_spd_117.txt.gz
Wind_Speed
14 14 15 16 17 18 19 20 21 22 22 22 23 24 25 26 26 26 25 25 24 24 24 25 26 27 28 28 28 29 30 31 32 33 35 36 35 34 31 27 24 22
14 14 15 17 18 19 20 21 22 23 23 23 24 25 26 26 26 26 26 25 25 24 25 25 26 27 28 28 28 29 30 31 31 32 34 35 34 33 32 28 23 20
15 15 17 18 19 20 21 23 23 24 24 24 25 26 26 26 26 26 26 26 25 25 25 25 26 27 28 29 29 29 30 30 31 31 32 33 34 33 32 29 24 20
16 17 18 19 20 21 22 24 24 24 24 24 25 26 26 27 27 26 26 26 25 25 25 26 27 27 28 29 30 30 30 31 31 31 31 31 32 32 31 29 27 23
18 19 20 20 21 22 23 24 25 24 24 24 25 26 27 27 27 27 26 26 26 26 26 26 27 28 28 29 30 30 30 31 31 31 31 30 31 31 30 29 27 26
20 21 21 21 22 23 24 25 26 25 25 25 26 27 27 27 27 27 27 27 26 26 26 27 27 28 28 29 29 30 30 30 30 30 30 30 29 29 30 29 27 25
22 22 22 22 23 24 25 26 27 26 26 26 27 28 28 28 27 27 27 27 27 26 26 27 27 27 28 29 29 29 30 30 30 30 30 29 29 28 29 29 27 25
23 23 23 24 24 25 26 27 28 27 27 28 29 29 28 28 28 27 27 27 27 26 26 27 27 27 28 28 29 29 30 30 30 30 29 28 27 27 27 28 27 26
24 24 25 25 26 26 27 28 29 29 29 29 30 30 29 29 28 28 27 27 27 26 26 27 27 27 27 28 29 29 30 30 29 29 28 27 26 25 25 25 26 25
25 25 26 26 26 27 28 29 30 30 30 30 31 30 30 29 28 28 27 27 26 26 26 27 27 27 27 28 29 29 29 29 29 28 27 27 26 25 24 23 23 24
26 26 27 27 28 29 29 30 31 31 31 31 31 31 30 29 28 28 27 27 26 26 26 27 27 27 28 28 29 29 29 29 29 28 27 26 25 24 23 23 22 22
26 27 28 28 29 30 31 31 31 31 31 32 32 31 30 29 28 27 27 26 26 25 26 26 27 28 28 28 29 29 29 29 29 28 27 26 25 24 23 22 22 22
27 28 29 29 30 31 32 32 31 31 32 32 31 31 30 29 28 27 27 26 26 26 26 27 28 28 29 29 29 29 29 28 28 28 27 26 25 24 23 22 21 21
28 29 29 30 31 32 32 32 32 32 32 31 31 30 29 29 28 27 27 26 26 27 27 28 28 29 29 29 29 29 29 28 28 27 26 26 25 24 24 23 22 22
29 30 31 31 32 32 32 32 32 32 32 31 31 30 30 29 28 27 27 27 27 27 28 28 29 29 29 30 29 29 28 28 27 27 26 26 25 25 24 24 24 23
30 31 32 32 32 32 32 32 32 32 32 31 31 30 30 28 28 27 27 27 28 28 28 28 29 29 29 29 28 28 27 27 27 27 27 26 26 26 26 26 26 26
31 32 32 32 32 31 32 32 32 32 32 32 31 30 29 28 28 28 27 27 27 27 27 27 27 28 27 27 27 27 27 27 27 27 28 28 28 29 29 28 28 28
32 32 32 31 31 31 32 32 32 32 32 32 31 30 29 28 28 27 27 26 26 26 26 26 26 26 26 26 26 27 27 28 28 29 29 30 31 32 32 32 31 31
32 32 31 31 31 31 32 32 32 32 32 31 30 29 28 27 27 26 25 25 24 24 24 24 24 25 26 26 27 28 29 30 31 31 31 32 32 33 34 34 34 34
31 31 31 30 31 31 31 31 32 31 31 30 28 28 27 25 24 23 23 22 22 23 23 24 25 26 27 28 29 30 31 32 32 32 32 32 32 32 33 33 34 34
30 30 30 30 30 30 30 31 31 30 29 28 27 25 24 22 21 21 21 21 22 23 24 25 27 28 29 30 30 31 31 31 31 32 32 32 32 32 32 33 33 34
29 29 28 28 29 29 29 30 29 29 27 26 24 23 21 21 21 21 22 23 24 25 27 28 28 29 29 29 29 30 30 31 31 32 32 33 33 33 33 33 34 34
28 27 27 27 28 28 28 28 28 27 25 24 22 21 21 21 21 22 23 25 26 27 28 28 28 28 28 28 29 30 31 31 32 32 32 32 32 32 32 31 31 31
26 26 26 27 27 27 27 26 26 25 23 22 21 21 21 22 23 24 26 27 27 27 27 27 27 27 28 29 29 30 31 31 31 30 30 29 28 27 27 27 27 27
24 24 25 26 26 25 25 24 24 23 22 21 21 22 22 23 25 26 27 27 27 26 26 26 26 27 28 29 30 30 29 28 28 27 26 25 24 24 24 25 25 25
23 24 25 24 24 23 23 22 22 22 22 21 22 23 24 25 26 27 27 26 26 25 25 25 26 27 28 28 28 27 26 25 24 24 23 23 24 24 25 25 25 25